GFSMA_sfc_dewp_000.txt.gz
Dewpoint
60 60 60 60 60 60 59 59 59 58 58 58 58 57 57 57 57 57 57 59 61 60 62 62 62 60 59 60 60 62 64 65 66 65 64 64 64 64 64 63 63 63 62
61 61 61 60 60 60 60 59 59 59 59 59 58 58 58 58 58 58 57 58 61 60 60 62 63 62 62 61 60 62 63 64 65 66 66 65 64 64 64 64 64 64 64
61 61 61 61 60 60 60 60 59 59 59 58 58 58 58 57 57 57 58 58 58 60 60 61 63 63 63 63 62 63 63 63 64 65 65 66 65 64 64 64 64 64 64
60 61 60 60 60 60 59 58 58 57 57 57 57 57 57 57 57 56 57 56 57 56 59 60 60 62 63 63 64 63 65 64 64 63 64 65 65 65 65 65 64 64 64
60 60 58 56 55 55 55 55 55 55 55 55 55 55 55 56 56 56 56 56 56 56 56 57 60 60 60 61 63 64 65 65 64 64 63 63 63 65 65 65 65 65 65
48 49 46 45 45 46 45 45 45 46 47 48 47 48 52 51 52 53 54 54 56 57 57 57 57 56 59 59 60 61 63 65 65 64 64 64 64 63 64 65 65 65 65
40 42 41 40 41 41 41 41 42 42 41 42 42 43 43 45 46 46 55 50 50 52 56 56 57 57 56 60 61 60 60 62 63 64 64 64 64 64 64 64 64 65 65
38 38 39 39 40 40 40 40 41 41 39 40 39 41 38 40 39 42 43 41 43 45 50 56 57 57 58 58 58 60 60 60 62 63 64 64 65 65 65 65 64 64 64
34 35 35 34 35 36 36 37 36 37 36 36 38 36 38 36 40 40 40 39 41 42 43 47 48 48 50 53 56 57 58 59 60 62 62 62 64 64 65 66 66 65 65
29 27 28 29 30 30 32 32 30 33 35 34 34 33 36 36 37 37 36 38 37 39 41 42 43 43 45 46 51 55 57 58 60 61 62 62 62 63 63 65 66 66 65
26 23 23 26 25 26 27 29 29 31 32 30 31 34 34 35 35 36 35 32 34 32 34 36 38 41 43 46 49 53 55 56 57 59 60 61 62 62 61 63 65 66 65
21 21 21 23 23 24 24 25 27 32 31 27 28 31 33 32 31 28 27 30 30 30 29 34 37 40 42 44 48 52 51 49 48 49 54 57 59 60 62 63 60 60 62
18 19 21 20 20 21 21 23 24 29 28 26 29 31 30 26 25 23 26 31 31 33 35 35 35 37 36 38 39 46 42 45 46 48 53 54 54 56 57 58 58 59 59
15 18 18 18 18 17 18 18 20 22 22 23 23 27 27 24 25 27 32 34 34 33 32 29 29 30 29 32 37 44 34 41 43 45 44 44 47 53 54 53 55 55 56
12 15 16 16 16 16 16 17 15 17 18 19 22 25 25 25 27 28 28 32 30 31 28 29 26 23 24 25 33 32 31 37 44 44 43 45 45 51 51 52 51 54 56
13 14 14 13 14 13 13 14 15 15 15 18 19 21 24 23 24 22 22 23 25 27 26 25 25 26 25 28 32 29 30 38 41 39 40 44 46 42 45 48 52 54 55
12 12 12 12 11 10 11 11 12 12 14 17 19 20 21 22 21 19 21 22 22 23 26 26 26 26 24 26 26 28 31 31 31 38 41 45 42 45 46 49 49 50 52
11 11 11 10 9 9 10 10 11 12 15 16 17 18 19 16 21 19 20 21 23 24 26 27 25 25 25 26 28 27 25 25 29 33 36 39 43 44 45 46 49 48 49
10 10 10 10 9 11 11 10 9 13 15 17 18 18 18 19 20 20 20 21 24 23 28 27 26 28 28 27 27 28 28 27 26 34 35 35 39 41 44 46 45 46 48
11 11 10 10 11 11 11 8 13 16 17 17 19 20 19 19 19 22 22 23 24 26 25 27 29 28 28 27 26 26 26 29 30 30 33 36 38 41 41 43 44 45 48
12 12 11 11 11 12 5 16 19 20 20 19 20 19 20 23 26 25 23 26 27 26 28 28 28 27 25 25 25 27 27 29 32 33 36 36 37 38 39 38 40 42 44
13 12 12 13 15 8 20 24 25 22 21 20 19 19 18 22 22 28 29 30 28 28 30 32 27 24 24 24 24 27 29 29 28 35 32 33 33 34 35 37 39 43 44
13 13 12 11 10 10 20 25 27 23 21 20 19 18 17 16 25 25 27 28 31 32 28 24 25 25 25 26 27 29 30 30 29 31 32 32 33 35 36 36 37 40 43
12 11 11 10 11 10 21 25 27 22 20 19 18 18 18 22 25 23 24 32 27 22 23 20 23 27 30 29 27 27 31 32 33 33 33 31 34 33 35 36 39 40 42
12 11 10 11 10 11 21 25 25 20 17 18 18 19 23 24 25 27 33 30 24 21 21 26 27 27 26 27 28 29 30 30 27 30 32 31 32 33 35 33 35 38 40
10 10 10 10 15 12 21 25 24 19 18 19 20 23 26 23 28 31 24 22 24 21 24 24 21 22 24 25 27 28 30 28 27 27 30 31 29 32 28 36 35 34 36

GFSMA_sfc_dewp_003.txt.gz
Dewpoint
60 61 60 60 61 61 61 60 60 59 59 58 58 58 58 57 58 58 59 61 63 64 62 63 63 64 64 63 61 63 64 64 65 65 66 66 65 65 65 65 64 64 64
61 61 61 61 61 61 61 59 60 58 58 58 57 57 57 57 57 58 58 59 62 64 64 63 64 64 65 65 64 64 64 64 65 65 65 66 66 65 65 65 65 64 65
61 61 61 61 61 60 58 58 56 56 55 55 54 55 56 56 56 56 56 58 59 61 64 64 64 64 64 65 66 66 65 64 64 64 64 65 66 66 66 65 65 65 65
61 61 59 57 54 54 53 52 50 50 50 51 51 53 53 53 53 53 55 55 57 57 60 64 64 64 63 63 64 66 66 66 65 64 64 64 65 65 67 66 66 65 65
53 51 47 45 43 46 45 44 43 44 44 45 45 46 46 49 51 49 50 53 55 57 57 60 62 63 63 63 63 63 64 66 65 65 65 64 64 65 65 65 66 66 66
42 43 41 41 41 43 43 43 42 43 43 43 40 41 45 44 45 46 50 46 45 45 47 51 57 59 61 63 63 63 63 63 64 65 65 65 65 65 65 65 64 65 65
37 39 40 39 40 40 39 38 38 39 39 40 39 41 41 41 40 43 41 40 43 46 44 46 49 55 59 62 61 62 63 63 63 63 64 65 64 65 65 65 64 64 65
34 34 35 34 34 36 35 35 35 35 35 36 35 36 35 36 37 37 38 39 38 42 41 44 46 47 49 50 54 58 60 60 62 61 62 62 62 62 62 66 66 65 65
27 27 29 28 29 33 33 33 32 35 34 35 34 31 32 32 34 37 35 35 34 34 39 38 39 40 41 41 44 46 53 56 57 58 58 60 61 61 61 63 64 67 66
25 22 24 26 26 28 30 32 27 33 34 32 32 26 31 31 31 30 32 33 31 29 31 35 32 32 32 38 45 47 51 55 54 56 57 57 58 60 61 63 63 64 65
23 22 22 25 24 26 27 28 30 31 33 29 28 30 29 32 29 27 25 27 27 28 30 29 31 31 34 36 42 50 52 49 51 52 52 54 56 59 60 60 60 63 63
21 21 21 22 23 24 25 27 28 31 32 29 27 27 24 26 26 24 23 25 27 30 33 31 34 35 36 37 40 45 44 43 44 47 49 50 52 54 53 53 56 56 58
19 19 20 19 20 23 23 24 25 27 26 27 27 24 24 26 26 24 25 27 28 30 29 29 27 30 27 31 27 38 38 40 45 44 46 48 48 47 48 49 48 52 55
15 17 18 17 17 17 17 19 22 23 23 24 27 26 24 26 25 25 27 27 26 24 25 24 27 24 24 26 30 39 28 41 43 40 42 42 41 44 43 43 48 50 48
11 13 16 15 15 15 15 16 16 18 19 21 23 25 24 23 26 26 27 26 24 22 20 21 23 23 27 24 31 27 24 34 38 37 39 42 43 43 42 44 46 44 43
12 14 13 13 13 12 12 14 16 17 16 18 19 21 21 22 23 24 25 24 24 23 21 22 23 24 26 25 28 28 28 36 35 35 35 38 40 41 44 43 43 44 44
10 11 11 11 11 10 10 12 13 14 14 16 19 19 20 21 21 21 23 23 23 23 22 22 23 25 25 25 26 27 29 28 28 33 34 35 38 40 42 43 43 45 46
9 10 10 10 10 10 11 11 12 12 12 14 16 18 19 16 22 23 22 22 22 22 22 22 24 24 24 26 26 26 24 24 26 31 33 34 35 37 39 40 42 42 45
10 10 11 11 11 13 13 11 11 9 13 15 17 19 19 20 22 22 22 21 22 21 25 24 24 25 26 27 26 25 24 25 24 32 32 32 33 36 37 39 40 42 43
11 12 12 12 14 13 14 13 11 15 17 18 20 21 20 20 20 22 22 23 23 26 26 26 25 26 25 27 26 24 22 23 24 23 29 31 33 35 38 38 36 38 40
13 14 13 15 15 14 11 15 18 19 21 21 21 20 20 25 25 24 20 24 26 27 26 26 27 26 26 23 23 22 21 23 25 26 28 29 32 32 31 33 34 38 40
14 13 15 17 20 12 22 23 23 22 22 21 21 20 19 24 22 25 28 28 27 24 28 27 30 27 23 21 19 23 25 26 24 26 27 27 28 29 30 32 34 37 38
14 15 14 14 12 12 22 23 25 22 22 21 20 19 18 16 23 24 28 28 29 30 29 25 25 21 19 23 26 28 27 23 22 25 28 27 31 31 32 29 33 34 37
13 13 13 12 12 12 21 23 25 22 21 20 18 19 19 21 25 25 24 29 30 28 23 22 20 20 25 26 27 22 24 29 28 29 28 27 30 31 29 32 32 34 33
13 13 11 11 11 10 20 22 24 21 20 19 18 20 21 23 26 31 28 27 19 19 23 26 26 26 26 25 25 24 26 26 24 24 26 26 28 28 29 29 30 34 38
12 10 10 9 14 9 20 24 23 21 20 20 20 23 27 24 28 30 24 18 20 21 23 23 21 20 22 22 26 25 26 25 24 22 25 25 25 27 26 27 32 30 29

GFSMA_sfc_dewp_006.txt.gz
Dewpoint
61 61 61 61 61 61 61 60 59 59 58 58 58 57 57 57 57 58 58 61 63 66 66 65 64 64 65 64 65 66 66 65 65 65 65 66 66 67 66 66 66 65 65
61 61 61 61 61 60 60 59 58 56 55 55 54 54 55 55 55 55 56 57 62 64 66 66 65 65 65 65 64 65 66 66 65 65 65 65 65 66 67 66 66 66 65
61 61 60 59 58 56 54 52 50 51 51 51 52 53 53 54 54 54 53 53 56 59 64 66 66 66 66 65 65 65 65 66 65 66 65 65 65 65 65 66 66 66 66
58 52 50 46 46 46 45 44 44 44 44 44 44 44 45 42 43 49 48 49 51 51 58 64 63 64 64 64 64 64 65 65 66 65 65 65 65 65 65 65 65 65 66
44 45 44 42 42 45 44 43 42 43 41 41 40 37 39 43 39 41 42 38 38 41 43 52 58 61 62 62 62 62 64 63 64 64 65 65 65 65 65 65 65 65 65
40 42 42 40 40 41 41 37 36 36 38 39 33 37 36 36 38 39 36 34 38 38 40 41 42 49 56 60 60 58 58 58 61 63 63 63 63 64 63 65 66 65 65
37 36 38 36 36 37 35 32 33 33 35 35 35 31 35 36 35 32 33 37 32 35 33 35 38 36 38 50 52 53 52 50 55 56 59 59 62 61 62 63 61 65 66
30 28 31 31 30 34 32 32 31 34 34 35 32 32 31 27 30 33 34 30 32 30 31 31 26 25 32 30 36 47 50 50 52 54 55 57 58 59 59 60 61 62 62
26 27 28 28 29 31 32 31 31 32 34 33 31 29 28 29 27 32 29 31 25 30 25 27 26 26 27 30 37 36 44 51 51 54 55 55 56 56 56 57 58 60 61
24 25 26 27 27 30 28 29 28 30 32 32 32 27 28 27 26 25 29 26 25 23 25 28 27 29 27 25 39 43 48 47 45 47 49 50 53 53 54 55 56 58 56
24 24 24 25 25 28 27 26 26 27 32 30 29 29 26 27 24 23 24 23 23 24 28 27 29 28 24 23 26 34 42 40 42 44 46 48 51 51 52 52 52 52 53
26 23 23 23 23 24 24 26 24 26 27 28 28 26 25 22 21 22 22 21 22 23 26 26 27 22 22 22 28 37 37 38 40 41 45 46 46 48 48 47 47 47 49
22 20 21 19 21 21 22 22 23 23 24 24 25 23 25 23 22 24 22 23 23 23 23 23 21 24 22 19 24 36 36 36 37 40 42 42 41 41 41 43 44 45 46
18 17 18 18 17 18 19 19 22 23 19 23 21 22 23 22 23 23 22 25 21 21 20 20 21 20 19 23 29 35 27 33 34 37 40 39 37 38 39 39 41 42 42
12 15 16 15 15 16 16 16 17 17 18 19 21 22 21 22 22 23 25 23 23 20 20 19 18 20 22 23 26 25 23 31 34 34 35 36 35 36 36 36 36 38 39
13 14 13 13 13 14 14 14 17 17 16 16 17 17 17 19 20 22 22 24 23 21 19 19 21 20 20 22 25 24 24 31 33 34 33 32 33 34 35 36 37 36 39
11 12 12 12 12 12 12 13 13 13 13 13 14 14 17 18 19 21 22 23 22 22 21 20 20 20 22 22 22 24 27 26 26 31 32 32 32 32 33 34 34 36 39
11 11 12 12 13 14 14 13 13 13 13 13 14 16 18 17 20 21 22 21 22 21 20 18 22 23 22 23 24 25 24 25 24 28 30 30 30 31 32 33 33 35 37
11 13 13 14 14 16 15 14 14 13 15 16 18 19 20 20 20 22 21 21 21 20 23 24 23 24 25 25 25 25 25 23 21 25 27 30 31 32 33 34 34 35 37
13 14 15 15 17 16 16 15 14 16 18 19 21 22 21 21 21 22 20 21 20 23 24 25 27 28 25 25 30 24 21 20 19 20 25 29 30 30 32 32 32 33 34
15 16 15 16 17 16 14 16 17 19 20 21 22 22 22 25 29 24 20 21 24 23 26 30 26 27 25 24 21 20 18 21 21 23 25 21 24 25 26 30 31 32 34
15 15 15 17 20 13 23 24 23 19 20 21 21 22 20 23 23 27 27 28 26 27 28 29 27 21 19 19 22 20 21 21 23 23 21 22 24 25 27 31 31 35 36
13 14 14 14 13 12 22 24 24 18 20 21 21 20 18 17 23 22 27 30 34 34 29 21 18 17 22 26 24 25 26 26 21 22 24 24 26 27 26 26 32 33 36
13 14 14 13 12 11 21 22 24 19 21 21 21 20 19 20 22 25 25 32 30 24 20 19 19 22 25 24 22 20 21 24 25 25 25 23 25 22 24 28 31 30 33
14 14 12 11 10 9 20 22 22 19 19 20 20 21 22 23 27 28 27 29 25 20 21 25 30 29 25 24 24 21 24 23 20 20 23 23 22 23 24 26 29 32 36
14 12 11 10 14 8 19 23 22 18 18 20 21 23 27 24 26 29 26 22 21 17 20 27 18 18 20 21 25 23 25 22 21 19 22 22 23 24 22 25 28 27 28

GFSMA_sfc_dewp_009.txt.gz
Dewpoint
61 61 61 62 61 60 60 59 57 56 55 54 53 53 53 55 55 55 56 60 62 63 63 63 65 65 65 65 65 66 66 67 66 66 66 66 66 66 66 67 67 66 66
61 61 60 58 57 53 50 49 46 47 47 48 45 45 50 51 51 51 50 54 60 61 62 60 62 64 62 63 64 65 65 66 66 66 66 66 66 66 66 66 66 66 66
60 56 45 43 47 46 44 43 42 44 43 42 42 44 41 40 42 43 45 46 50 53 54 54 57 57 62 59 61 63 63 64 64 64 65 64 65 66 66 66 66 66 66
46 44 42 42 43 44 42 41 41 39 40 41 41 36 37 40 37 38 41 34 35 40 46 52 51 54 50 53 54 56 57 60 60 60 61 62 63 63 64 65 66 65 65
41 41 41 39 40 41 38 36 35 35 36 36 32 34 33 34 37 35 35 32 37 33 36 43 50 48 47 45 49 50 50 50 53 55 56 58 59 61 61 62 61 64 65
36 38 37 34 36 36 34 32 30 32 34 34 33 30 31 35 34 30 27 32 30 33 31 31 31 29 42 43 44 46 48 47 46 47 50 53 55 57 59 59 60 60 62
32 31 33 31 33 32 31 30 31 32 33 34 33 26 34 34 29 23 27 33 28 25 29 24 25 25 29 39 42 43 44 46 50 51 51 53 54 55 56 57 58 59 59
27 27 29 29 30 31 29 29 30 32 34 33 31 30 27 27 27 24 29 24 27 25 24 23 24 26 26 32 32 37 42 46 48 48 49 50 51 51 52 55 56 56 57
26 27 27 27 29 30 29 28 29 29 32 32 31 27 26 26 23 28 18 26 18 26 23 27 26 24 30 28 28 33 36 39 43 45 47 47 48 49 50 53 54 55 55
23 25 26 26 26 28 26 26 25 28 29 29 31 28 27 27 26 21 25 20 26 22 24 26 25 29 24 25 28 32 35 37 41 44 45 46 47 48 49 51 53 52 53
23 24 24 24 24 26 24 23 23 24 27 26 28 28 25 26 23 22 20 21 22 23 24 24 29 24 23 20 26 28 33 37 41 43 44 45 45 45 46 46 48 49 48
24 22 21 21 21 22 22 23 22 21 22 24 24 25 24 20 19 21 17 18 21 20 24 24 23 24 22 25 24 31 34 36 37 40 43 44 43 43 43 44 43 44 45
20 18 19 18 19 19 20 20 20 19 20 21 21 22 22 21 24 20 21 21 18 20 21 20 22 24 21 20 22 30 32 32 36 39 41 42 40 39 39 41 42 42 42
16 16 16 16 15 16 17 17 20 20 18 20 19 20 19 21 23 21 21 21 20 18 18 19 20 20 20 24 26 29 22 32 33 35 37 38 37 37 36 37 38 38 38
13 14 14 13 14 14 15 15 16 16 17 18 20 20 21 19 19 21 24 24 21 20 18 18 19 20 22 21 22 23 22 29 32 33 34 34 34 35 35 36 36 35 36
12 12 12 12 13 13 14 14 16 17 16 17 16 17 16 17 18 20 22 24 24 22 20 20 20 20 19 19 25 23 22 29 31 33 33 33 33 32 33 33 35 34 35
11 11 12 13 13 14 14 14 14 15 14 15 15 17 18 19 20 21 22 22 23 23 21 20 20 20 20 22 22 23 26 24 25 32 33 31 31 31 31 31 33 34 34
11 12 13 14 14 15 15 15 15 15 15 15 18 19 20 20 22 22 22 22 23 22 21 19 20 22 24 23 24 25 23 24 27 30 30 29 29 29 30 31 31 33 35
12 14 15 16 16 18 17 17 16 15 15 18 20 21 21 21 22 22 22 22 22 21 22 23 26 25 25 28 28 27 27 25 20 25 27 27 28 29 31 31 30 31 32
14 15 16 16 18 17 17 18 16 17 18 19 22 23 21 22 22 23 22 21 21 23 23 23 24 29 29 27 23 19 17 20 21 19 23 26 30 31 28 29 30 30 31
15 16 16 16 17 17 12 17 18 19 19 20 21 21 22 24 27 25 22 22 22 22 25 29 29 26 21 18 16 17 21 23 22 22 24 27 21 22 23 28 28 30 31
14 14 14 17 19 13 23 24 23 18 18 20 21 20 21 24 23 27 27 28 27 26 30 29 27 21 18 17 18 22 25 25 20 22 21 21 22 22 23 24 30 30 29
12 13 14 14 14 13 23 24 24 17 19 21 20 21 20 19 24 22 27 29 30 33 32 26 21 19 18 20 27 26 21 20 20 21 23 22 22 22 22 24 28 28 30
13 14 14 14 12 11 22 23 24 18 19 20 21 21 21 21 24 24 23 25 29 31 26 22 20 20 26 26 19 18 20 23 24 22 22 20 21 20 20 22 27 28 29
15 15 13 12 12 10 21 23 23 19 18 18 20 22 24 24 27 27 23 30 26 22 21 25 29 27 24 24 23 21 23 22 19 19 21 20 21 21 22 23 24 29 30
15 14 12 12 15 10 21 25 24 20 19 20 21 24 28 24 26 27 29 23 19 16 22 25 16 17 20 20 25 22 24 20 19 18 20 20 21 22 21 24 25 28 27

GFSMA_sfc_dewp_012.txt.gz
Dewpoint
60 61 61 60 56 52 48 46 46 45 44 45 43 44 46 45 46 46 50 55 58 53 53 55 57 59 61 62 62 64 64 64 64 64 64 64 65 66 66 66 66 66 66
61 55 47 48 46 45 43 42 42 41 41 41 40 41 39 39 41 40 43 44 51 49 51 52 53 56 54 56 57 58 60 59 59 57 57 59 62 63 64 65 66 66 66
45 43 43 44 44 41 39 38 36 37 38 37 36 35 35 36 37 37 39 35 39 46 46 46 50 47 47 48 51 53 53 52 52 52 52 53 55 58 59 59 62 64 65
43 41 40 40 40 37 36 34 35 34 34 35 34 33 32 34 36 32 33 32 37 34 38 42 41 41 42 46 48 49 50 50 49 49 50 50 52 54 57 58 60 62 62
39 37 36 37 36 34 33 32 31 33 32 33 32 32 28 32 35 25 23 30 34 33 30 34 37 36 40 43 44 46 46 46 47 48 51 52 52 54 55 56 56 57 59
34 34 32 34 33 32 31 30 28 31 32 33 33 28 28 34 30 19 26 28 27 26 30 21 28 26 39 40 43 44 45 45 45 47 48 49 51 51 52 53 54 55 57
29 30 31 31 32 30 29 28 30 31 32 33 30 28 32 30 24 18 26 20 29 19 26 23 27 25 28 38 38 40 40 41 43 44 46 47 48 49 50 50 51 52 52
27 27 28 29 29 29 27 27 28 29 32 32 28 29 26 27 24 19 23 22 18 22 25 22 26 26 24 30 32 36 37 39 41 43 44 45 46 47 48 48 50 52 53
27 27 26 27 28 28 27 26 26 26 28 30 28 25 23 23 21 25 20 22 18 25 21 27 25 25 28 25 29 29 35 37 40 41 44 45 45 46 47 47 48 48 49
25 25 25 25 25 26 23 24 23 25 25 24 29 26 26 25 22 20 24 19 23 17 23 25 25 27 24 27 28 32 33 34 37 42 44 44 44 45 45 46 46 46 46
23 23 23 22 22 25 22 21 21 20 24 22 25 26 23 24 24 23 17 19 17 19 22 21 26 24 23 24 27 27 32 36 39 41 42 43 44 44 44 45 45 45 45
23 20 20 19 19 20 21 22 20 19 19 20 21 21 22 20 17 17 17 16 15 18 20 21 23 21 24 25 25 30 32 35 36 38 41 43 42 42 43 43 43 43 43
19 17 18 16 17 17 19 19 18 18 18 18 18 19 21 21 21 22 18 15 15 17 19 20 21 24 23 22 22 30 30 32 33 36 39 41 39 39 39 41 41 43 43
16 15 15 14 14 14 16 16 18 19 17 19 17 18 20 21 23 21 18 18 17 16 17 18 21 21 21 24 26 29 22 29 32 34 36 37 36 35 36 37 38 39 40
13 13 13 12 13 14 14 14 16 16 16 17 18 19 19 20 20 20 20 21 21 19 18 18 19 21 22 22 23 21 21 29 32 33 33 33 33 34 35 37 38 37 37
11 12 12 13 13 14 14 14 16 18 16 17 17 16 17 19 20 21 22 22 23 22 20 21 21 20 20 19 23 23 23 30 32 33 32 31 31 32 34 34 33 34 36
11 11 12 14 14 15 15 15 15 16 16 16 16 18 20 21 21 21 23 23 23 23 22 22 21 21 21 22 23 25 26 26 27 31 31 31 30 31 32 32 31 32 33
12 12 14 15 15 16 16 16 16 17 16 16 17 19 21 20 21 22 23 23 23 23 22 21 23 25 24 25 24 27 29 24 23 26 29 29 29 29 29 30 30 31 32
12 14 15 16 16 18 18 17 17 17 16 17 19 21 22 21 21 22 23 23 24 23 24 23 22 22 23 25 31 23 20 18 16 23 26 28 29 29 30 33 33 33 30
14 15 16 16 17 17 17 17 17 18 18 19 21 23 22 21 21 23 22 23 22 21 21 22 24 26 29 26 21 18 16 18 17 18 28 28 28 29 30 29 28 28 29
14 15 15 16 17 16 11 19 19 19 19 19 20 21 22 24 27 25 22 22 22 24 28 29 24 24 26 19 18 18 18 18 25 21 19 19 21 21 22 26 26 27 28
13 14 15 17 18 13 23 25 23 19 18 18 19 20 21 24 24 28 28 28 27 24 24 24 28 22 19 19 19 19 23 20 17 19 19 20 21 20 21 22 27 28 28
13 15 15 15 14 13 23 25 26 20 19 19 19 20 20 20 25 23 28 29 28 29 33 24 21 20 19 22 27 23 20 19 19 21 21 19 20 19 20 19 26 27 28
14 15 15 14 13 12 23 25 27 21 20 20 20 20 21 23 25 23 22 25 30 27 22 18 18 22 26 21 19 19 21 24 23 21 20 19 20 19 19 20 27 28 29
15 15 14 13 12 12 22 25 25 21 20 20 21 21 24 24 26 27 29 27 20 17 19 26 28 25 24 24 24 23 22 20 17 17 19 19 20 20 21 21 21 28 29
14 14 12 11 16 11 20 25 24 20 20 21 21 26 28 24 28 31 21 18 17 15 23 21 16 17 20 20 25 22 24 19 19 17 19 20 20 21 20 22 24 25 24

GFSMA_sfc_dewp_015.txt.gz
Dewpoint
59 60 54 48 47 46 44 43 41 39 38 38 38 37 37 37 39 41 42 51 49 51 51 53 55 54 54 54 56 56 56 56 56 56 56 55 56 58 61 63 64 65 65
53 46 46 45 43 42 40 37 36 36 35 35 33 34 32 33 37 34 37 37 45 45 48 50 48 48 49 51 53 52 53 53 53 53 52 53 54 56 57 57 58 59 61
43 44 43 42 39 37 33 32 33 33 32 32 31 32 29 33 36 27 31 34 37 40 44 43 43 44 46 49 49 51 50 49 49 50 51 53 53 52 53 54 56 57 59
41 40 39 38 34 33 32 30 33 32 30 31 30 32 28 32 29 22 26 31 32 30 36 38 39 39 43 45 46 47 48 47 47 48 49 51 51 53 54 55 56 57 57
36 36 36 34 32 31 31 29 29 32 30 29 29 31 27 31 27 18 25 23 29 26 30 31 36 36 38 40 43 45 44 43 43 44 45 47 49 50 51 52 52 52 54
31 33 33 31 30 30 29 27 27 29 32 30 30 28 27 33 25 21 25 20 26 21 28 23 28 28 36 37 40 42 42 42 42 43 44 46 47 47 48 50 50 50 51
29 29 31 30 30 29 27 26 28 28 30 31 29 28 29 28 25 20 25 21 20 21 26 21 26 26 29 35 36 37 38 40 41 42 43 44 45 46 48 48 49 49 49
27 27 29 29 27 26 25 25 26 26 28 31 27 28 23 23 24 16 22 23 19 23 25 18 25 25 26 29 30 34 35 38 41 42 42 43 43 46 47 47 47 48 49
27 27 26 27 26 26 25 24 25 23 24 25 27 20 16 20 23 23 16 22 16 23 19 24 25 23 26 26 29 31 34 35 38 41 43 45 45 45 45 46 46 47 47
24 25 25 24 24 24 22 22 22 23 23 21 26 24 24 23 21 19 22 16 21 17 19 24 24 24 26 26 29 31 32 34 38 41 43 44 44 45 46 46 46 46 45
22 22 22 21 21 23 21 19 19 18 22 20 23 23 22 23 23 23 14 17 17 16 16 19 23 23 23 22 27 28 31 34 37 40 42 43 44 45 45 45 45 45 44
22 19 19 19 18 19 19 20 18 17 17 18 19 19 20 18 18 17 16 15 14 13 17 18 19 23 22 25 27 30 31 33 36 38 40 42 42 42 42 43 43 43 43
19 17 17 15 16 16 17 17 17 16 17 17 17 17 20 20 20 21 18 15 15 15 16 20 20 22 23 22 23 29 30 32 33 35 39 41 40 39 39 40 41 42 41
17 15 14 13 13 14 15 15 18 18 17 18 16 17 19 20 21 20 19 19 17 15 16 17 21 21 21 23 25 30 23 31 32 34 37 37 36 36 36 37 38 38 40
13 12 12 12 13 14 15 15 16 16 17 17 18 18 18 19 20 21 22 22 20 18 18 19 20 21 23 23 25 23 22 28 32 33 34 34 33 33 34 34 35 36 36
11 12 12 13 14 15 15 15 17 18 17 18 18 17 17 19 21 23 23 23 23 22 21 21 21 22 22 21 24 23 23 29 32 33 33 32 32 31 31 32 34 35 36
11 12 13 14 15 15 16 16 16 16 17 17 17 17 19 21 22 22 22 23 24 24 22 22 23 23 24 24 23 24 26 27 32 34 32 30 29 29 30 31 33 34 34
12 13 14 15 15 16 17 16 16 17 17 17 17 19 20 20 22 22 22 23 23 23 23 23 25 22 20 21 22 23 31 25 25 26 28 28 28 30 30 32 31 32 33
13 14 15 15 16 18 17 17 16 17 18 18 19 20 20 21 22 22 22 22 23 23 25 22 21 22 23 25 26 30 20 19 17 23 26 27 29 30 30 30 30 31 32
14 14 15 15 17 17 16 15 18 19 19 19 20 21 21 22 21 22 23 23 24 23 22 23 25 26 24 26 27 18 16 18 18 18 24 28 27 27 28 29 29 28 28
13 14 15 16 17 15 11 21 22 21 19 18 19 20 21 24 26 25 21 22 21 23 27 27 23 26 22 17 17 18 18 20 24 25 18 18 19 19 21 25 25 27 28
13 15 15 16 16 12 22 26 25 23 20 19 19 20 20 23 24 27 28 27 26 24 25 28 24 17 16 17 18 20 25 19 18 20 18 21 21 19 19 20 26 27 28
14 15 14 14 13 13 23 25 27 23 21 21 20 20 20 20 24 23 27 29 32 32 27 22 18 17 17 22 26 23 22 22 20 20 22 21 19 18 19 18 26 27 28
14 14 14 13 13 12 24 25 27 21 21 21 21 21 21 21 25 24 26 29 24 22 19 17 18 22 24 21 19 21 23 24 23 20 19 18 19 18 19 19 26 28 28
14 14 13 12 11 13 23 25 25 21 20 20 21 21 24 25 26 29 26 22 19 17 19 25 28 25 24 25 24 24 22 20 17 17 19 19 19 20 21 21 21 27 28
13 13 12 12 17 13 21 25 24 20 20 21 25 26 26 23 27 29 21 18 17 16 24 24 16 17 20 20 25 22 24 19 19 17 18 19 20 21 19 21 22 22 22

GFSMA_sfc_dewp_018.txt.gz
Dewpoint
59 58 47 46 44 42 40 37 36 33 33 32 33 32 27 35 33 34 37 49 47 50 52 50 50 51 51 55 54 54 54 55 54 54 53 54 55 56 57 58 58 59 60
52 47 44 42 40 37 34 34 32 30 30 30 29 31 27 35 29 27 33 36 43 46 46 46 47 47 49 50 50 51 51 51 51 51 52 52 54 54 54 54 55 57 58
45 44 41 38 36 33 29 31 31 29 27 27 26 31 27 33 22 25 28 32 33 39 41 43 43 43 45 46 48 50 49 48 48 49 49 51 51 52 54 55 56 57 58
42 39 36 34 31 30 29 29 32 29 26 27 25 29 27 32 19 22 23 30 29 26 34 37 38 39 41 42 45 47 47 46 45 45 46 47 48 49 51 52 53 53 54
37 35 33 31 30 29 28 27 28 31 27 26 24 28 26 31 22 19 22 25 22 24 28 30 34 35 36 39 42 43 43 43 43 43 45 45 46 47 49 49 50 51 52
33 32 30 29 28 28 26 25 25 27 31 29 27 24 27 32 24 21 24 20 20 21 27 22 26 28 33 35 38 40 41 41 42 43 44 45 45 46 47 49 49 49 50
30 30 30 28 28 26 24 24 25 25 27 29 25 25 27 27 27 24 23 20 21 21 25 20 23 26 27 33 36 36 38 40 41 42 43 44 45 46 46 47 48 49 49
28 28 27 26 24 24 23 23 23 23 24 28 23 26 20 19 22 18 21 21 18 20 23 18 21 24 25 27 32 34 35 38 40 41 42 43 45 46 47 47 48 48 48
27 26 25 25 24 25 24 23 23 21 22 22 27 16 13 14 23 22 20 23 16 20 21 21 22 22 23 26 29 30 34 35 38 41 43 44 44 46 46 47 47 47 47
25 25 24 23 23 24 21 21 20 22 21 20 23 22 21 22 19 18 20 17 19 16 19 20 18 22 23 26 28 31 33 34 37 40 43 44 44 45 46 46 47 46 46
22 22 21 21 21 23 20 18 18 17 21 19 21 21 20 21 22 22 14 17 16 16 16 16 20 21 19 22 25 29 32 34 38 40 42 43 44 44 45 45 45 45 43
22 19 19 19 18 19 18 19 17 16 17 17 18 18 18 16 16 17 16 14 15 15 16 17 17 20 23 24 27 30 31 33 36 39 41 42 42 43 43 44 43 43 43
19 17 15 15 16 17 17 17 17 16 16 16 16 17 19 19 20 20 19 17 16 17 16 18 19 21 21 23 22 29 31 33 35 37 40 41 40 39 40 41 42 42 41
17 15 14 13 13 15 15 15 18 18 17 18 16 17 18 19 20 19 19 19 17 15 14 16 19 21 21 22 25 30 24 31 32 35 37 37 36 36 37 38 39 38 38
13 12 12 13 14 15 15 15 16 16 17 17 18 18 18 19 20 21 22 22 21 17 15 17 19 21 23 24 25 23 23 29 32 33 33 34 35 36 36 36 36 35 35
12 12 13 14 15 15 16 16 17 18 17 18 18 18 17 19 20 22 23 23 23 21 19 19 21 22 23 23 25 24 24 30 31 33 33 34 34 33 34 33 32 32 33
12 13 14 14 15 15 16 16 15 16 17 18 18 18 19 20 21 22 23 23 22 23 21 22 22 22 24 22 21 22 24 23 26 36 35 33 31 30 30 31 32 33 35
13 14 15 15 15 16 16 15 15 17 18 18 19 19 19 19 21 22 22 22 22 23 22 21 23 23 21 22 23 24 26 28 29 26 29 28 29 29 29 30 32 33 33
14 14 15 15 16 17 15 14 16 18 19 19 19 20 20 20 21 22 22 22 23 23 25 25 21 22 23 25 27 26 22 19 17 23 26 28 28 29 30 32 30 31 31
13 14 15 15 16 15 14 14 20 21 20 19 20 20 20 20 21 22 22 22 22 21 21 21 22 25 28 25 19 15 15 18 18 18 25 26 27 27 28 28 28 27 28
14 15 15 15 15 14 10 21 23 22 21 20 20 20 20 23 27 25 22 22 21 22 24 27 25 22 19 16 15 17 17 20 22 21 19 19 20 20 20 25 26 27 27
14 15 14 15 15 12 22 26 25 23 21 20 20 20 21 24 24 28 28 28 27 31 26 23 21 18 16 16 17 20 24 20 18 20 19 22 22 20 20 20 25 27 28
14 14 14 13 12 13 23 26 26 23 21 21 21 21 21 21 25 22 27 29 33 28 26 20 18 17 17 20 26 24 22 22 20 21 22 21 20 18 19 18 26 27 28
14 14 13 13 12 12 24 25 26 22 21 21 21 21 21 21 23 24 24 30 24 22 19 18 18 21 27 23 20 20 24 24 23 20 19 19 19 18 18 19 26 27 28
14 13 12 12 12 14 24 25 25 22 20 20 21 21 23 23 25 27 27 24 19 18 20 25 28 26 25 26 25 24 22 20 17 17 18 18 19 19 20 20 20 27 27
12 12 12 13 18 14 22 25 24 21 20 20 21 23 26 23 27 30 22 19 18 16 23 25 16 17 20 20 25 21 22 19 18 17 18 20 20 21 19 20 22 22 21

GFSMA_sfc_dewp_021.txt.gz
Dewpoint
59 54 48 45 43 40 38 36 32 29 28 28 31 27 35 32 27 35 38 49 50 50 50 51 50 51 53 53 53 53 53 53 53 53 54 54 55 56 55 56 57 58 60
53 48 44 42 37 35 34 31 27 27 25 24 29 28 31 30 27 33 31 38 45 45 46 47 47 47 49 49 50 51 51 50 50 50 51 52 53 54 55 56 57 58 58
47 44 40 37 34 31 29 31 29 26 24 22 23 29 27 23 26 23 31 30 30 40 41 42 42 42 43 45 46 48 48 48 48 47 48 48 49 51 52 53 54 55 55
44 39 36 34 31 30 29 28 30 28 24 24 22 27 26 30 21 24 27 24 29 27 32 37 36 38 40 42 44 45 46 45 45 46 46 47 47 49 50 51 51 52 53
38 35 33 31 28 28 28 25 26 29 24 24 22 25 25 31 24 23 21 25 26 27 27 28 32 32 34 37 40 43 43 43 44 44 46 46 47 47 48 49 50 51 51
33 32 30 28 27 27 25 25 23 27 26 25 21 19 30 34 27 25 25 19 24 25 24 25 23 22 30 34 37 40 40 41 42 43 44 45 46 46 47 48 49 49 50
30 30 29 27 27 25 24 21 25 23 24 25 21 22 25 27 28 28 23 20 24 21 24 23 19 19 19 31 33 35 38 40 41 42 43 44 45 46 47 49 49 49 49
29 28 27 26 25 24 24 23 23 23 23 26 19 23 18 16 21 17 22 22 20 20 19 18 18 18 20 20 26 34 35 37 40 42 42 43 44 46 47 47 48 48 48
27 26 26 24 25 26 24 24 24 23 20 23 25 13 15 13 17 20 18 20 18 17 18 18 17 17 17 19 25 27 32 35 39 41 42 43 44 45 46 46 47 47 47
25 24 25 24 24 24 23 22 21 23 22 20 22 18 20 18 15 12 18 17 17 14 17 17 16 16 18 19 25 29 32 34 38 41 43 44 45 45 46 46 47 47 47
24 23 23 23 22 23 21 21 21 20 22 18 20 20 19 19 19 19 12 14 15 16 17 17 17 17 17 19 22 25 31 34 38 40 42 43 44 45 45 45 46 45 45
22 21 21 21 21 21 21 21 21 21 20 19 19 18 17 14 12 14 13 14 15 15 17 17 17 16 18 20 23 29 31 34 37 39 42 43 42 43 43 44 44 44 45
20 19 18 17 18 21 21 21 20 20 20 19 20 17 18 17 18 17 17 17 16 17 16 16 16 17 17 20 21 28 31 33 34 37 40 41 40 39 39 41 42 42 42
18 17 16 16 16 17 18 19 20 20 20 20 20 19 18 19 19 18 19 19 18 14 14 14 16 18 20 20 25 30 24 30 32 34 37 37 36 35 36 37 38 40 42
14 15 16 16 17 18 18 18 17 17 18 20 20 21 20 19 20 20 21 21 19 16 16 15 16 19 21 22 24 22 22 29 32 33 33 33 33 33 36 36 37 36 38
14 15 16 16 17 17 17 17 17 18 18 19 19 20 20 20 20 21 22 22 22 20 19 18 20 21 22 21 24 24 22 29 31 32 33 32 32 34 33 34 35 34 34
14 15 15 16 16 16 15 15 15 17 18 20 20 20 20 20 20 20 22 22 22 21 20 21 22 23 22 22 21 23 26 26 26 31 31 31 31 30 31 31 32 33 33
15 15 15 15 15 15 14 13 15 18 19 20 20 20 20 19 21 20 21 21 22 22 22 22 22 23 21 22 23 26 25 21 20 24 28 29 29 30 31 31 32 32 33
15 15 16 15 14 15 13 13 17 20 21 21 21 21 20 19 19 20 21 22 23 22 24 24 22 22 24 27 25 21 18 17 15 23 27 28 29 30 31 31 31 31 31
15 16 15 15 15 13 13 14 21 23 23 22 22 21 20 20 20 22 23 24 24 23 22 23 24 28 25 22 21 18 17 19 19 19 25 26 28 28 29 29 29 29 29
16 15 14 15 14 13 10 21 24 24 23 23 22 21 21 24 27 27 23 23 23 24 25 30 26 23 22 18 17 18 18 21 23 22 21 21 21 22 23 27 26 27 28
16 15 14 15 15 11 22 26 26 23 23 22 21 20 21 24 24 28 28 28 27 27 31 27 25 19 17 16 19 21 25 21 20 21 19 21 22 21 21 22 26 27 28
15 14 13 13 12 13 23 26 26 23 23 22 21 21 20 20 25 24 27 29 30 32 28 23 19 18 18 20 28 26 24 22 20 22 22 21 21 20 20 18 26 27 28
14 13 12 12 13 14 24 25 26 23 22 22 21 21 21 22 24 25 23 31 27 24 20 19 20 22 27 26 22 22 23 25 24 21 19 20 20 19 20 20 26 28 28
13 12 12 13 14 17 23 25 25 22 21 21 21 21 22 22 26 27 28 27 21 18 21 24 28 28 26 26 25 24 24 22 19 18 20 20 20 22 22 22 22 26 27
12 12 13 15 18 16 22 25 24 21 20 20 21 20 25 24 26 29 24 21 20 17 23 27 17 17 19 20 25 21 24 21 21 19 19 22 22 22 21 21 25 24 23

GFSMA_sfc_dewp_024.txt.gz
Dewpoint
58 59 54 50 44 42 42 42 38 32 28 26 28 26 29 30 28 34 39 51 50 50 50 50 50 51 52 51 52 53 53 53 52 52 53 53 55 56 57 58 58 58 59
58 51 47 41 38 37 35 33 29 27 25 23 25 26 25 29 29 33 33 40 45 46 45 46 45 45 46 47 48 49 50 50 50 50 50 51 51 52 54 54 55 56 57
51 47 42 38 34 31 29 30 28 27 26 23 22 25 24 25 27 27 31 30 33 41 41 41 40 41 42 43 45 46 47 47 47 47 48 48 49 50 51 52 53 54 54
47 43 39 35 31 30 29 29 29 29 26 24 23 24 24 26 23 24 25 24 28 25 30 35 36 37 38 39 41 44 44 45 45 46 47 47 48 49 49 49 50 51 52
42 38 35 31 29 29 29 25 27 26 24 24 21 21 24 25 26 22 24 26 27 27 26 24 29 28 32 37 39 41 43 43 43 44 45 46 47 48 49 49 49 50 51
37 35 32 29 28 29 27 26 24 24 24 23 19 20 30 32 28 27 27 18 22 25 24 26 25 22 27 31 35 37 40 41 42 43 44 45 46 47 48 48 49 49 51
33 33 31 29 29 28 25 22 23 24 24 23 23 24 25 25 27 29 27 19 24 22 22 20 18 18 19 28 30 34 38 40 41 42 43 45 45 46 47 48 48 49 50
31 30 31 29 28 27 26 24 24 25 23 24 19 24 21 19 20 22 21 21 17 20 18 18 18 19 20 20 25 32 33 37 40 42 43 44 45 46 47 48 48 48 49
29 30 30 28 28 28 27 26 25 24 23 24 22 13 17 18 16 19 19 16 18 16 17 19 19 19 19 19 23 25 30 34 38 42 43 44 45 46 47 47 47 48 48
29 27 27 26 26 26 25 24 21 23 22 22 23 16 18 15 15 14 17 17 16 15 18 19 18 18 19 19 24 27 29 33 38 41 43 44 45 45 46 46 47 47 47
27 26 25 26 24 23 23 22 22 21 21 18 21 20 18 18 16 17 15 15 15 16 18 18 18 17 17 18 21 24 30 34 38 40 42 43 44 45 45 45 45 45 45
25 24 24 24 23 23 23 22 23 22 22 20 19 18 15 14 12 13 13 14 15 16 17 18 18 17 17 18 21 27 30 34 37 39 41 42 42 42 43 44 44 44 44
24 23 22 20 21 23 23 22 22 23 22 20 21 17 16 16 16 16 15 16 16 16 16 17 16 17 15 19 20 27 30 33 34 36 40 41 40 39 39 40 41 42 42
23 22 20 19 18 18 19 20 22 22 22 21 21 21 19 18 18 18 18 19 17 15 15 15 15 16 17 18 23 29 23 29 31 34 36 37 36 36 36 37 38 40 41
19 19 18 18 18 18 18 19 17 18 19 20 21 22 21 19 20 20 21 20 19 16 15 14 14 16 18 20 22 21 21 28 31 32 33 33 33 34 34 35 37 37 39
17 18 17 17 17 17 17 18 18 18 17 19 19 20 20 20 20 20 21 20 20 19 17 16 16 17 19 18 22 21 22 28 30 32 32 32 32 32 33 33 34 34 35
17 16 16 15 16 15 15 15 15 17 18 20 21 21 21 21 20 18 19 19 19 19 18 19 19 20 20 21 20 22 23 24 24 28 29 29 30 31 32 33 33 34 35
15 15 14 14 14 14 13 12 14 17 19 20 21 21 20 17 19 18 18 19 19 20 20 20 21 21 21 22 23 23 20 17 17 22 28 29 30 31 31 32 32 33 34
14 14 15 15 13 15 13 12 15 18 20 21 21 21 20 18 19 19 19 20 22 20 22 23 23 23 23 26 26 22 19 17 16 24 27 28 30 31 31 32 32 32 32
15 15 15 14 14 13 13 14 18 21 22 21 22 22 21 19 19 21 22 22 20 22 22 22 24 27 29 25 22 18 16 19 20 19 25 26 28 29 30 30 30 29 30
15 15 15 15 14 13 10 20 22 23 22 21 21 20 19 22 26 27 23 22 22 23 26 29 27 28 24 20 16 18 19 21 25 23 22 22 22 23 24 28 27 28 28
16 15 15 17 18 10 20 25 26 22 21 20 19 19 19 22 22 27 27 27 27 29 30 30 29 21 17 16 18 21 25 26 22 23 21 22 24 22 23 23 27 28 29
16 15 14 13 13 14 21 25 26 22 21 20 19 19 18 18 23 20 25 27 29 31 31 25 21 17 17 20 27 28 26 23 22 22 23 23 22 21 22 20 27 28 29
15 13 13 12 13 13 23 25 26 22 20 20 19 20 19 20 21 23 23 29 29 25 20 18 19 20 24 27 27 23 24 25 25 23 21 22 22 22 23 23 28 29 29
13 13 12 13 13 14 20 25 25 20 18 18 19 19 20 20 25 27 27 31 21 17 20 23 26 29 29 26 25 23 26 24 22 20 22 22 22 24 24 24 25 26 28
12 11 13 13 15 13 18 24 24 19 17 18 18 18 23 22 25 28 25 20 19 16 20 26 22 19 20 20 24 22 25 25 23 21 21 23 24 23 22 23 28 27 26

GFSMA_sfc_dewp_027.txt.gz
Dewpoint
56 56 58 54 51 47 46 46 43 39 32 28 27 28 25 30 28 33 44 52 50 50 50 50 49 49 49 50 50 50 51 52 52 52 52 52 52 53 54 56 56 57 58
57 57 54 49 43 42 39 38 34 30 28 27 26 26 25 27 27 31 34 43 46 45 45 45 44 44 44 45 45 46 47 48 49 49 49 50 50 50 51 52 53 54 55
58 54 48 42 38 36 35 34 30 30 30 27 26 25 26 25 27 25 32 35 41 41 39 40 40 40 41 42 43 44 45 45 47 46 47 48 49 49 50 50 51 51 52
54 50 46 40 35 38 34 32 31 31 29 29 26 27 27 26 24 24 28 28 32 27 37 34 33 34 36 40 43 44 44 44 45 45 46 46 47 48 49 50 51 51 51
51 47 42 37 33 34 33 29 30 28 28 30 27 26 28 30 30 23 25 27 29 31 31 30 27 31 29 33 38 41 42 43 44 44 45 45 46 47 48 49 50 50 50
44 41 37 36 34 34 32 30 28 28 28 26 22 24 32 33 33 31 26 25 24 28 29 31 31 28 31 30 33 36 39 42 42 42 44 45 46 47 47 48 49 49 50
40 38 37 35 34 34 31 28 28 29 29 27 30 32 31 26 27 30 32 27 26 27 25 26 25 24 24 30 30 31 38 39 41 42 43 44 45 46 47 48 48 49 49
37 35 36 34 33 33 30 29 29 30 28 27 23 30 28 24 23 26 25 22 22 24 23 22 22 24 26 25 29 31 31 35 40 41 43 44 45 46 47 48 48 48 48
34 35 36 33 33 35 33 32 32 29 29 29 24 17 25 25 21 26 25 23 21 23 22 24 22 23 23 23 26 27 29 33 38 41 43 44 45 45 46 47 47 47 47
33 33 34 33 32 32 31 30 26 27 27 27 27 18 20 18 19 18 24 23 22 17 21 23 21 22 22 24 27 28 29 31 37 41 43 44 44 45 45 46 46 46 46
32 33 32 31 30 31 28 26 27 25 24 20 23 23 19 22 19 20 19 21 20 21 21 21 21 21 20 22 24 26 28 32 37 40 42 43 44 44 45 45 44 44 45
32 31 31 30 29 28 28 28 27 26 23 22 20 19 17 16 15 16 16 18 18 20 21 21 21 21 22 22 22 27 29 32 36 39 41 42 43 43 43 43 43 43 43
30 31 30 26 27 29 27 26 26 26 24 23 23 20 18 17 17 17 18 19 19 20 20 20 20 21 17 21 22 27 29 32 33 36 40 42 40 39 39 40 41 41 41
29 32 27 25 23 23 23 23 25 24 23 24 25 25 21 21 20 19 21 21 20 20 19 18 19 18 20 20 23 28 23 30 31 34 37 37 36 36 36 37 38 39 39
28 25 24 22 21 21 20 21 19 20 20 22 24 26 24 22 23 23 23 23 22 18 18 18 17 19 19 20 23 22 21 28 31 33 33 33 33 34 34 35 36 36 37
24 23 22 21 20 19 19 19 19 19 18 20 21 21 23 22 22 23 23 22 22 21 18 19 19 19 20 19 23 22 22 29 30 31 32 32 31 31 32 33 34 35 36
22 21 20 19 18 17 16 16 16 17 18 20 22 22 22 22 21 21 21 21 21 20 19 19 21 22 22 22 22 23 25 24 23 29 30 30 30 31 32 33 33 34 35
20 18 17 16 15 15 14 13 14 16 18 20 21 22 21 18 23 21 20 21 20 20 21 20 22 22 22 23 22 25 24 22 20 24 28 29 30 31 32 32 33 33 34
19 16 16 16 15 16 14 12 14 16 19 20 21 21 21 21 22 20 20 21 23 22 23 22 21 23 23 24 27 27 22 21 17 24 27 29 30 31 32 32 32 32 32
17 17 16 15 15 14 13 13 18 20 22 21 22 22 21 21 20 22 22 24 22 22 23 23 23 25 26 28 25 20 18 20 20 19 25 28 29 29 30 30 31 30 31
17 16 15 16 15 14 11 20 22 22 22 21 21 20 21 24 25 25 23 24 24 23 25 26 26 26 27 21 19 19 19 21 22 25 23 22 23 23 24 28 27 28 29
17 16 16 19 22 11 21 25 26 23 21 20 20 19 19 23 22 25 27 27 26 26 27 28 28 26 21 20 19 21 23 23 24 23 22 21 23 22 23 23 28 29 30
17 16 15 14 13 14 20 25 26 23 21 20 19 20 19 17 23 21 24 26 27 29 29 27 23 21 19 20 24 25 26 25 21 22 22 23 24 22 22 21 28 29 30
16 14 13 13 14 14 20 24 26 22 19 19 19 19 20 20 21 22 22 27 27 28 25 20 20 20 22 24 27 30 25 24 23 23 23 23 22 21 22 23 28 29 30
14 13 13 13 14 13 20 22 24 20 17 17 18 19 20 20 23 26 24 27 26 21 22 24 25 27 29 28 25 22 23 23 21 21 22 22 22 23 23 23 23 27 28
13 12 13 13 13 13 15 20 23 19 17 18 18 19 23 21 25 26 24 23 21 19 20 23 23 23 22 20 25 22 25 25 23 21 22 23 23 24 21 22 25 24 24

GFSMA_sfc_dewp_030.txt.gz
Dewpoint
55 56 58 54 50 48 48 46 41 36 29 27 27 27 25 28 27 41 49 54 51 51 50 50 49 48 47 47 47 47 48 49 50 50 49 49 50 51 51 52 53 55 55
56 58 52 49 44 42 40 37 30 30 29 28 27 25 25 26 26 32 44 47 48 47 45 44 43 43 43 44 44 45 45 47 47 48 48 48 49 49 50 50 51 51 52
57 54 48 44 41 39 37 34 31 32 31 28 27 26 25 25 25 25 35 40 42 44 39 37 38 38 39 42 44 45 45 45 46 47 47 48 47 48 49 50 51 51 51
54 49 45 41 37 36 36 34 32 32 30 29 27 26 26 26 24 24 25 28 34 34 37 34 32 34 34 37 41 44 44 45 45 46 46 47 47 48 49 49 50 51 51
52 48 43 38 34 36 35 31 30 30 28 29 26 23 29 29 28 23 24 25 28 29 28 32 30 35 32 35 37 40 41 43 44 45 45 46 46 48 48 49 49 50 50
49 43 38 36 37 36 33 31 29 29 28 27 25 26 29 31 30 27 26 26 24 26 26 26 28 27 33 33 36 38 38 42 42 43 44 45 46 47 47 48 48 49 49
41 38 39 36 36 35 33 29 29 29 29 28 29 29 29 25 28 30 30 30 25 24 24 24 23 24 25 30 31 33 37 37 40 43 43 45 45 47 47 48 48 48 49
39 36 36 36 35 32 29 29 30 30 29 27 23 26 26 26 25 25 27 21 20 21 21 20 20 21 22 25 28 31 32 36 39 42 43 44 45 46 47 47 47 48 48
38 36 36 35 34 35 33 31 29 28 29 27 23 20 22 23 20 24 21 23 18 21 20 21 21 21 21 22 27 28 29 32 36 40 43 44 45 45 46 46 46 47 47
35 36 35 34 35 35 32 30 29 27 27 27 26 20 20 18 19 18 23 22 22 16 20 22 21 21 20 22 27 29 29 31 35 40 43 44 45 45 45 45 46 46 45
34 33 33 33 32 34 27 26 26 25 24 24 24 24 20 22 20 20 19 20 21 21 21 21 21 21 20 21 23 25 28 32 36 39 42 43 44 44 45 45 45 45 44
40 33 32 32 31 30 29 28 26 24 23 23 22 20 19 18 17 17 17 17 18 19 21 22 21 22 21 22 25 27 28 31 34 38 41 42 42 43 43 43 43 42 43
35 32 30 29 29 30 29 28 27 25 24 24 22 22 21 20 20 19 19 20 20 20 21 21 21 21 20 20 21 28 29 31 33 36 39 42 40 40 39 40 41 41 41
37 32 29 29 29 26 26 26 27 26 24 24 22 23 23 23 23 21 22 22 20 20 20 19 20 19 20 21 25 29 23 30 32 34 37 38 37 36 36 37 38 39 39
33 30 27 25 24 23 23 23 23 22 20 22 22 23 24 24 24 24 24 23 22 18 18 19 18 19 21 21 24 23 22 28 31 33 34 34 33 34 35 35 35 36 37
27 25 25 24 22 21 20 21 20 19 18 21 22 20 22 23 23 23 23 23 22 21 18 19 19 20 21 21 24 23 22 29 31 32 33 32 32 32 33 34 34 36 37
24 23 22 21 20 19 18 18 17 18 18 20 21 22 23 22 22 22 22 22 22 21 19 19 20 22 22 22 22 23 24 24 25 31 32 31 31 31 33 33 34 34 35
21 21 20 19 18 17 15 14 15 15 18 20 21 21 22 20 22 22 21 21 21 21 21 20 22 22 22 23 22 23 24 27 25 26 30 29 30 31 32 33 33 34 34
19 18 18 18 17 18 15 14 15 16 19 20 22 22 22 22 22 22 21 21 23 22 24 22 22 23 23 24 25 26 29 23 20 25 27 29 30 31 33 32 33 33 32
18 18 17 18 19 16 16 15 18 20 22 22 23 23 22 21 21 21 22 23 23 23 23 23 23 24 25 26 27 24 20 21 20 21 25 27 31 31 31 31 31 30 31
18 17 17 18 17 16 16 23 24 24 23 22 21 21 21 24 26 25 22 23 24 24 24 24 25 24 24 27 21 22 20 20 21 22 23 24 22 23 23 27 27 29 30
17 18 18 23 23 12 24 24 26 25 23 21 20 21 20 24 23 25 26 27 25 25 25 24 26 27 22 21 20 20 21 20 21 25 22 21 22 21 22 24 28 30 30
18 17 17 16 15 20 24 24 25 24 23 22 21 20 19 18 23 22 25 26 26 27 28 25 23 22 20 20 22 22 24 25 26 24 22 21 22 22 23 22 28 29 30
18 15 14 14 15 18 22 22 24 23 21 20 19 19 19 19 21 22 22 24 25 26 27 25 22 20 22 23 25 30 28 24 23 23 22 21 22 21 22 22 28 29 30
15 14 14 14 14 16 22 20 22 22 19 17 18 19 20 20 24 25 24 24 24 24 24 26 26 27 29 29 26 22 22 23 21 20 22 22 21 22 22 22 22 28 28
13 14 15 13 18 13 17 18 22 21 19 20 20 21 25 22 26 26 23 23 23 20 21 22 24 24 23 22 25 21 23 22 22 20 21 22 22 23 19 20 22 22 22

GFSMA_sfc_dewp_033.txt.gz
Dewpoint
57 58 59 60 55 51 48 46 39 31 27 26 26 26 24 28 43 48 51 56 53 52 50 49 47 46 45 45 46 46 46 47 48 48 49 49 50 50 51 51 52 52 53
55 57 53 50 47 44 40 34 30 29 29 27 26 24 23 25 34 45 47 49 51 48 46 43 42 42 43 43 45 46 46 46 47 48 47 48 49 49 50 50 51 52 52
57 52 49 46 42 40 35 31 32 30 30 28 26 26 24 24 25 39 42 42 43 47 40 38 37 38 39 40 42 45 45 46 46 47 47 47 48 49 49 50 50 50 51
53 49 46 43 39 38 35 33 33 31 30 28 26 25 26 26 23 27 35 38 37 36 38 34 33 35 35 37 40 42 43 44 45 45 46 47 48 48 48 49 50 50 51
50 47 44 40 36 36 34 31 30 29 27 27 26 23 28 28 27 25 24 27 28 31 31 34 32 35 33 36 38 41 41 42 43 44 45 46 47 47 48 48 49 49 50
49 45 41 36 36 35 33 31 28 29 27 27 25 28 29 31 29 25 25 26 28 26 26 25 28 25 31 31 34 37 38 40 41 43 44 45 46 46 47 48 48 48 49
46 42 39 36 37 33 30 28 30 28 27 27 26 27 30 26 29 29 30 29 26 25 25 25 23 23 24 29 29 33 36 37 39 40 43 44 45 46 46 47 47 48 48
43 41 38 36 35 32 29 28 29 30 28 26 22 28 24 24 24 24 28 23 20 23 21 20 19 20 22 24 27 31 31 33 38 40 41 43 45 45 46 46 47 47 47
44 39 36 36 33 32 31 30 30 30 29 26 21 21 22 22 20 24 21 22 19 21 20 22 22 21 21 21 26 27 29 31 35 39 41 43 44 45 46 46 46 47 46
39 37 36 33 33 34 32 30 29 29 29 26 26 22 20 18 18 14 21 22 21 19 20 21 22 21 21 23 27 32 30 30 35 39 41 43 44 45 45 46 45 46 47
40 39 37 35 33 33 30 28 26 25 26 26 27 24 20 22 20 20 18 20 20 20 21 22 22 21 21 22 24 26 31 31 35 37 41 43 43 44 45 45 45 44 45
42 39 38 35 33 30 28 28 26 23 23 23 23 21 20 18 17 17 17 17 17 19 21 22 22 22 22 23 26 30 30 31 34 37 40 41 42 42 43 43 43 42 43
38 36 36 34 33 31 30 29 26 24 24 24 22 22 21 20 20 19 19 20 20 21 21 22 21 21 19 21 23 29 31 32 33 36 39 41 40 40 40 40 41 41 41
36 35 34 34 33 29 28 27 27 27 24 25 23 23 23 23 23 21 22 21 20 20 20 19 21 20 21 21 26 30 24 31 32 35 37 38 37 36 37 37 38 39 39
36 34 34 32 31 29 27 26 24 21 22 24 23 24 24 24 24 24 24 24 21 19 18 19 18 20 21 22 25 24 23 29 32 33 33 34 35 35 35 36 36 36 37
32 31 31 31 30 25 24 23 22 21 20 22 23 21 22 23 23 23 23 23 23 21 18 19 19 20 21 21 25 24 23 30 30 32 33 34 33 33 34 34 34 35 36
31 30 30 31 27 21 20 20 21 19 18 20 21 22 22 22 22 22 22 22 21 21 19 20 21 22 22 23 23 24 24 23 24 32 33 32 32 32 32 33 34 34 35
29 30 26 23 20 19 18 16 16 17 18 20 21 22 22 21 22 22 22 20 21 21 21 20 22 23 22 23 23 23 24 24 26 30 31 30 30 31 32 32 34 34 34
28 27 25 24 19 18 16 15 16 17 19 20 22 22 22 22 22 22 21 21 22 22 23 23 22 24 23 25 25 25 26 27 22 27 28 28 30 31 33 33 33 32 32
24 24 20 18 19 17 16 17 19 22 23 23 24 23 22 22 21 22 21 22 22 23 23 23 23 24 25 24 25 27 22 23 22 20 24 27 30 31 31 31 31 30 31
24 24 23 22 18 17 19 25 26 25 24 23 22 21 22 24 26 25 22 23 23 23 23 23 24 24 24 24 22 22 21 21 21 22 22 23 25 24 24 27 27 29 30
25 24 23 24 21 23 30 30 27 25 24 22 22 22 21 25 23 25 26 26 25 23 22 21 25 23 22 22 21 21 21 21 21 24 24 24 23 22 22 23 28 30 30
32 30 29 30 30 28 27 26 26 24 23 22 21 20 19 18 24 21 25 26 26 27 27 25 24 23 23 22 23 22 24 25 26 25 23 22 22 21 22 22 28 29 30
32 31 28 18 18 22 25 24 25 22 21 20 19 19 19 20 21 23 23 25 25 25 25 26 25 23 22 23 26 28 25 23 22 22 22 20 21 21 22 22 28 29 30
26 16 15 15 15 23 23 21 23 21 20 20 20 21 22 22 25 26 24 25 23 23 26 27 27 28 29 29 26 23 22 21 19 19 21 21 21 21 22 21 22 27 27
14 15 15 14 19 13 19 18 21 20 20 21 21 22 26 23 26 27 24 23 22 20 21 22 23 24 23 22 25 21 22 21 20 20 20 21 21 22 19 20 21 22 21

GFSMA_sfc_dewp_039.txt.gz
Dewpoint
62 61 61 61 60 57 52 49 40 29 26 26 26 26 34 46 48 51 53 57 56 53 51 49 48 47 46 46 47 48 48 48 49 49 49 49 50 51 51 52 52 52 52
61 61 59 59 59 56 49 45 33 28 27 26 25 24 29 44 46 48 49 52 55 50 47 45 43 42 42 43 45 46 46 47 48 48 48 49 49 49 50 50 51 51 51
59 60 59 58 57 52 45 32 30 29 28 27 25 24 25 38 44 45 46 45 47 50 44 41 40 39 38 41 43 44 44 45 46 46 47 48 48 48 49 49 50 50 50
58 58 58 56 51 41 35 32 31 30 29 27 24 24 26 26 40 42 41 40 37 39 40 37 35 35 37 37 39 41 42 41 43 44 46 46 47 47 48 48 48 49 49
57 56 55 54 45 38 34 34 31 29 27 26 24 24 27 26 30 38 37 35 34 36 32 34 36 34 31 32 35 37 39 40 41 41 43 44 46 46 47 47 48 48 48
56 54 52 48 42 37 34 32 29 28 27 26 25 28 30 31 27 29 33 31 30 31 27 27 28 26 32 30 29 33 37 38 39 40 41 42 44 45 46 46 47 47 48
55 53 50 45 40 36 33 29 28 26 26 26 28 29 29 27 27 26 27 27 28 27 26 25 23 23 23 33 32 32 34 36 36 38 40 41 43 45 46 46 46 47 47
56 53 48 44 39 35 31 29 30 29 27 26 25 28 25 24 25 23 29 29 25 26 23 20 20 20 22 24 29 35 36 34 35 38 40 41 43 45 45 46 46 47 47
55 53 50 44 38 36 32 30 31 30 28 25 23 27 25 24 23 22 23 21 20 23 21 21 21 21 21 22 27 29 35 36 36 38 40 42 43 44 45 46 46 47 47
54 54 50 45 41 37 34 35 31 32 28 25 24 21 20 23 20 16 20 22 20 18 19 21 21 21 21 24 28 33 34 35 37 40 42 43 44 45 46 46 46 46 46
54 54 50 47 43 43 43 39 33 31 30 27 28 25 21 22 19 18 15 18 21 21 20 21 21 21 21 23 25 30 33 35 38 40 42 43 44 45 46 46 46 45 45
51 50 48 47 46 44 43 40 33 32 30 29 27 22 22 20 19 18 17 18 17 19 21 22 21 21 21 21 23 31 32 34 36 38 40 42 43 43 44 44 44 44 44
49 48 47 46 45 43 40 38 36 35 31 28 24 23 22 21 20 20 18 18 17 20 21 22 22 21 20 21 24 29 31 33 34 37 40 42 41 40 40 41 42 42 42
52 49 46 45 43 39 38 38 37 37 33 27 23 23 23 23 22 20 22 21 18 20 20 19 21 20 20 22 26 29 26 31 32 34 37 38 37 37 37 38 39 40 40
48 45 45 43 40 39 37 33 33 33 30 30 27 27 26 25 25 25 24 23 21 17 18 18 18 20 21 22 25 25 24 29 32 33 34 35 35 35 36 36 37 37 37
45 45 44 42 38 34 32 31 31 29 28 30 29 24 24 25 24 24 24 24 23 21 18 20 19 20 21 22 25 25 25 30 31 32 33 33 33 34 35 35 35 36 37
42 43 41 39 33 29 28 28 29 31 32 31 30 28 23 24 24 23 23 24 23 22 20 20 21 21 21 22 23 24 25 25 25 31 32 33 33 34 34 34 34 35 35
43 40 35 30 28 30 31 32 34 34 33 32 30 28 23 22 23 23 24 23 23 22 21 19 20 22 22 23 24 24 24 24 25 29 32 33 33 32 33 33 33 33 34
36 34 31 31 32 33 32 31 30 29 28 27 25 23 23 23 24 25 24 23 23 21 22 22 21 23 24 24 24 25 25 25 26 29 29 30 31 31 33 33 33 33 33
33 31 31 33 32 31 31 30 29 29 30 30 31 31 31 31 29 26 23 24 22 22 22 22 23 23 22 24 24 24 22 23 22 22 26 28 30 31 31 32 32 32 32
29 29 29 30 30 30 31 33 33 34 34 34 33 32 29 28 29 28 24 24 23 23 23 22 22 21 21 23 23 23 22 22 23 23 22 23 24 24 25 29 28 29 30
30 30 30 32 34 34 37 37 36 34 33 32 30 25 22 23 23 26 27 28 27 24 21 18 17 21 23 23 23 23 22 22 21 23 23 23 23 22 22 23 28 30 31
32 33 33 34 35 37 39 38 36 32 29 22 20 19 19 20 24 22 25 27 27 28 28 25 24 23 22 23 24 23 23 24 23 24 23 21 21 20 21 21 28 29 30
34 34 34 34 33 36 37 36 32 25 21 20 20 20 21 22 23 24 24 25 25 25 25 24 24 24 25 25 26 29 28 25 23 22 22 19 20 19 20 21 27 29 30
34 34 33 32 32 34 33 32 24 20 19 19 20 21 23 23 26 26 24 24 24 24 26 27 27 28 28 28 27 22 21 21 19 19 20 19 20 20 21 21 21 28 29
32 31 28 25 30 27 27 25 25 20 19 19 20 21 25 23 25 26 25 24 21 20 20 22 20 19 20 20 25 21 21 19 19 18 20 16 19 21 18 21 21 21 21

GFSMA_sfc_dewp_042.txt.gz
Dewpoint
61 61 61 61 60 58 55 49 40 29 27 26 26 31 44 47 49 52 54 58 58 54 52 50 49 47 46 47 49 49 49 50 50 50 50 50 50 51 51 52 52 52 52
62 61 60 60 59 57 52 48 35 28 27 25 25 27 40 45 47 49 50 53 56 52 49 46 44 43 44 45 46 46 47 48 48 48 49 49 49 50 50 50 50 50 51
61 61 60 59 58 56 48 39 30 29 28 26 24 24 32 43 45 46 47 47 47 51 46 43 42 41 41 43 44 45 45 44 45 46 47 48 48 49 49 49 49 50 50
60 60 59 59 57 53 43 34 32 30 28 27 24 25 25 35 42 43 43 42 38 39 42 39 37 38 38 37 39 41 40 41 42 43 45 46 46 47 47 48 48 48 49
59 59 59 58 54 46 38 33 31 30 28 26 24 25 27 26 35 40 39 36 36 37 33 36 37 35 33 33 34 36 37 39 39 40 42 43 44 46 46 46 47 47 48
59 58 57 56 51 42 36 33 30 28 28 27 24 27 30 31 28 37 36 34 32 33 28 30 28 26 35 32 30 33 36 37 37 38 40 42 43 44 46 46 47 47 48
57 57 56 54 50 44 36 32 29 27 27 28 29 29 29 27 26 26 29 29 27 28 26 25 23 22 23 32 35 34 35 37 37 37 39 41 42 44 45 46 46 47 47
57 56 55 53 49 44 35 31 30 29 27 29 27 28 25 25 26 25 29 27 26 26 24 21 20 21 22 24 29 34 36 36 37 37 39 41 43 44 46 46 47 47 47
57 57 54 52 47 46 39 33 31 30 28 27 26 28 26 26 24 22 23 25 22 24 22 21 21 21 21 22 27 29 34 34 36 39 41 43 44 45 45 46 47 47 47
57 56 54 52 48 46 43 39 41 44 36 27 24 22 20 25 24 19 20 22 20 20 21 21 21 21 21 24 30 34 34 35 38 41 43 44 45 45 46 46 47 47 47
57 56 55 53 48 46 45 43 42 38 39 33 31 26 21 21 18 20 17 19 21 21 20 20 21 21 20 23 25 30 32 34 37 39 42 43 44 45 46 46 46 46 46
55 56 54 51 50 46 44 45 43 41 37 34 31 25 24 22 20 19 18 19 19 18 21 22 21 21 21 21 24 31 32 34 36 38 41 43 43 44 45 45 45 45 44
52 53 53 50 48 47 46 46 43 41 40 37 34 29 25 23 22 21 21 20 18 20 21 22 22 22 21 21 24 29 31 32 34 36 40 42 42 41 41 42 43 43 43
54 53 52 51 49 47 46 44 43 42 38 38 33 30 25 24 24 22 23 22 18 19 20 19 21 21 21 21 26 29 26 31 32 35 37 38 37 38 38 39 40 40 40
53 52 51 49 49 46 42 42 41 36 33 34 31 29 30 29 26 26 26 24 21 16 18 18 18 20 21 22 24 26 25 29 32 33 33 34 35 36 36 37 37 37 38
49 48 48 46 45 42 41 39 35 31 30 31 30 27 26 27 28 28 28 26 24 21 18 20 20 20 20 20 24 26 25 30 31 32 32 33 33 34 35 35 36 36 37
46 46 44 42 40 39 37 34 30 30 31 31 32 31 30 29 29 28 27 27 25 24 22 22 21 21 20 21 22 24 25 25 25 31 32 33 33 34 34 35 34 35 35
43 41 39 36 34 31 31 31 31 32 33 32 32 33 32 33 31 30 29 28 26 26 25 20 20 21 21 22 23 23 24 24 25 28 32 33 33 32 33 33 34 34 34
40 37 33 32 32 34 36 35 34 34 33 33 32 29 29 30 31 32 31 31 29 24 23 21 21 22 23 24 24 24 24 25 25 29 30 30 31 32 33 33 33 33 33
34 33 33 33 33 33 32 31 30 30 31 33 34 34 34 34 33 33 32 30 25 24 23 23 23 23 23 24 23 24 23 23 23 22 26 28 30 30 31 32 32 32 32
35 35 32 32 33 33 33 33 34 34 35 34 34 34 33 33 33 33 30 26 25 24 23 23 22 21 22 22 23 23 23 23 23 24 23 23 23 24 25 29 28 30 30
33 33 33 34 34 35 37 37 36 35 34 33 32 31 30 31 29 28 27 27 26 26 25 22 21 21 23 24 23 23 23 22 22 23 22 22 24 22 22 23 28 30 31
34 35 35 36 36 38 40 39 37 33 31 30 29 24 23 22 27 24 26 27 27 28 28 25 24 23 23 23 23 23 23 24 23 24 24 21 22 21 22 21 28 29 30
34 34 34 35 35 37 38 37 34 30 26 22 22 21 21 22 23 24 24 25 25 25 25 25 25 25 25 25 25 26 26 24 22 22 22 20 20 19 20 21 27 29 30
33 32 33 32 33 34 36 34 26 21 19 19 21 21 23 23 25 25 24 24 25 24 24 26 26 27 28 27 25 22 21 21 18 18 20 19 19 19 20 20 21 27 28
32 32 32 32 34 32 34 32 23 20 18 19 20 21 24 22 25 26 25 24 20 19 20 22 20 19 20 19 25 21 20 18 18 18 20 18 17 20 18 21 21 21 20

GFSMA_sfc_dewp_048.txt.gz
Dewpoint
60 61 61 60 58 59 60 60 57 49 44 40 39 40 41 42 45 50 53 59 60 56 54 52 51 50 50 50 50 50 50 50 50 51 51 51 51 52 52 52 52 52 52
60 61 61 61 60 59 59 58 55 48 43 39 36 37 39 40 42 47 48 54 59 57 53 51 48 47 48 48 48 49 48 47 48 49 49 49 50 50 50 50 50 50 51
60 60 60 61 61 60 58 58 54 47 42 37 36 34 38 39 41 45 47 47 51 55 53 48 46 44 46 46 46 46 44 42 44 45 47 47 48 48 48 48 49 49 49
60 60 60 60 61 61 58 57 53 46 42 39 36 34 35 39 39 41 45 45 45 43 48 47 45 43 43 41 42 41 39 40 40 41 43 44 45 46 47 47 48 48 48
61 60 60 60 61 61 59 56 53 49 44 40 37 35 33 36 39 38 41 43 43 42 40 45 46 45 39 38 39 37 37 38 38 39 41 42 43 44 46 47 48 48 48
62 62 60 60 60 61 59 56 52 48 45 42 32 31 33 32 35 38 38 39 39 41 39 37 37 36 37 34 33 33 35 36 38 38 39 41 42 44 45 46 48 48 48
62 62 60 59 60 60 60 57 52 48 43 41 36 36 34 33 31 33 38 37 36 37 36 36 34 30 31 36 36 34 34 38 39 40 39 41 42 43 46 47 48 48 49
63 62 62 60 59 59 59 59 54 48 46 39 40 41 39 33 31 31 33 35 35 34 33 32 31 29 28 28 31 34 33 33 36 39 40 42 43 45 46 47 48 48 49
63 63 63 62 61 60 59 59 55 51 47 40 40 44 41 41 33 32 31 33 33 32 32 31 29 28 28 27 30 30 34 35 37 39 42 44 45 46 47 48 48 49 48
63 62 62 62 62 62 59 58 55 53 52 44 39 35 35 35 34 30 29 31 30 29 31 31 28 27 27 27 31 35 34 33 35 38 40 42 44 46 46 47 48 48 48
63 62 61 62 61 61 60 58 55 53 53 49 42 37 33 32 30 33 32 28 29 29 29 29 27 25 25 27 30 31 32 31 35 38 40 42 44 45 46 47 47 47 48
62 62 61 61 61 61 59 58 57 53 52 52 44 40 38 38 33 30 30 29 28 28 28 28 27 25 25 25 26 31 30 30 32 36 39 42 44 44 45 45 45 45 45
61 60 60 60 60 60 59 59 57 54 53 52 49 45 41 39 32 32 33 27 26 24 24 25 25 25 24 25 25 30 30 28 31 34 39 41 41 40 40 41 43 43 44
60 60 59 60 60 59 58 58 57 55 53 51 50 47 41 35 31 29 35 34 31 28 30 31 29 28 25 24 24 28 24 27 32 33 37 38 37 37 37 38 40 41 41
58 59 59 59 59 59 57 56 54 54 52 52 52 48 40 34 34 35 35 37 38 32 32 26 26 25 25 24 25 24 24 29 32 34 34 35 35 35 36 37 38 38 39
53 56 57 57 58 56 54 53 52 52 51 50 48 41 34 31 32 34 34 32 32 32 29 28 29 30 29 29 33 35 31 33 33 33 33 34 34 34 35 36 36 37 37
53 54 54 55 55 52 51 50 48 48 46 41 38 34 34 34 34 34 33 34 34 34 32 32 32 32 33 33 33 32 31 28 26 30 32 33 33 34 34 35 35 36 36
50 51 51 50 49 48 47 45 41 40 36 34 34 34 33 34 35 35 35 34 34 34 33 32 33 32 32 33 31 30 27 24 24 27 31 32 33 33 33 34 34 35 35
46 46 45 44 43 41 39 36 34 33 33 34 34 34 35 35 34 34 34 33 33 34 33 32 31 32 30 29 29 27 25 24 23 28 30 29 30 31 33 34 34 34 34
38 36 37 36 35 34 34 34 34 34 34 34 34 35 34 35 34 34 34 33 34 34 34 32 29 29 30 28 27 24 23 23 22 20 24 27 30 30 31 32 32 32 33
36 36 35 34 34 34 34 35 35 35 35 36 36 35 34 35 36 35 35 35 35 33 31 31 29 27 26 24 22 22 22 21 22 24 22 23 23 24 25 28 28 29 30
38 39 38 38 38 37 39 38 36 35 35 34 32 33 34 35 36 36 36 34 32 30 31 29 29 24 22 22 22 22 24 22 22 23 22 22 24 22 23 23 28 29 30
38 38 39 39 39 39 40 39 37 34 33 33 32 33 32 30 31 29 30 28 28 29 29 27 24 22 21 23 28 27 25 24 24 23 23 22 22 21 23 21 27 29 30
34 35 35 35 36 38 39 38 36 32 31 30 29 30 27 26 25 25 24 26 26 25 24 24 25 24 23 23 24 29 28 25 23 23 23 24 22 21 22 22 27 28 29
33 33 34 33 33 33 35 34 30 26 26 25 25 26 25 23 22 25 24 27 25 24 25 25 25 26 27 27 26 23 24 24 23 21 23 22 22 23 25 25 24 28 28
32 34 33 34 35 31 31 27 22 19 21 21 21 19 21 22 25 26 26 27 23 20 20 22 20 20 20 19 23 23 25 25 24 23 23 23 24 24 23 23 25 24 24

GFSMA_sfc_dewp_051.txt.gz
Dewpoint
59 60 59 57 57 58 58 60 59 54 51 47 45 45 43 43 44 49 57 59 61 58 56 54 53 52 51 51 51 52 51 51 51 52 52 52 52 53 53 53 53 53 54
59 60 59 59 58 57 57 57 57 55 49 45 43 42 42 42 41 46 52 56 60 59 54 53 51 49 50 50 50 50 48 48 49 50 50 50 50 50 51 51 51 51 51
59 59 59 59 60 59 57 57 56 54 50 45 42 40 42 41 41 43 47 53 55 57 56 53 49 48 48 48 48 48 45 44 45 46 46 47 48 48 49 49 49 49 50
60 59 59 59 59 60 59 57 57 54 49 45 42 41 40 42 40 40 45 46 51 49 53 52 48 47 47 46 45 44 41 41 41 41 42 43 44 45 47 48 48 48 49
60 60 59 59 58 60 60 58 57 53 50 48 45 43 40 42 41 38 41 45 47 47 47 52 51 50 46 42 44 41 40 39 38 38 40 42 43 44 45 46 48 49 48
62 61 60 59 58 60 60 59 57 55 52 49 42 40 41 39 41 41 40 40 43 45 45 43 43 43 45 40 40 38 37 37 38 39 39 40 42 43 45 46 47 48 49
63 63 62 60 60 59 60 59 57 55 52 50 46 42 41 40 36 38 41 40 41 42 42 40 38 37 38 40 38 37 36 36 39 39 41 41 42 43 45 47 48 48 49
64 63 63 62 60 59 59 59 58 55 52 49 44 45 44 40 37 36 36 38 39 39 39 37 37 36 36 36 39 36 37 35 36 38 40 41 43 45 47 48 49 49 49
65 64 63 63 62 60 60 60 59 56 52 49 46 47 47 45 39 37 35 35 37 37 37 36 34 34 33 34 38 36 34 35 37 39 41 42 43 45 46 48 48 49 49
63 64 63 63 62 62 60 60 60 59 54 49 46 44 48 42 43 36 37 35 35 34 35 36 32 32 32 35 38 39 39 36 35 37 38 41 42 44 46 47 47 48 48
63 63 62 63 63 62 62 61 60 59 54 52 47 48 44 41 37 40 35 33 33 33 34 34 33 31 30 32 37 37 36 34 34 36 38 39 42 44 46 47 47 47 48
61 63 62 61 62 62 61 61 61 60 56 56 51 49 45 42 39 37 38 35 32 32 32 34 32 30 30 30 33 38 36 33 32 34 37 39 41 43 45 45 45 45 45
60 61 61 61 61 61 61 61 60 59 57 56 56 49 48 47 49 42 42 34 31 27 31 30 31 31 26 28 32 34 32 30 30 33 37 40 40 41 41 42 43 43 44
56 58 62 61 60 60 60 60 60 59 57 56 55 54 49 47 42 39 39 36 34 31 32 30 30 31 30 29 30 32 30 32 30 33 36 38 38 38 38 39 40 41 41
51 54 58 60 60 59 59 59 59 58 57 55 55 55 51 47 44 42 41 42 42 37 29 29 28 27 28 28 29 27 31 33 34 37 37 36 36 36 36 37 38 38 39
50 51 53 56 58 58 58 57 56 55 55 54 53 52 46 39 39 40 38 37 39 38 35 33 32 32 31 30 34 36 35 37 37 37 36 34 34 36 36 36 37 37 38
51 52 52 53 53 56 55 54 53 53 52 49 47 43 37 37 37 37 37 38 37 37 36 32 33 33 34 35 35 35 35 33 31 33 33 33 33 34 35 36 36 36 36
49 49 50 51 52 51 50 50 47 46 43 40 38 37 36 36 36 36 37 36 36 38 36 34 33 32 33 34 34 34 33 29 27 28 31 32 33 34 34 34 34 35 35
41 42 43 44 43 43 41 39 37 36 36 36 36 35 35 35 35 36 36 35 35 35 34 33 32 34 34 34 32 30 29 27 24 28 30 30 29 30 32 33 34 35 35
37 37 37 37 36 36 36 36 35 35 36 36 36 36 36 36 35 34 34 33 34 33 34 34 34 33 33 32 30 27 25 27 25 22 24 27 29 30 31 32 32 32 32
37 37 36 36 35 35 35 36 36 36 36 35 35 35 36 36 37 36 35 35 35 34 34 33 31 30 29 28 26 25 24 24 25 25 24 24 26 26 26 29 29 29 30
39 39 39 39 39 39 39 39 37 35 35 34 33 33 34 35 37 38 38 37 35 33 32 32 31 27 24 24 24 24 28 24 23 26 24 24 26 24 25 25 28 29 30
35 35 35 35 37 38 39 39 37 33 33 33 33 33 32 31 31 29 31 30 29 30 29 29 26 24 23 25 29 28 26 25 25 24 25 23 24 23 25 22 28 29 30
34 34 33 34 34 36 38 38 36 32 32 32 31 29 27 26 25 25 24 27 27 27 26 24 26 25 26 25 25 29 28 27 25 25 25 23 24 23 24 25 29 30 30
34 33 33 33 33 33 34 31 29 28 28 26 26 25 23 21 22 24 26 29 26 25 25 26 25 26 27 27 27 26 25 24 24 23 25 24 24 25 25 25 25 29 29
33 34 34 34 32 29 28 26 22 21 20 21 20 18 22 24 26 27 27 26 25 22 22 23 22 22 22 22 23 23 25 24 24 24 26 24 25 25 24 26 27 26 25

GFSMA_sfc_dewp_054.txt.gz
Dewpoint
60 59 58 57 59 60 60 62 61 58 51 49 47 46 45 44 44 54 58 62 62 59 57 56 55 54 53 53 53 52 52 52 53 53 53 53 53 53 53 53 53 53 53
60 60 59 58 57 58 59 61 61 56 51 49 45 43 43 43 42 51 57 59 61 60 56 55 54 53 53 52 53 51 50 50 51 51 51 51 51 51 51 51 51 51 51
59 59 60 60 60 58 57 57 57 56 51 47 44 41 42 42 41 43 55 56 58 59 58 55 53 52 53 52 52 50 47 47 47 47 47 47 48 49 49 49 49 49 50
59 59 59 59 60 60 58 57 57 56 51 47 44 42 41 42 41 41 46 54 54 52 57 57 53 51 51 51 51 49 45 44 44 43 43 43 44 45 46 48 48 48 49
60 59 59 59 59 59 60 58 57 55 51 47 44 43 40 42 41 39 43 45 51 50 49 55 54 53 52 49 49 48 46 43 41 40 41 42 42 43 44 45 46 48 49
62 60 59 59 58 59 60 59 57 56 51 49 44 42 41 40 42 41 39 43 44 45 47 46 46 46 52 48 47 47 45 43 41 41 40 40 41 42 43 45 46 47 48
63 62 61 60 59 58 59 59 58 56 53 50 45 42 40 39 37 40 41 41 42 43 43 42 41 41 43 48 46 45 43 43 42 42 41 41 41 42 44 45 46 47 48
64 63 63 62 61 60 59 59 58 56 53 51 45 41 39 40 39 36 38 39 40 42 41 40 38 38 37 39 40 44 43 42 42 40 41 42 43 43 45 47 48 48 49
65 65 64 62 62 61 60 59 60 57 55 52 45 45 45 43 38 38 35 38 38 39 39 38 37 36 35 37 41 42 42 40 39 40 42 43 43 43 45 46 47 48 48
64 64 64 63 63 62 61 61 60 59 56 51 50 45 49 44 39 34 35 34 36 36 37 37 35 34 32 37 40 40 40 39 41 41 42 42 42 43 44 46 47 48 48
63 63 63 63 62 63 63 62 61 60 58 55 50 49 47 42 37 38 33 36 34 36 36 35 34 32 31 34 37 40 41 41 40 40 41 41 41 42 44 45 47 47 47
59 62 62 62 61 62 62 62 62 61 60 57 53 51 48 47 43 38 42 38 37 35 36 35 33 32 31 31 36 41 41 39 38 38 38 39 40 41 43 45 45 45 45
57 59 60 61 61 61 62 62 61 61 60 58 56 51 50 50 51 46 46 41 37 32 34 34 36 34 32 33 37 40 39 37 34 34 35 38 39 40 41 42 43 44 44
50 54 58 59 60 61 60 61 61 60 60 59 57 56 51 51 52 49 48 43 38 34 34 34 36 37 37 36 37 37 33 35 32 33 35 37 39 40 40 40 40 41 41
51 51 52 55 59 60 60 60 60 59 59 58 57 56 55 49 44 45 45 45 43 39 37 34 33 34 35 36 39 35 34 35 33 36 38 40 41 40 40 38 38 39 39
50 51 52 53 55 57 58 58 58 57 56 55 54 54 50 44 43 43 42 41 42 42 36 34 34 35 36 36 38 37 36 37 37 39 40 41 40 37 36 37 37 38 38
48 48 49 50 52 54 54 54 54 53 53 51 49 47 42 41 39 39 40 39 39 39 36 33 34 34 34 35 36 36 36 36 36 39 39 38 35 34 35 36 36 37 37
41 42 44 44 44 45 44 45 46 45 45 42 40 39 38 38 38 39 40 38 38 38 37 34 33 33 33 34 35 35 35 35 34 33 33 33 32 34 35 35 34 34 35
37 37 37 37 37 38 38 38 38 38 39 38 38 38 37 36 36 37 36 35 35 35 35 34 32 33 34 34 33 34 33 31 28 30 31 30 30 30 31 32 34 35 35
37 36 36 36 36 36 36 36 37 37 36 36 37 36 37 36 36 35 34 34 34 33 34 33 33 34 34 33 31 29 28 28 26 23 25 27 29 30 30 31 32 32 32
39 38 38 38 38 38 37 37 36 36 35 35 36 36 36 37 37 36 35 34 35 33 33 31 31 31 31 30 28 28 26 24 25 25 24 24 24 25 26 30 30 29 30
36 36 37 37 38 38 39 39 36 34 34 33 33 33 35 37 37 38 38 37 36 33 32 32 30 27 24 23 23 25 25 23 21 25 24 23 25 25 26 26 29 30 31
35 35 35 36 37 38 39 39 37 33 32 32 33 33 33 32 31 31 32 31 29 30 30 29 27 25 23 24 25 24 23 23 23 25 24 24 24 24 26 24 29 30 31
34 34 33 33 35 37 38 37 36 32 32 32 32 30 29 27 27 27 25 26 25 26 26 25 25 25 25 25 25 24 22 24 25 25 25 22 23 23 24 25 30 30 31
33 32 32 31 30 29 29 30 29 28 27 26 26 24 22 21 23 25 26 27 25 24 27 26 25 25 25 27 27 25 21 19 20 23 24 23 23 23 24 24 25 29 29
32 32 32 26 30 27 30 28 24 22 20 21 19 21 24 25 27 28 26 24 22 21 21 21 20 22 22 22 23 23 22 13 15 20 24 18 20 21 20 24 24 25 25

GFSMA_sfc_dewp_057.txt.gz
Dewpoint
58 59 60 60 61 61 62 62 61 58 54 50 48 47 47 47 47 59 61 62 63 61 59 58 57 56 55 55 55 54 54 54 54 54 54 54 54 54 54 54 54 54 54
59 58 58 58 59 60 60 61 62 60 56 50 47 45 45 44 43 57 58 61 63 61 59 57 56 56 55 55 55 53 53 54 53 53 53 52 52 52 52 52 52 52 52
60 60 59 58 57 58 60 59 61 59 53 50 47 44 43 43 41 56 56 58 60 60 60 57 56 55 55 55 55 52 51 51 51 50 51 50 51 51 50 50 50 50 50
59 59 59 59 60 58 57 57 57 56 52 49 45 43 41 42 41 46 55 56 56 55 59 59 57 55 55 55 55 53 50 49 48 48 47 47 47 47 48 49 49 49 48
60 59 59 59 59 60 58 57 57 56 52 49 45 43 41 42 42 40 48 54 54 53 53 58 58 56 56 54 54 53 50 48 47 46 46 46 45 46 46 47 47 47 48
61 60 59 59 59 59 59 59 57 56 53 50 44 43 43 41 42 41 40 49 53 51 50 50 52 52 56 55 53 53 50 48 46 45 45 45 45 44 45 45 46 47 47
63 62 60 59 59 58 58 59 58 56 53 50 45 44 41 40 40 41 41 42 46 49 49 48 48 45 49 55 53 51 50 49 46 45 45 44 44 45 45 45 46 47 47
64 64 62 61 60 59 58 59 58 56 56 52 48 41 38 38 39 38 40 40 41 44 46 46 44 42 43 46 46 52 50 48 47 47 44 45 45 45 46 47 47 47 47
64 64 64 63 62 60 60 59 59 58 57 54 50 45 42 40 39 39 37 38 39 42 42 43 41 40 39 40 44 48 51 47 45 46 44 45 46 46 47 47 47 47 47
63 63 63 63 62 62 61 61 59 59 56 54 53 49 50 45 40 38 36 38 40 40 42 41 39 37 37 38 42 46 49 45 44 43 45 46 46 46 46 46 46 47 47
63 63 63 62 61 61 61 61 61 60 59 58 54 51 50 49 45 40 37 40 41 42 43 42 40 37 34 36 39 43 45 43 41 43 45 45 45 44 44 45 47 47 47
56 60 62 62 62 61 62 62 61 61 60 59 57 55 51 50 48 43 41 42 43 45 43 40 37 37 36 36 38 43 44 42 43 43 43 43 42 42 44 44 46 45 45
50 52 57 60 59 60 60 61 60 61 60 59 59 55 54 51 52 48 46 42 42 41 39 39 40 39 38 41 41 45 45 44 42 40 40 41 43 43 42 43 44 45 45
50 52 53 54 57 58 59 59 60 60 60 59 58 57 54 52 52 51 48 46 41 37 37 37 38 39 41 42 44 45 45 44 42 41 43 44 44 43 42 43 44 44 43
50 51 51 51 52 56 57 57 57 59 59 59 58 57 57 54 52 52 50 49 48 44 37 37 37 38 38 41 44 39 40 43 43 43 43 43 43 43 43 44 43 41 41
47 48 49 49 50 52 53 55 56 56 56 56 54 55 52 48 47 46 45 44 44 46 41 35 35 36 38 39 41 38 38 41 42 43 42 41 42 43 44 42 40 39 39
40 41 44 44 45 45 45 48 49 50 52 49 46 45 42 42 41 42 42 41 41 42 38 34 35 35 36 37 38 37 38 37 37 39 39 40 43 43 39 37 37 37 37
38 38 38 38 38 39 39 41 42 42 43 41 41 41 40 39 39 40 40 40 40 39 38 34 33 32 33 35 35 35 34 34 35 37 41 41 37 35 35 36 35 34 34
37 36 36 36 36 37 37 38 38 38 38 39 39 39 39 39 38 37 37 36 36 36 35 34 32 33 34 34 34 34 34 34 33 34 34 33 33 32 31 32 33 33 34
38 37 37 37 37 36 36 36 36 36 37 37 37 37 37 36 36 35 35 34 35 34 34 34 33 33 34 34 33 31 30 30 29 26 26 28 29 30 31 31 31 31 32
38 38 38 38 38 37 37 36 36 36 35 35 36 37 38 38 37 37 35 35 34 34 33 32 32 32 32 30 30 29 28 25 24 25 23 24 24 25 26 29 30 29 30
36 35 36 37 38 37 38 38 35 34 34 34 33 34 35 36 38 39 38 37 36 34 32 32 31 28 26 25 24 25 25 23 21 25 24 23 24 24 25 26 30 31 31
33 34 35 37 37 38 39 38 37 33 32 33 32 32 32 30 31 30 30 30 30 30 30 29 27 25 22 24 24 23 23 22 22 24 24 24 25 24 25 25 29 30 31
33 33 33 34 35 35 35 35 34 28 28 29 29 28 27 25 25 26 26 27 26 26 26 25 25 25 24 24 24 23 21 22 24 24 25 18 23 23 24 25 30 30 30
32 29 28 25 24 26 29 29 28 25 24 24 22 23 23 24 27 28 26 26 24 24 24 26 26 25 25 25 26 24 20 17 18 23 24 22 22 23 24 23 25 28 28
31 31 25 22 30 26 29 28 23 19 18 19 18 20 25 26 28 28 25 24 22 21 21 22 21 22 22 20 23 23 22 11 12 15 23 17 19 20 18 23 23 24 24

GFSMA_sfc_dewp_060.txt.gz
Dewpoint
58 60 61 61 61 61 62 62 61 59 56 52 50 52 49 48 51 60 61 63 64 63 61 60 58 57 56 56 55 55 55 55 55 55 55 55 55 55 55 55 55 55 55
58 59 60 60 60 61 62 62 62 61 59 54 50 48 47 47 46 58 60 61 63 63 61 59 58 57 57 56 56 55 55 55 55 55 54 54 54 54 54 53 53 53 53
59 58 58 59 59 59 60 61 61 61 59 56 50 47 45 44 43 56 58 59 61 61 62 59 58 57 57 56 57 55 54 54 54 54 53 52 52 52 52 52 52 52 52
59 59 58 58 58 58 59 59 60 60 59 56 52 47 44 43 42 49 56 58 58 58 60 61 59 58 57 57 57 55 54 53 53 52 51 51 51 51 51 51 50 50 50
58 59 59 60 59 58 57 57 57 58 57 53 49 46 43 42 42 41 54 56 56 56 56 59 60 59 58 57 56 56 53 52 50 50 49 49 49 48 49 49 49 50 50
60 60 60 59 59 59 59 58 56 56 55 54 50 45 44 42 42 42 42 54 55 55 53 53 56 56 58 58 56 56 55 52 50 48 48 48 47 47 48 48 49 49 49
63 62 61 60 60 59 59 59 58 56 56 52 50 45 42 42 40 42 42 44 53 53 52 51 52 51 52 57 57 56 55 52 50 48 47 47 47 47 47 47 48 48 49
64 64 62 61 60 59 59 58 58 56 56 54 52 47 45 43 40 41 41 40 42 51 51 50 50 48 47 50 52 56 55 53 51 49 47 47 46 47 47 48 48 49 49
63 63 63 62 61 60 59 58 58 57 57 53 52 52 42 43 40 40 38 39 40 43 48 51 48 47 44 46 50 52 55 54 51 50 49 47 47 47 48 48 49 48 48
62 63 62 62 62 61 60 60 59 58 57 57 53 53 50 46 41 41 38 38 40 40 42 45 47 47 45 43 46 48 51 53 49 48 48 47 48 47 48 48 48 48 48
53 60 62 62 60 61 61 60 59 58 58 58 55 52 53 51 48 45 45 42 46 45 47 44 43 43 43 42 41 45 50 48 48 46 45 45 48 49 48 47 47 48 48
52 52 55 59 60 60 59 59 59 59 59 59 59 57 55 52 51 49 45 44 44 47 48 46 44 41 42 41 42 45 49 48 46 44 45 48 51 50 47 46 46 47 47
49 50 52 52 55 57 59 59 58 57 57 57 57 58 57 55 54 53 50 49 44 44 44 41 41 41 41 42 44 46 48 47 46 49 49 52 49 48 48 48 49 49 48
49 50 50 51 52 55 56 56 57 57 57 56 57 58 57 56 55 53 52 50 43 41 39 41 40 42 43 43 45 46 47 49 48 49 50 49 48 48 47 47 48 49 48
46 48 48 49 50 50 53 56 56 57 55 55 56 56 56 56 53 53 52 50 48 44 40 39 38 39 40 44 46 45 45 47 47 47 47 47 47 47 46 46 45 46 46
41 44 45 45 45 45 46 48 49 49 51 52 51 52 50 47 46 45 45 45 46 45 42 38 37 37 39 41 44 41 42 45 47 47 46 45 45 45 44 44 45 45 44
38 38 39 39 39 40 41 42 43 43 45 44 44 43 42 42 42 42 43 43 43 43 40 36 36 36 37 38 40 39 41 39 40 43 44 44 43 43 43 44 42 40 40
37 37 37 37 37 38 38 39 39 40 40 40 41 40 39 40 40 41 41 40 40 39 38 36 34 33 33 36 36 36 37 36 36 37 40 41 42 43 40 38 37 37 36
37 37 37 37 37 37 37 38 37 37 37 37 37 38 38 38 37 37 37 36 36 37 36 35 33 34 33 34 34 35 35 35 35 38 40 39 38 37 35 34 33 33 34
38 38 38 38 37 36 36 36 36 36 36 37 37 37 36 36 36 35 35 35 35 35 35 34 33 33 34 34 34 33 33 34 33 29 30 28 29 30 31 31 32 32 32
36 36 36 36 36 36 36 34 35 35 36 35 36 37 38 39 39 37 35 35 34 34 33 33 32 33 33 32 31 32 29 26 24 25 24 24 24 24 25 29 29 30 31
35 37 38 38 38 37 39 38 35 34 34 34 33 33 33 34 34 39 38 37 36 33 32 32 31 29 27 25 24 25 23 22 19 24 24 23 24 24 24 25 30 31 32
34 35 35 36 36 37 38 38 36 33 32 30 30 28 29 30 30 29 29 29 29 30 31 29 27 25 22 24 21 21 22 20 20 22 24 22 24 23 25 25 30 30 31
33 33 31 30 29 31 32 32 32 22 21 21 23 23 23 22 25 26 26 25 25 25 25 25 25 24 24 24 24 22 21 21 23 24 24 17 23 23 23 24 29 30 31
27 24 24 23 24 26 29 29 26 23 22 20 22 23 24 24 28 31 25 24 24 23 23 27 26 26 25 27 27 24 20 16 18 22 24 22 21 22 23 23 24 28 28
26 25 25 21 29 25 29 27 23 19 18 18 19 19 27 26 28 27 25 23 22 22 22 23 21 21 21 20 23 23 21 10 11 14 22 17 18 20 16 22 23 23 23

GFSMA_sfc_dewp_063.txt.gz
Dewpoint
58 59 60 60 61 61 61 62 61 60 58 54 52 53 52 50 49 59 61 63 65 65 62 62 60 58 57 56 55 55 55 55 55 55 55 55 56 56 55 55 55 55 55
58 59 60 60 60 60 61 61 61 60 59 57 53 50 50 49 47 55 59 61 64 65 63 61 61 59 57 57 56 55 55 55 54 55 55 54 54 54 54 54 54 54 54
59 58 59 60 60 60 60 61 60 60 60 59 56 51 48 46 46 48 57 59 60 62 64 61 61 59 58 58 57 56 55 55 55 55 54 53 53 53 53 53 52 52 52
60 58 58 59 59 59 59 59 60 59 60 59 58 54 49 46 44 44 54 57 59 60 61 63 62 60 59 58 58 57 55 55 55 54 53 53 52 52 52 51 51 51 51
61 60 58 58 58 58 58 58 58 59 58 58 57 56 52 46 44 43 48 55 57 58 57 59 61 61 61 58 58 58 56 54 54 53 52 52 51 51 51 51 50 50 50
61 60 60 59 59 59 58 57 57 57 57 57 56 54 50 47 43 43 42 51 55 57 56 55 56 58 60 60 58 58 58 55 53 52 51 50 50 50 50 50 49 50 50
62 61 60 60 60 59 59 59 57 56 55 53 51 49 46 44 43 42 44 46 53 56 56 55 54 55 56 60 59 58 57 57 54 52 50 50 49 49 49 49 49 49 50
64 64 62 61 60 59 59 59 58 56 55 54 53 47 52 50 43 43 43 42 42 51 54 55 53 53 53 53 55 58 58 57 56 53 50 49 49 49 49 49 49 50 50
63 63 63 62 61 60 59 58 57 57 57 53 53 56 48 46 44 43 41 41 41 43 49 52 53 52 52 51 53 55 58 58 56 55 52 49 48 48 49 49 50 50 49
54 59 61 61 61 60 59 59 58 57 56 56 51 53 53 49 48 48 41 40 42 41 45 48 52 52 50 49 50 52 54 56 54 54 53 52 49 48 49 49 49 48 47
52 53 55 59 59 60 60 59 58 57 57 57 54 54 54 53 49 46 49 50 45 45 46 47 48 49 49 49 48 49 53 54 54 53 51 50 49 50 49 50 51 51 49
51 51 52 52 55 59 59 58 58 57 57 56 57 57 55 53 51 50 48 49 48 48 47 48 48 46 45 47 48 49 52 52 52 53 54 50 50 53 52 52 52 52 52
49 49 49 50 51 53 56 57 57 56 56 57 56 57 55 56 55 54 52 51 48 45 44 44 43 43 44 45 46 48 51 52 52 53 53 53 53 51 52 52 51 50 49
47 47 48 48 50 51 55 56 55 55 55 55 55 54 56 55 55 54 53 51 46 43 41 42 39 41 42 44 45 48 49 51 51 52 54 54 53 51 50 50 49 48 49
42 45 45 45 45 46 48 51 52 52 54 54 52 52 53 52 52 52 52 52 50 44 42 41 38 38 39 43 46 47 47 50 52 51 51 51 50 50 49 48 47 47 48
38 39 40 40 41 41 43 44 44 45 47 46 46 46 45 45 45 45 45 46 47 46 43 40 36 38 39 43 45 43 45 48 50 50 49 49 49 47 46 45 45 45 46
37 37 37 38 38 39 39 40 41 41 42 42 42 42 41 42 41 42 42 42 43 43 40 38 36 36 37 39 39 40 41 41 41 45 46 45 45 44 45 44 44 45 44
37 37 37 37 37 37 38 37 38 38 38 38 39 39 39 39 39 40 40 39 39 39 38 37 34 34 34 36 37 37 38 39 38 39 40 42 42 42 42 44 43 41 39
38 38 38 37 36 36 36 37 37 37 37 37 37 37 37 37 37 37 37 36 36 37 36 35 33 34 34 35 35 35 35 36 36 38 39 40 41 41 41 40 38 36 35
36 36 36 36 36 35 35 35 36 36 37 37 38 38 37 36 36 34 34 34 35 34 34 34 33 33 34 34 35 34 34 36 35 35 34 32 31 30 32 33 33 33 33
37 38 37 36 36 36 36 34 35 35 35 35 35 35 36 39 39 38 35 34 35 34 34 33 33 33 33 32 32 33 31 26 25 25 24 24 24 24 24 28 29 30 31
36 37 37 37 38 38 39 37 35 33 33 32 30 30 31 31 31 34 33 34 34 32 30 27 25 26 24 24 24 25 23 21 19 24 23 23 24 23 24 25 29 31 31
35 35 34 33 33 35 36 35 33 29 25 24 23 24 25 26 27 25 29 30 29 30 31 26 24 23 22 23 19 20 22 19 19 22 24 22 23 22 24 24 29 30 31
32 29 26 26 27 30 31 31 29 20 19 19 21 22 23 25 27 27 25 25 25 23 25 24 24 24 24 24 24 21 19 21 23 24 24 16 22 23 23 24 29 30 31
26 22 23 22 23 26 29 28 24 20 20 19 20 20 25 25 29 29 25 24 23 23 24 27 27 27 27 27 27 24 20 17 18 21 24 22 21 22 23 23 24 29 30
21 23 23 20 28 25 29 28 25 21 20 20 20 20 27 27 27 27 24 22 20 21 22 23 21 21 20 20 24 25 21 9 11 13 21 17 18 19 16 21 22 23 23

GFSMA_sfc_dewp_066.txt.gz
Dewpoint
58 58 59 59 60 60 61 61 61 60 59 57 54 54 53 52 50 56 59 62 65 66 63 62 62 60 58 57 56 55 55 55 55 55 55 55 56 55 56 55 55 55 56
58 58 59 59 59 60 60 60 60 60 59 58 58 55 51 50 50 49 57 59 63 65 65 62 62 61 60 58 57 56 56 56 55 55 56 55 55 55 55 55 54 54 54
59 58 59 59 60 60 60 59 60 60 59 59 58 58 54 50 48 47 50 57 60 63 64 63 62 62 60 59 58 58 56 56 56 55 55 55 54 54 54 53 54 54 53
61 59 58 59 59 59 59 59 59 58 59 59 58 58 57 52 48 46 47 54 58 60 62 64 64 62 61 60 59 58 57 56 56 55 55 54 54 53 53 53 52 52 52
62 60 59 59 58 58 58 58 58 58 57 57 58 58 57 55 52 48 44 48 55 58 59 60 62 63 63 61 60 59 58 56 56 55 55 54 53 53 53 52 52 51 51
63 61 61 59 58 58 57 57 57 57 58 57 57 57 55 54 52 48 47 44 52 55 58 57 58 59 61 62 60 59 59 58 56 54 54 53 52 52 52 52 52 52 51
61 60 60 60 60 59 59 58 57 56 55 54 52 53 51 49 48 47 46 45 47 53 55 56 57 56 57 61 61 60 59 58 58 56 54 53 51 51 51 51 51 51 51
63 63 61 60 59 59 59 58 57 56 55 53 55 51 54 52 47 46 45 44 43 46 53 54 54 54 54 54 57 60 60 58 58 58 55 53 52 51 51 51 51 51 51
61 62 62 62 61 60 59 58 57 56 57 53 53 56 52 50 47 47 43 43 42 42 45 51 53 53 53 54 55 57 59 60 57 57 57 54 51 51 51 50 51 51 51
50 54 56 58 60 60 59 59 58 57 56 57 52 53 52 51 51 51 46 43 42 41 43 46 51 52 53 53 53 54 56 58 58 57 59 58 54 52 51 51 51 51 51
51 51 52 53 57 58 60 60 58 57 56 56 54 52 52 52 50 50 51 51 47 46 44 46 46 50 51 50 51 51 54 55 58 59 59 58 58 55 52 51 50 51 52
50 49 50 50 51 53 57 59 60 58 56 56 56 56 55 53 52 50 49 49 49 50 46 47 47 47 46 47 49 51 52 54 56 58 58 58 58 54 55 56 55 53 52
47 47 48 48 49 51 55 56 57 57 58 57 57 57 57 56 56 54 52 51 50 47 45 43 43 42 43 43 44 49 51 53 55 57 59 58 56 54 54 55 55 55 54
45 45 46 46 46 47 49 54 57 57 57 56 55 55 56 55 55 54 53 51 48 45 42 42 39 38 40 41 43 46 47 50 52 55 56 55 55 53 53 53 53 53 52
39 41 42 42 42 43 45 48 49 50 51 50 50 50 51 49 48 49 50 51 49 46 43 40 40 37 38 41 44 44 45 48 49 53 54 53 53 53 53 52 51 51 49
38 38 38 39 39 40 42 43 43 44 45 46 46 45 44 44 44 42 44 45 46 45 43 40 38 37 39 42 44 43 45 47 48 51 52 52 51 50 49 49 47 47 46
37 37 37 37 37 38 38 39 39 40 42 42 42 42 41 42 41 42 42 43 42 42 41 39 36 36 36 38 38 40 41 41 42 46 47 48 48 47 46 46 46 45 45
37 37 37 37 37 37 37 37 37 37 37 36 37 37 38 39 39 39 39 39 39 39 38 37 34 34 34 36 37 38 38 38 38 41 42 43 43 43 43 44 43 44 42
36 37 37 36 35 36 36 36 36 36 37 37 37 37 36 36 36 36 36 36 36 35 36 36 34 34 33 35 35 35 36 36 36 38 39 40 41 42 42 41 41 41 39
36 36 36 36 36 35 35 36 36 36 36 36 37 38 38 36 35 34 33 31 32 32 34 34 34 34 34 34 35 34 34 36 35 35 35 36 33 32 33 33 34 34 34
37 38 37 37 37 36 36 35 35 35 34 33 33 33 34 37 39 37 34 32 31 30 30 33 32 32 31 31 31 31 30 27 26 26 25 24 24 24 24 27 28 30 31
36 37 36 37 38 37 37 36 33 31 28 26 26 26 29 29 29 32 32 32 32 28 26 23 21 24 23 23 24 24 21 20 19 23 23 22 24 23 24 24 28 30 30
34 31 31 31 31 32 33 32 30 24 21 19 19 22 26 27 27 25 29 30 29 30 29 25 23 22 21 23 19 19 21 19 19 22 23 21 23 22 23 24 29 30 31
29 27 26 27 28 30 30 29 26 17 17 18 20 23 24 25 28 26 25 24 25 23 26 25 24 24 24 24 24 21 19 20 23 23 24 15 22 22 23 24 28 29 31
26 23 24 21 23 25 28 26 22 20 19 19 20 22 25 25 28 28 24 24 21 22 24 28 27 27 27 27 26 24 20 17 18 20 23 21 20 21 23 23 24 28 30
25 23 24 20 28 24 29 29 25 21 19 20 20 22 26 26 28 27 23 21 19 18 22 23 20 20 19 21 26 25 20 10 11 13 21 16 18 19 16 21 22 23 23

GFSMA_sfc_dewp_069.txt.gz
Dewpoint
60 61 61 61 61 63 63 64 63 63 63 61 60 56 54 54 53 52 55 61 64 66 65 64 63 62 60 58 57 55 55 55 55 55 55 55 55 55 55 56 56 56 56
61 59 58 59 59 61 61 61 61 61 61 61 61 60 58 55 52 52 52 55 62 64 66 65 63 62 62 60 59 57 56 56 55 55 55 55 55 55 54 54 54 54 55
62 61 59 58 59 60 60 61 61 61 61 61 60 60 60 59 57 54 51 52 54 60 64 65 64 63 62 61 60 59 57 57 56 55 56 55 55 55 55 54 53 53 53
63 62 61 60 59 60 60 60 60 60 60 60 59 59 59 59 59 57 53 51 52 53 59 64 65 64 63 62 61 60 59 57 56 55 55 55 55 55 54 54 53 53 53
64 62 62 61 61 60 59 59 59 59 59 59 59 59 59 59 59 58 57 55 53 53 54 59 63 64 64 63 62 61 59 59 57 56 55 55 55 55 54 54 53 53 53
64 64 63 62 61 61 60 59 59 59 58 58 57 58 59 58 58 57 56 55 53 54 54 56 56 58 62 63 62 61 60 59 59 57 56 55 55 54 54 54 53 53 53
62 63 63 63 62 61 61 61 60 58 58 59 58 57 57 56 56 55 55 54 52 52 53 53 55 56 57 61 63 62 61 60 60 59 57 56 55 54 53 53 53 53 53
65 64 63 62 62 61 61 61 60 60 59 59 59 56 55 54 54 52 51 50 50 48 48 51 52 54 55 56 58 61 62 60 59 59 59 57 56 54 53 52 53 53 53
55 61 63 64 64 62 62 62 61 60 60 59 58 58 55 52 51 52 49 48 48 47 46 48 51 52 53 54 57 57 59 61 60 59 59 60 57 55 54 53 52 52 53
53 53 54 56 59 61 62 62 61 60 59 59 57 56 57 55 54 52 52 50 48 47 47 47 48 50 52 52 54 55 56 58 59 60 59 59 61 57 54 53 53 52 53
51 51 51 53 54 56 58 58 60 60 59 59 58 57 56 56 54 53 51 53 52 53 52 50 48 46 48 50 52 53 54 55 56 59 60 60 59 61 57 56 54 54 55
50 49 49 50 52 54 55 56 58 59 59 58 59 57 57 55 54 52 51 51 51 53 52 51 49 48 47 46 47 50 51 52 53 55 58 60 59 59 60 59 55 56 56
47 46 47 48 48 49 52 55 57 58 59 58 58 58 58 57 57 54 53 53 52 51 50 47 44 44 43 45 45 46 48 50 51 53 56 58 58 58 57 58 57 56 55
43 43 44 44 44 45 48 52 55 55 56 56 55 56 56 55 55 55 54 52 49 48 46 46 43 43 43 45 46 46 47 49 49 51 53 54 55 58 56 56 56 55 54
39 40 41 42 42 43 45 47 49 51 50 50 50 50 50 48 48 48 49 51 49 45 45 46 43 41 42 44 46 45 46 48 49 49 50 53 52 54 54 54 53 53 52
38 39 39 39 40 41 42 44 45 46 46 46 46 46 45 45 45 46 47 47 48 48 46 43 40 39 40 42 43 43 44 45 47 51 51 51 50 49 49 50 51 50 49
38 38 38 38 38 39 39 41 41 43 43 43 42 42 41 42 42 43 44 43 42 43 44 40 38 37 38 40 40 41 41 40 41 46 48 48 48 48 48 47 47 46 46
38 37 37 37 37 37 38 38 38 39 39 39 39 39 39 39 39 39 39 38 39 39 41 40 37 37 37 38 38 38 38 37 38 41 44 44 44 45 44 44 44 43 45
37 37 36 36 36 37 37 37 38 38 38 38 37 37 37 37 37 37 36 36 37 37 39 39 37 37 37 36 36 37 36 37 37 39 40 40 40 41 41 41 41 41 41
36 36 37 36 36 36 36 37 37 37 37 36 37 37 37 36 36 36 36 36 36 36 36 37 36 36 36 35 35 34 34 33 31 28 29 32 33 34 34 34 34 34 34
37 37 37 37 37 36 35 35 35 35 34 33 33 32 34 36 36 36 34 33 32 31 33 34 33 32 30 29 29 28 28 27 26 26 25 25 25 25 26 26 26 27 29
36 36 37 37 37 37 37 37 32 29 27 28 29 29 30 28 29 31 31 31 31 30 29 30 29 25 24 24 25 25 26 24 24 25 23 22 24 22 22 22 25 28 29
33 33 33 33 33 33 33 31 29 26 26 26 27 30 29 29 27 25 27 29 29 30 29 25 22 23 23 24 26 27 25 24 23 23 24 21 22 19 22 23 28 29 31
31 30 30 30 31 31 29 28 28 26 27 26 27 26 26 27 28 25 24 24 24 25 28 25 26 26 26 26 26 28 27 25 24 24 24 22 22 21 23 24 28 30 31
28 28 28 28 30 30 28 26 23 21 21 21 21 25 26 26 28 29 24 24 18 19 24 27 27 26 26 26 26 27 26 25 21 20 23 23 23 23 24 23 23 29 31
28 28 28 28 30 28 30 28 23 19 19 19 21 21 27 27 26 25 23 20 17 19 23 23 19 17 19 22 26 26 26 25 24 23 24 25 24 24 25 23 26 24 24

GFSMA_sfc_dewp_075.txt.gz
Dewpoint
58 57 55 54 54 54 56 57 58 56 55 54 54 55 54 54 53 54 55 61 62 62 64 65 64 64 64 62 60 59 57 56 56 55 55 55 55 55 55 55 56 54 56
60 59 58 55 54 55 57 58 58 58 58 58 57 57 57 57 57 57 57 57 62 62 63 64 65 64 63 64 63 61 59 57 57 56 56 56 56 56 56 55 55 55 54
62 61 60 60 56 57 58 58 58 59 59 59 59 59 58 58 58 58 59 60 59 61 62 62 63 64 64 63 62 63 61 60 59 58 57 56 56 56 56 55 55 54 54
63 63 62 62 62 60 60 60 60 60 60 59 59 59 59 59 59 59 60 60 61 58 61 62 62 62 63 64 63 63 63 62 60 59 58 57 56 56 56 56 55 55 54
63 63 62 62 61 62 62 61 61 61 61 60 59 60 60 60 60 59 59 60 60 61 60 61 62 62 63 64 64 63 63 63 62 61 60 58 57 56 56 55 56 55 55
64 64 63 62 62 62 62 62 62 62 62 62 60 59 60 60 60 60 59 57 57 59 60 60 60 59 60 61 62 63 63 62 63 62 61 60 58 57 57 56 56 55 55
64 64 63 63 63 63 63 63 63 62 62 63 62 61 61 61 59 59 58 56 57 58 57 56 57 57 57 62 62 62 62 63 62 62 62 61 60 59 58 57 56 56 55
65 64 64 64 64 65 64 63 63 63 63 63 61 61 57 55 53 56 57 55 55 55 54 54 53 54 55 56 57 58 59 60 62 62 62 62 62 61 60 59 58 56 56
60 61 62 63 65 65 64 64 64 63 62 62 62 60 56 52 53 56 55 55 54 54 54 54 53 53 53 54 56 55 56 56 57 59 60 61 61 62 63 61 59 57 56
52 52 53 55 56 59 61 62 62 63 62 60 61 61 61 59 56 52 54 55 54 53 54 55 53 53 52 53 54 52 52 53 55 57 57 58 59 60 61 62 62 59 56
50 51 51 52 52 54 55 56 57 57 58 58 57 58 59 59 59 56 54 54 56 55 54 52 52 51 50 50 49 49 50 51 53 55 56 58 59 59 59 60 61 61 59
51 50 50 50 51 52 53 55 56 56 56 56 58 58 57 57 56 55 54 54 54 54 54 52 50 48 48 48 48 48 50 51 52 53 55 56 56 57 58 60 60 61 59
49 48 48 48 48 49 49 51 54 55 55 57 58 58 57 57 58 56 54 54 53 54 52 49 48 48 47 48 47 48 49 49 50 52 54 54 54 53 54 56 58 58 60
45 45 45 46 45 46 47 48 52 54 55 55 55 55 55 53 54 55 55 53 51 50 51 50 46 46 46 46 45 47 46 47 48 51 51 50 52 52 53 57 57 56 60
41 41 43 43 44 44 45 46 49 51 53 52 52 52 51 50 50 51 52 53 51 47 46 47 47 44 44 45 44 44 44 46 47 50 51 51 51 51 52 53 57 57 56
40 41 41 41 42 42 43 45 47 49 49 49 49 48 49 48 49 49 49 50 49 49 46 46 43 41 42 43 43 42 42 43 45 47 48 50 49 48 49 53 54 54 53
40 40 40 40 40 40 41 43 44 45 46 46 46 45 45 46 46 46 47 46 46 46 45 42 42 41 42 42 41 41 42 42 42 44 46 46 47 47 48 48 49 50 52
40 39 39 39 39 39 40 41 42 42 43 43 43 43 42 42 43 43 43 42 42 43 44 44 41 41 40 40 40 39 38 38 39 39 41 42 43 45 45 45 46 46 47
39 38 38 38 38 39 40 40 40 40 40 39 40 39 39 40 40 40 41 41 42 41 42 41 40 40 39 38 38 38 37 37 34 31 33 36 39 40 41 42 43 43 43
38 38 38 37 38 38 39 39 39 39 39 39 39 38 38 38 38 40 39 38 38 40 40 39 38 36 37 36 36 34 35 34 32 28 29 29 30 31 34 35 35 35 36
38 38 37 37 37 38 37 38 38 38 38 36 36 35 36 35 35 35 34 34 33 34 36 38 37 35 32 30 28 28 28 28 30 28 27 28 27 29 29 27 27 28 30
38 38 37 37 38 37 38 37 37 36 35 35 34 33 30 28 30 31 31 32 31 31 30 32 32 25 24 24 25 27 28 26 28 28 25 24 25 24 24 24 28 29 30
37 38 37 37 37 35 34 33 33 34 34 34 34 32 29 27 27 24 25 26 31 30 29 28 25 24 23 26 29 29 28 27 25 24 23 22 22 21 24 21 27 30 31
37 37 36 34 33 30 29 29 30 34 34 33 31 27 27 27 30 27 25 24 23 26 29 25 28 28 27 28 28 28 28 26 26 24 24 25 25 24 26 26 27 30 30
35 35 34 34 34 30 28 27 22 24 23 24 25 25 25 25 28 29 26 25 18 21 24 26 25 24 24 25 26 27 28 27 25 21 25 25 27 26 27 26 26 27 29
34 34 34 34 30 28 27 26 23 20 18 19 20 21 27 28 27 27 27 22 18 21 23 24 21 21 21 23 24 24 27 25 26 27 26 26 26 25 24 27 28 28 27

GFSMA_sfc_dewp_078.txt.gz
Dewpoint
58 57 55 55 56 55 55 58 58 57 55 54 54 54 54 54 53 54 54 61 62 63 62 63 64 64 65 64 62 60 58 56 56 55 55 55 55 55 55 56 56 55 56
59 58 58 56 54 55 56 58 58 58 58 58 57 57 57 57 57 56 56 57 62 63 63 62 63 64 64 64 65 63 61 60 58 57 56 55 56 56 55 56 55 55 54
62 59 59 58 55 56 56 58 58 59 59 59 59 59 59 58 58 58 58 59 60 61 63 62 62 63 64 64 64 64 63 61 60 59 58 57 57 56 56 55 55 54 55
63 63 62 62 62 59 60 60 60 60 60 60 59 59 59 59 59 59 59 59 60 58 61 63 64 63 63 63 64 64 63 64 62 61 60 59 58 56 56 56 55 55 55
63 63 62 62 62 62 62 61 61 61 61 60 60 60 60 60 60 60 59 59 59 60 60 62 62 62 63 62 63 64 64 64 64 62 61 60 59 58 57 56 56 56 55
64 64 63 63 62 62 62 62 62 62 61 62 61 60 61 60 60 60 59 59 58 57 58 57 59 59 61 62 62 62 62 63 64 63 63 62 60 59 58 57 57 56 55
64 64 64 63 63 62 62 63 62 62 61 62 61 60 60 61 60 60 59 58 56 56 55 54 55 55 55 61 62 61 61 61 62 62 62 62 62 61 59 59 58 57 56
65 65 65 65 65 65 65 64 64 63 63 62 61 60 55 55 55 55 57 55 54 53 53 51 52 52 53 54 56 57 57 58 58 59 60 61 61 62 62 60 59 59 57
59 59 60 62 63 64 63 63 63 62 61 62 62 60 55 51 54 54 54 54 53 53 52 52 51 52 51 53 51 51 53 54 56 58 58 58 58 60 61 62 62 62 59
52 52 53 53 53 56 58 61 61 61 59 58 58 60 59 58 53 51 53 54 53 52 53 53 52 51 50 51 49 51 51 53 55 57 57 58 58 58 59 59 60 62 63
51 51 51 51 52 54 54 55 55 56 57 55 55 56 55 57 56 53 50 52 54 54 54 52 49 48 48 47 47 49 51 52 54 55 56 56 57 58 59 59 60 59 61
51 50 50 50 50 51 51 52 54 54 54 54 55 55 55 55 55 55 54 54 53 53 53 49 48 47 48 48 47 49 50 50 52 54 56 54 55 54 55 56 57 58 60
49 47 48 47 47 47 48 49 51 53 54 54 55 55 56 56 56 56 53 52 53 53 51 47 47 47 46 46 45 48 47 48 49 52 53 52 52 52 54 55 57 56 58
45 44 44 45 45 45 46 47 49 51 53 54 53 53 53 52 53 54 54 53 50 50 49 45 45 45 45 45 44 45 44 46 48 53 52 52 51 51 52 55 57 57 57
41 41 42 43 43 44 45 46 47 49 50 52 52 51 50 50 50 51 51 52 51 47 44 43 43 42 42 44 44 44 44 46 47 49 50 50 49 49 52 54 54 56 56
40 41 41 41 41 42 43 44 46 48 48 49 48 48 47 48 48 48 48 48 48 47 44 42 42 39 41 43 43 42 42 43 45 47 48 48 48 48 48 51 53 53 54
40 40 39 39 40 40 41 42 43 44 45 46 45 44 45 46 46 45 46 46 45 45 43 40 41 40 40 41 40 41 41 39 40 42 44 45 46 47 47 47 49 50 52
39 39 39 38 39 39 40 40 41 42 42 42 42 42 42 43 41 42 41 40 39 39 42 41 40 39 38 39 39 39 38 38 36 35 39 42 43 44 45 44 46 47 47
38 38 38 38 38 39 39 40 40 40 39 39 39 39 39 39 38 38 38 40 41 41 41 41 38 39 39 37 34 35 36 35 32 33 32 34 36 39 41 41 42 42 42
38 38 38 38 38 38 39 39 39 39 39 39 39 38 37 37 37 36 36 35 35 36 36 38 37 36 36 34 33 29 28 29 29 26 29 30 31 32 32 34 34 35 36
38 38 38 38 38 38 37 38 39 39 38 36 35 34 35 35 35 35 32 31 31 30 30 30 30 30 27 25 24 26 25 25 27 26 25 24 25 25 27 31 31 31 32
38 38 38 38 39 37 38 38 38 36 35 34 32 30 29 30 30 30 31 32 31 28 27 25 23 21 21 22 26 26 23 24 21 25 21 21 22 20 22 23 27 30 31
38 38 38 37 37 36 36 36 36 33 31 31 30 29 28 27 27 25 25 28 30 30 28 25 23 22 23 25 25 25 25 23 22 23 22 20 22 23 25 25 29 30 30
37 37 37 36 33 32 32 33 32 30 30 29 28 27 27 29 29 27 24 23 21 27 28 27 26 26 26 27 26 26 24 24 25 24 23 19 25 24 25 26 29 29 33
36 35 33 31 29 29 29 28 26 26 24 24 25 27 26 27 30 28 26 24 17 21 25 25 24 23 22 22 24 25 23 22 21 22 25 23 24 23 25 26 26 29 29
34 34 33 31 32 28 29 26 23 21 19 19 19 25 27 28 28 27 26 22 17 20 22 22 19 23 21 22 24 22 23 15 18 20 24 19 21 22 17 25 26 26 27

GFSMA_sfc_dewp_081.txt.gz
Dewpoint
57 57 60 62 62 61 61 62 61 60 57 55 55 55 54 54 53 53 54 62 63 64 62 61 63 64 64 65 64 62 60 59 57 56 55 55 55 56 56 57 56 56 56
58 58 56 55 54 54 54 56 58 58 57 58 57 57 56 56 56 56 56 57 62 63 64 62 62 62 64 64 65 65 63 61 59 58 57 56 56 56 56 56 56 56 55
60 58 58 58 54 55 55 57 58 58 58 59 59 59 59 58 58 58 58 57 59 62 63 63 63 63 63 64 65 64 64 63 62 60 59 58 57 57 56 56 55 55 55
62 60 60 61 59 56 58 59 59 59 59 59 59 59 59 60 59 59 59 59 60 59 61 64 65 64 63 63 63 64 64 64 64 62 61 60 59 58 57 56 56 56 55
63 63 62 62 62 62 60 60 60 61 60 60 60 60 60 60 60 60 59 59 59 60 59 61 62 62 63 62 62 63 63 63 63 63 63 62 60 59 58 57 57 57 55
62 63 63 62 62 61 62 62 61 62 61 61 61 61 61 61 60 60 60 59 59 58 58 58 59 58 60 62 62 62 62 62 62 63 62 62 62 61 60 59 58 56 56
64 64 64 63 64 63 62 63 63 62 61 61 61 60 60 60 60 60 60 59 58 56 54 54 53 53 55 59 59 59 59 59 59 59 60 62 62 62 62 60 59 58 57
64 64 64 65 65 64 64 64 64 63 62 62 60 59 56 55 55 55 56 57 54 53 52 52 52 52 54 55 54 55 56 57 58 59 58 58 59 60 61 62 61 60 59
58 58 59 61 62 63 63 63 63 62 61 61 62 59 55 51 53 54 54 54 53 52 52 52 52 52 52 50 50 51 54 55 56 58 58 57 58 58 58 59 61 62 61
52 52 53 53 53 54 54 56 57 58 57 57 57 59 57 58 55 52 53 54 53 53 52 52 50 50 48 47 50 52 52 53 55 56 57 56 57 58 59 59 59 60 60
51 51 51 51 52 53 53 54 54 55 55 54 54 53 53 53 54 54 50 51 54 53 51 49 48 48 47 47 48 50 51 51 53 54 56 56 56 56 56 56 56 58 59
50 49 50 49 49 50 49 50 51 52 53 53 53 53 53 52 52 52 51 51 51 53 49 49 47 48 47 46 48 49 48 50 51 53 54 54 54 53 54 54 55 56 57
49 47 47 46 46 46 47 48 48 50 52 52 52 53 56 55 54 54 53 51 53 53 48 46 46 46 45 44 46 46 47 48 50 54 56 55 53 52 53 54 56 57 57
45 44 44 45 45 45 45 46 47 49 51 52 52 52 53 51 52 54 54 53 50 51 48 45 43 43 44 44 45 45 45 46 49 51 52 50 49 50 54 54 54 55 57
41 42 42 42 43 43 44 44 46 48 48 50 50 51 51 50 50 51 50 52 51 47 47 43 42 41 42 43 43 43 43 45 47 49 49 48 48 49 50 53 54 54 56
41 41 41 41 41 41 42 42 45 46 46 47 47 48 48 48 48 48 48 48 47 48 45 43 41 40 42 43 42 42 41 43 44 45 46 47 47 48 47 49 51 53 54
40 40 39 39 39 40 40 41 42 43 44 45 46 45 44 45 45 44 44 45 45 45 44 41 41 40 39 38 39 40 40 39 39 40 43 45 45 46 46 46 47 49 50
39 39 38 39 39 39 40 40 41 41 41 41 42 43 42 42 41 42 42 41 41 39 43 41 40 39 39 39 39 37 38 38 33 34 37 39 42 43 44 44 44 45 46
39 38 38 38 38 39 39 39 39 39 38 38 39 39 39 38 37 36 37 38 38 40 40 40 38 39 39 36 34 34 35 33 30 32 32 34 35 37 39 40 40 41 42
38 38 38 38 38 38 38 39 39 38 38 38 37 36 36 36 36 35 34 33 34 36 36 38 37 37 35 33 32 26 26 27 27 25 27 30 32 33 32 33 34 35 36
38 38 37 37 38 38 38 39 39 39 37 36 35 35 36 36 36 35 31 30 30 30 30 30 30 30 26 24 24 25 24 24 25 24 22 21 24 23 27 30 30 31 31
37 37 37 38 38 37 38 39 39 37 35 33 31 30 30 31 30 32 32 32 30 27 25 26 23 22 21 23 25 25 23 23 21 25 21 21 21 22 23 23 30 31 31
36 37 38 38 38 37 37 38 38 35 33 31 29 28 27 27 27 25 28 30 30 31 30 25 22 22 24 25 25 24 24 22 22 23 21 19 24 23 25 26 30 32 32
35 36 38 37 35 34 36 36 35 30 28 29 30 29 29 28 28 25 23 22 25 26 27 26 26 26 27 26 26 26 23 23 24 24 23 19 24 25 25 26 29 30 31
34 35 35 33 31 30 32 31 28 26 27 25 26 26 28 29 30 28 26 23 18 22 25 26 25 23 22 23 26 24 23 21 21 22 24 23 23 22 24 26 26 31 31
32 34 33 32 30 28 30 27 26 22 21 21 24 25 30 28 29 28 26 19 19 20 22 21 18 23 21 23 26 23 24 14 16 18 24 18 20 20 17 23 24 24 25

GFSMA_sfc_dewp_084.txt.gz
Dewpoint
63 62 62 62 61 62 62 61 62 61 61 61 57 56 55 54 54 53 53 61 64 65 63 62 62 63 65 65 65 63 61 60 58 57 56 55 55 56 56 56 55 56 56
59 58 57 60 61 59 61 57 61 59 57 57 56 56 55 55 55 55 55 55 62 64 65 63 62 63 63 65 65 65 64 62 61 60 58 57 57 56 56 56 56 56 55
58 58 57 56 54 54 53 56 57 58 58 58 58 59 59 59 58 58 57 57 58 62 64 63 64 64 64 64 64 64 64 64 64 62 61 59 58 58 57 57 56 55 55
60 59 59 60 57 54 56 57 58 58 59 59 59 59 59 60 60 59 59 59 59 59 61 64 65 64 63 63 63 63 63 63 64 64 62 61 60 59 58 58 57 56 56
62 61 60 61 61 60 58 59 59 60 60 60 60 60 60 61 60 60 60 59 59 60 60 60 62 62 62 61 62 62 62 62 63 62 63 63 62 61 60 58 58 57 56
62 63 62 62 62 61 62 61 61 61 61 61 61 61 61 61 61 60 60 60 59 59 59 60 58 58 61 62 62 61 61 60 60 60 61 62 62 63 61 60 59 58 57
63 62 63 62 63 62 62 62 63 62 62 62 61 59 59 59 59 59 59 59 59 57 56 55 53 55 58 59 59 58 59 59 59 59 59 59 59 61 62 62 61 59 58
65 64 63 64 64 64 64 64 63 62 62 62 58 58 54 54 54 54 55 56 56 54 52 52 52 53 54 53 54 55 56 57 58 58 57 58 58 58 59 60 62 62 60
61 61 61 61 61 62 61 60 61 61 59 59 59 57 53 51 53 54 53 53 52 52 52 52 52 51 49 50 51 53 54 55 56 56 57 56 56 57 58 59 59 60 61
55 54 54 53 53 54 54 55 56 57 57 56 56 57 56 58 53 50 53 53 53 52 52 51 50 48 47 50 51 53 53 53 54 55 55 56 56 57 58 57 57 59 60
51 51 51 52 52 52 52 53 53 53 54 54 53 52 51 51 52 51 50 51 52 51 49 48 48 47 47 49 49 49 50 52 53 54 54 56 56 56 55 56 55 55 56
50 50 50 49 49 49 49 49 50 50 52 52 52 52 51 50 50 50 52 51 49 49 48 48 48 48 46 47 48 48 49 50 52 54 54 56 55 54 54 53 56 57 57
49 47 47 47 46 46 46 47 47 48 49 51 51 51 52 53 53 52 51 50 52 50 46 46 46 45 44 44 45 46 47 49 50 52 53 53 52 52 55 55 55 55 56
47 45 45 45 45 44 45 45 46 47 49 50 50 50 50 50 52 53 52 52 49 50 49 44 43 43 44 43 45 44 44 46 49 50 51 49 48 50 52 53 54 56 56
43 43 43 43 43 43 43 44 45 46 47 48 48 48 48 51 51 51 51 50 51 47 48 44 42 41 41 42 43 42 42 46 47 47 48 48 48 49 49 50 51 53 55
41 41 41 41 41 41 41 42 43 45 45 46 46 46 46 48 48 48 48 48 48 49 45 44 41 41 43 42 42 41 41 42 43 45 46 46 47 48 46 47 49 50 52
40 40 40 40 40 40 40 40 41 42 43 44 44 43 44 45 45 43 43 45 44 46 45 41 41 41 39 39 39 40 39 38 36 41 42 43 45 46 46 45 45 47 49
40 39 39 39 39 39 39 39 39 40 41 41 42 43 43 42 42 42 42 42 42 42 44 40 40 39 39 39 39 36 37 34 31 34 35 37 40 41 42 43 43 44 45
39 38 38 38 38 39 39 38 39 39 38 38 38 40 40 39 39 39 39 40 39 40 41 40 38 39 39 36 34 32 30 29 27 30 33 34 35 35 36 38 39 39 40
38 38 37 38 38 38 38 38 38 37 37 37 37 36 37 36 36 35 34 34 36 37 37 39 38 37 36 33 29 26 25 26 24 23 26 28 31 34 34 33 32 33 35
38 38 37 37 37 38 38 38 39 39 38 36 36 35 35 36 36 34 31 30 32 32 33 31 30 31 27 25 24 25 23 24 24 23 21 22 22 22 25 28 31 32 32
36 36 36 37 37 37 39 40 40 38 36 35 33 31 31 31 31 32 32 32 30 28 28 29 24 25 22 24 24 25 24 23 22 24 21 20 23 24 25 27 31 33 32
35 36 36 38 38 38 39 39 40 36 34 33 30 27 27 27 27 26 30 32 32 32 28 24 22 22 23 25 26 25 24 23 22 23 21 18 25 24 25 26 31 33 33
34 35 35 37 37 35 38 39 38 34 33 31 27 27 27 26 26 24 22 25 25 26 27 26 26 26 26 26 26 26 24 24 24 24 23 19 24 24 25 26 32 31 31
33 33 34 36 34 33 36 37 32 27 27 27 25 26 29 29 29 29 24 22 21 24 26 28 27 27 28 28 27 25 24 21 22 23 24 23 22 22 23 25 26 29 31
33 32 34 34 33 30 33 32 27 24 23 24 25 27 31 29 30 29 25 19 18 20 23 21 20 23 22 24 26 23 24 16 18 21 24 19 20 19 16 22 24 24 25

GFSMA_sfc_dewp_087.txt.gz
Dewpoint
62 62 62 61 61 61 61 60 61 61 60 60 61 58 56 55 54 54 53 58 64 65 64 63 63 63 65 66 65 65 63 61 60 58 57 56 55 55 56 56 55 56 56
63 62 61 61 61 61 61 60 59 61 60 57 56 55 55 55 55 55 55 55 59 64 65 63 63 64 64 64 64 64 64 64 63 61 60 58 57 57 56 57 56 56 55
61 61 59 57 60 59 56 56 56 58 58 58 58 58 59 59 59 58 58 58 58 61 63 64 64 64 64 63 63 63 63 63 63 64 62 60 59 58 58 57 57 56 55
59 58 57 57 56 54 54 55 57 57 58 58 59 59 59 60 60 60 59 59 59 59 61 63 65 64 61 62 62 62 63 63 64 63 63 63 61 60 59 59 58 57 56
60 59 59 59 60 57 56 57 58 59 59 60 60 60 60 60 60 60 60 60 60 60 60 61 62 62 62 61 62 63 62 61 61 61 62 63 63 62 61 60 59 59 58
62 61 61 60 61 61 61 61 60 61 60 61 61 61 61 61 61 61 60 60 60 59 58 60 58 60 62 62 62 61 60 60 60 59 59 60 60 61 62 62 61 60 59
62 62 62 62 62 61 61 62 62 62 62 62 60 57 57 58 58 58 56 56 57 59 58 57 56 59 60 60 59 59 58 58 58 58 58 58 58 59 59 60 62 61 60
63 63 63 63 63 63 64 63 62 62 61 60 57 56 53 54 54 54 54 53 54 54 53 53 53 54 53 54 55 56 56 56 57 57 56 56 57 57 58 60 59 61 63
64 64 63 63 62 62 62 60 59 59 58 57 57 56 53 50 52 54 53 52 52 52 52 52 51 50 50 51 52 53 55 55 55 56 55 57 55 56 58 58 59 59 60
60 60 59 58 57 56 55 55 55 56 57 56 55 56 55 56 53 48 52 53 53 52 51 51 48 47 49 50 51 52 52 53 54 54 54 54 56 56 57 57 56 56 57
57 57 56 55 54 54 53 53 52 52 53 53 53 52 50 50 51 52 49 49 51 48 48 48 47 47 48 49 48 50 51 52 53 54 54 56 56 56 56 54 54 56 57
55 55 54 52 50 50 49 49 49 49 50 51 51 51 51 49 48 48 49 49 48 48 48 48 48 46 47 48 47 48 49 51 52 53 55 55 54 55 57 56 56 56 55
51 49 48 47 46 46 46 47 47 47 48 49 50 50 50 51 52 51 50 49 49 48 46 45 46 45 45 45 46 46 48 49 51 52 53 52 51 52 54 55 55 56 56
50 47 46 45 45 45 45 45 45 46 47 48 48 49 49 49 50 51 51 51 50 49 46 44 43 44 44 45 45 45 44 47 48 48 49 49 49 49 51 52 52 54 56
45 44 43 43 43 43 43 43 44 44 46 46 47 48 47 48 48 49 51 51 51 46 48 43 42 42 43 43 43 42 42 46 46 47 47 48 48 48 47 49 50 51 53
42 42 42 42 42 42 41 41 42 43 44 45 46 45 45 46 46 46 48 48 49 49 47 44 41 42 43 42 43 41 41 41 42 44 46 46 47 47 46 46 47 48 51
41 41 41 40 40 39 40 40 40 41 41 42 43 43 43 43 44 45 45 45 45 46 45 41 41 41 39 40 40 40 39 36 35 40 41 42 44 44 45 44 44 46 48
40 40 39 39 39 39 39 39 39 39 40 40 41 42 42 42 42 41 42 43 42 42 44 41 40 39 39 39 39 37 37 31 30 36 37 37 38 40 41 41 41 43 44
39 38 38 38 38 39 38 38 38 38 38 38 38 39 40 40 40 39 40 40 40 41 42 41 38 39 39 36 34 33 28 28 25 29 33 35 35 36 37 35 35 37 40
38 38 38 38 38 37 37 37 38 36 36 36 36 36 37 38 37 37 36 36 37 38 39 40 38 37 36 33 28 28 26 26 24 22 25 29 30 35 33 33 34 34 35
37 37 37 37 37 37 38 37 39 39 38 37 37 36 36 37 37 35 33 31 33 33 34 36 35 33 29 26 25 25 23 24 24 24 21 23 22 24 28 31 33 34 34
36 36 36 36 36 37 38 40 40 39 38 36 34 33 32 32 33 34 32 32 30 30 31 30 27 30 24 24 24 24 25 22 22 24 21 21 24 24 25 28 33 35 32
35 35 35 36 36 37 39 40 41 38 36 35 33 30 27 27 27 28 32 34 33 32 28 26 25 23 23 25 26 25 24 23 22 24 22 18 25 24 25 26 32 33 34
34 34 35 35 35 36 38 39 39 35 34 33 31 27 26 25 24 23 23 27 25 26 27 26 25 25 26 27 27 26 25 24 24 24 24 20 24 23 24 26 33 33 32
33 33 33 33 33 34 37 38 37 32 31 30 28 28 28 27 30 28 23 24 24 24 27 29 29 30 30 29 28 26 25 23 22 22 24 23 23 22 23 25 25 31 32
33 32 33 36 36 33 35 36 33 26 25 24 24 25 32 30 31 30 26 19 19 21 24 23 24 23 24 25 28 23 25 18 18 21 25 20 21 21 18 23 24 24 23

GFSMA_sfc_dewp_090.txt.gz
Dewpoint
62 62 62 61 60 60 60 59 60 60 60 60 60 59 58 56 55 54 54 58 59 65 65 64 63 64 65 65 64 65 64 63 62 60 58 57 56 55 56 56 56 56 56
63 62 62 61 60 60 60 60 59 59 60 58 56 56 55 55 55 56 56 56 60 61 64 64 63 64 64 64 63 63 63 63 64 64 62 60 58 57 57 57 57 56 55
63 63 62 61 61 61 60 58 57 58 58 58 58 58 59 59 59 59 59 59 59 60 62 64 64 64 64 62 63 63 64 64 64 64 64 62 61 59 59 58 58 57 56
62 61 61 59 57 57 56 54 55 57 57 58 58 59 59 59 60 60 60 59 59 60 61 63 64 65 62 62 62 63 63 61 61 62 63 63 63 62 61 60 59 58 57
60 60 59 58 57 55 54 55 56 58 59 59 60 60 61 60 61 60 60 60 60 60 60 61 62 62 63 62 62 62 61 60 60 60 60 60 61 62 63 62 61 60 59
60 59 59 59 60 59 58 58 58 59 60 60 61 61 61 60 60 59 59 59 59 59 59 58 59 60 62 63 62 60 59 58 58 58 58 59 59 59 60 61 62 61 60
61 60 60 60 61 61 61 61 61 60 61 61 59 57 56 57 56 56 55 55 56 57 57 57 58 58 58 60 59 58 57 57 57 57 55 56 56 57 58 60 60 61 62
64 63 62 62 62 61 61 63 63 60 59 59 56 54 51 53 53 54 54 53 53 54 53 54 54 53 53 54 55 56 57 57 57 57 56 56 56 56 56 58 60 60 60
65 64 63 63 62 62 62 60 59 59 57 56 56 56 53 50 51 53 52 52 52 52 52 52 50 50 51 52 52 53 54 55 55 55 55 54 55 56 57 57 57 58 58
61 62 63 62 60 59 59 58 57 56 56 55 54 54 54 56 52 48 51 52 50 50 50 49 48 49 50 50 51 52 53 54 54 54 54 54 56 56 56 57 56 56 56
59 59 59 58 57 57 56 56 54 53 53 52 52 51 50 49 49 52 48 48 49 48 48 47 47 48 49 49 48 50 52 53 53 54 56 57 56 56 57 54 55 56 56
56 56 55 55 53 51 50 49 50 50 51 50 50 50 50 49 47 47 49 49 47 47 47 48 48 47 48 47 48 49 50 51 52 52 52 54 54 54 55 57 56 56 56
53 50 49 48 47 47 47 47 46 46 47 47 48 49 50 50 51 51 50 48 47 47 45 45 46 45 45 46 46 46 48 49 49 50 51 52 51 51 53 54 54 55 55
52 49 47 46 46 45 45 45 45 45 46 47 47 48 49 49 49 50 49 49 46 48 46 45 44 44 44 45 45 45 45 48 48 48 49 49 49 48 49 50 51 53 54
49 47 45 44 44 43 43 43 43 44 45 46 46 47 49 47 47 48 48 49 48 45 47 43 43 43 43 44 43 42 42 45 46 46 47 47 48 47 47 48 49 49 52
45 44 42 42 42 42 42 42 42 43 43 43 45 45 45 45 45 45 45 46 49 48 46 44 42 42 42 43 43 41 41 39 43 44 45 46 46 46 46 45 46 47 50
42 41 42 41 41 40 40 40 40 40 41 42 42 43 42 42 43 43 43 45 46 46 45 41 41 41 41 40 41 40 38 35 34 39 40 42 43 43 43 43 43 44 46
40 40 40 39 39 39 39 39 39 40 40 40 40 42 42 42 42 42 42 42 43 43 44 42 40 39 39 40 39 38 34 27 29 36 37 38 38 39 38 38 39 41 43
39 39 39 38 39 39 38 38 38 38 38 37 37 38 39 40 40 40 40 40 41 41 42 42 39 39 39 37 34 32 29 28 24 29 31 35 37 37 35 35 36 37 40
38 38 38 38 38 37 38 38 37 36 36 36 36 36 37 38 38 38 37 37 38 39 39 41 39 38 37 33 30 30 27 26 24 22 24 29 31 32 34 35 35 35 36
38 38 37 37 37 37 37 37 38 37 38 38 37 36 37 37 37 37 34 33 34 36 37 37 36 34 32 29 28 26 25 24 24 24 21 24 24 26 29 33 34 34 35
36 36 36 36 36 37 39 39 40 39 39 37 35 33 32 32 34 34 32 32 31 32 32 30 33 32 28 25 24 24 24 22 22 25 21 22 25 24 25 28 34 35 36
35 35 35 35 35 36 39 40 40 40 37 36 35 33 28 28 28 30 34 33 32 32 30 30 29 27 25 25 26 25 24 23 22 24 22 18 24 24 25 27 33 33 34
34 34 34 34 34 36 38 39 40 36 35 34 33 30 26 24 24 24 24 24 24 26 27 25 24 24 25 26 26 26 25 24 24 25 24 21 23 22 24 26 32 32 32
33 33 33 33 33 33 37 39 38 34 34 32 30 27 27 25 28 28 22 23 24 25 28 30 31 31 31 30 29 27 26 25 23 22 25 24 23 22 23 25 25 32 31
33 33 32 33 35 33 36 37 36 31 30 29 25 25 31 29 32 31 22 20 20 23 24 23 24 23 27 27 29 23 26 21 22 22 25 22 22 21 19 23 24 25 23

GFSMA_sfc_dewp_093.txt.gz
Dewpoint
63 63 63 63 63 63 63 61 61 62 62 61 60 60 59 57 56 57 57 58 59 61 64 65 64 65 65 65 63 63 64 64 63 63 60 59 57 56 56 56 56 56 56
63 63 64 63 63 62 62 62 61 61 61 61 58 58 58 57 58 58 59 59 60 61 62 64 64 64 64 63 62 63 63 63 64 64 64 62 60 58 58 57 57 56 55
64 64 64 63 63 62 61 61 61 59 59 59 59 59 59 59 60 60 60 60 61 61 62 63 65 65 64 62 63 64 64 63 62 63 64 64 62 61 60 59 58 58 57
64 64 63 63 63 62 61 60 56 57 58 59 58 59 60 60 60 60 61 60 61 60 62 63 64 64 64 63 63 64 62 61 60 60 61 62 62 63 62 61 60 59 58
64 63 63 63 61 58 58 56 55 57 58 60 60 61 62 61 61 60 59 60 61 61 61 62 62 63 64 64 63 63 61 59 59 59 59 59 60 60 62 63 62 61 60
63 62 61 61 59 57 56 56 56 58 60 60 60 61 62 61 59 58 58 58 58 59 60 61 61 61 62 64 63 61 59 58 58 57 56 57 57 58 60 60 61 62 61
61 61 61 60 60 59 59 58 60 60 61 63 62 59 58 58 57 56 56 55 57 58 60 60 60 61 60 61 60 58 58 57 57 57 56 56 55 56 57 57 61 60 62
63 62 61 61 60 61 62 62 62 62 61 61 59 58 55 54 55 55 55 54 54 56 56 57 57 56 56 55 56 57 57 57 56 56 56 55 56 54 57 58 58 59 60
65 65 64 64 64 64 63 63 62 61 61 60 60 59 54 52 54 55 54 53 53 53 54 54 53 53 52 52 53 54 54 54 54 54 54 54 54 56 57 57 56 57 57
63 64 64 63 62 61 60 59 59 59 60 59 59 57 58 58 52 50 53 54 51 51 52 51 51 51 51 51 52 53 54 55 54 54 56 58 57 56 57 55 54 55 56
61 62 62 61 60 58 57 57 56 55 56 55 55 55 54 54 55 53 48 51 52 50 50 49 49 49 49 49 49 51 52 53 52 52 53 54 56 55 56 58 56 56 56
58 58 58 59 58 56 55 54 53 53 53 53 53 53 53 51 50 51 50 50 51 51 50 49 49 49 49 48 49 50 50 51 52 53 53 54 52 53 54 55 55 55 55
55 54 54 54 52 51 51 50 49 49 49 50 50 51 52 52 52 51 50 48 48 50 48 48 48 47 46 47 47 47 49 49 50 50 51 52 50 50 51 52 53 54 54
55 54 52 50 48 47 47 47 47 47 48 49 49 50 51 52 52 52 50 48 46 47 49 49 46 46 46 46 46 45 46 48 48 47 48 49 48 47 49 50 50 52 53
54 50 47 46 46 46 45 45 45 45 46 48 49 50 51 50 50 50 51 49 46 42 44 47 45 45 45 44 44 43 44 45 46 46 47 48 48 47 47 47 48 49 51
48 46 45 44 43 43 43 43 43 44 44 45 47 47 48 48 48 48 49 49 49 47 44 46 44 44 44 43 43 41 42 41 44 44 44 45 45 45 45 44 45 47 48
44 43 42 42 42 41 41 41 41 42 42 43 44 45 46 45 45 45 46 46 47 48 46 43 42 42 42 42 41 40 37 37 38 40 41 42 42 43 42 40 42 44 46
42 42 41 40 40 40 40 40 40 41 41 41 42 44 44 43 44 43 43 43 44 45 45 44 41 41 40 41 40 38 30 27 32 38 39 39 38 39 37 38 38 41 43
40 40 40 39 39 40 39 39 39 39 40 40 40 41 41 41 41 41 41 41 42 42 43 44 41 40 39 38 36 34 31 28 23 29 32 35 38 36 35 36 37 37 40
39 39 39 39 39 38 38 39 39 39 38 38 39 39 39 39 39 40 39 39 39 40 41 42 40 39 38 35 33 32 29 27 26 22 24 29 31 33 35 36 36 35 37
39 38 38 38 38 38 38 39 39 39 39 38 38 37 37 38 37 38 36 36 35 37 38 40 38 36 34 32 31 29 30 27 26 25 22 24 25 27 31 34 34 34 35
38 38 38 38 38 38 41 41 40 39 39 39 37 35 35 34 36 34 33 33 32 34 35 36 36 35 32 30 28 27 27 24 23 26 22 23 25 25 27 33 34 34 35
38 38 38 38 38 38 40 41 41 41 40 39 37 35 30 29 31 33 34 31 30 32 31 33 34 33 31 30 29 28 28 26 22 24 23 19 24 24 26 29 32 33 34
38 37 37 37 38 37 40 40 41 40 38 38 36 34 29 26 25 27 26 25 24 27 27 24 27 28 27 28 28 30 28 25 25 25 24 24 23 22 25 28 32 33 32
36 37 37 37 37 37 39 39 39 36 36 35 32 29 27 25 26 29 24 24 24 26 29 32 31 31 31 30 28 26 26 26 23 22 25 25 24 23 24 27 25 32 31
36 36 36 36 37 36 38 39 38 35 34 33 30 28 32 27 31 32 23 21 20 24 25 26 24 27 28 30 28 24 28 28 26 25 26 26 24 24 26 26 26 26 25

GFSMA_sfc_dewp_096.txt.gz
Dewpoint
57 58 57 58 58 59 58 57 58 58 58 58 58 57 57 57 57 57 58 59 60 61 62 65 65 65 65 65 63 64 65 64 64 64 63 61 59 57 57 57 56 56 55
59 60 60 61 60 60 59 59 59 60 59 59 58 58 58 58 58 59 59 59 61 62 63 64 65 65 65 64 63 63 63 63 63 63 64 64 62 60 59 58 58 57 55
62 62 63 63 61 60 59 59 59 58 58 59 58 59 59 58 59 57 58 58 60 62 62 64 65 66 66 63 63 64 64 62 60 61 62 64 64 63 61 60 60 59 58
64 64 64 63 61 61 60 58 57 56 56 58 58 58 59 59 58 57 57 56 57 57 61 63 64 64 65 64 64 64 62 60 59 60 60 61 61 62 63 63 62 61 60
65 64 63 63 62 61 60 59 56 55 56 59 60 60 59 58 57 57 57 57 58 59 58 62 62 62 63 65 64 63 61 59 58 58 58 58 59 60 60 61 62 62 61
66 65 63 62 62 60 57 57 55 56 59 60 58 57 58 57 56 55 56 55 56 58 58 59 60 60 62 64 64 62 59 58 57 57 56 56 56 57 58 59 60 61 62
63 64 63 62 61 59 58 57 57 59 59 60 59 56 56 56 56 56 56 55 56 57 58 59 59 60 60 61 61 59 57 57 57 57 56 56 57 55 56 57 59 60 61
63 63 63 62 61 60 60 60 61 61 59 61 57 58 52 50 53 55 55 54 55 56 56 58 59 59 59 58 58 58 57 56 55 55 55 55 55 56 55 58 57 58 59
65 65 64 64 64 63 63 64 63 62 61 62 61 57 51 47 52 51 54 54 54 54 55 56 56 55 55 54 54 54 55 55 54 54 56 56 56 57 57 56 55 55 56
65 64 65 64 63 63 63 62 61 61 61 59 61 59 59 55 47 45 51 54 53 52 54 53 54 53 53 52 52 53 54 55 54 54 54 56 56 56 56 58 56 56 56
62 63 64 62 61 60 60 59 58 58 57 55 53 52 50 51 52 50 44 46 51 52 52 52 52 51 51 50 51 52 52 53 53 52 52 54 53 54 55 56 57 56 55
60 60 61 61 60 59 58 58 58 56 54 55 54 53 50 48 47 48 47 48 48 49 51 51 51 51 51 50 49 50 51 51 52 52 53 53 52 52 52 54 54 55 55
58 59 60 60 60 58 57 56 54 53 53 52 53 52 52 51 52 50 50 48 47 47 48 49 50 49 48 48 48 48 50 50 51 51 52 51 49 48 49 52 52 53 53
60 59 59 58 56 55 54 52 51 50 50 51 50 50 50 51 52 51 49 48 47 46 46 47 49 49 48 48 47 46 47 48 47 48 48 48 48 48 48 49 50 51 53
59 57 57 55 51 49 48 48 46 47 47 49 50 50 50 51 51 52 51 51 48 43 42 46 48 47 46 46 45 44 44 47 47 47 47 48 48 47 46 46 47 48 49
56 54 52 49 47 46 45 45 45 45 45 46 47 48 48 49 50 50 50 50 49 47 44 47 47 47 46 43 43 42 41 42 44 44 44 45 45 45 44 43 45 46 47
51 49 46 45 44 43 43 43 43 44 43 44 45 46 47 47 47 47 47 47 47 47 46 46 45 44 44 43 41 39 38 38 40 41 41 41 42 41 40 40 41 43 44
48 45 43 42 41 41 41 41 41 42 42 42 43 44 45 44 45 45 44 44 44 46 46 45 43 42 42 42 41 37 31 30 37 39 38 39 39 38 37 37 38 39 42
45 43 42 41 41 41 40 40 40 40 41 41 42 43 44 44 44 43 43 42 43 43 44 44 44 42 41 39 37 36 31 28 25 30 31 37 38 36 36 36 37 37 39
42 42 41 40 40 40 40 39 40 40 40 40 41 41 41 41 41 42 42 42 41 41 42 42 43 41 39 36 36 34 31 29 28 22 26 29 31 32 34 36 36 35 37
41 41 40 40 39 39 39 40 40 40 40 40 40 39 40 40 38 39 39 40 39 38 39 41 40 38 36 33 34 33 33 31 29 27 24 25 25 26 30 33 34 36 36
40 40 40 40 40 38 41 41 41 40 40 40 40 39 38 37 38 36 34 33 34 37 38 39 39 37 35 34 30 31 34 32 30 27 24 24 25 25 28 33 34 35 36
41 40 40 40 40 39 42 42 42 41 41 41 40 39 35 32 34 35 36 32 31 32 32 36 36 36 34 32 34 34 31 29 25 27 24 21 24 23 28 31 33 33 34
41 41 40 40 40 39 42 42 42 42 42 41 40 38 34 30 29 31 27 27 24 26 27 24 29 34 34 33 33 34 32 27 25 25 25 26 23 22 26 31 33 34 34
41 41 40 40 40 40 41 41 41 40 39 38 37 35 33 28 27 30 25 26 23 25 31 32 31 30 30 29 28 27 27 26 24 23 26 25 24 23 25 27 27 32 32
40 40 39 40 40 39 40 40 40 37 36 36 34 32 33 28 30 32 26 24 21 23 25 29 30 31 30 31 28 26 29 33 28 26 26 29 26 26 29 27 28 28 27

GFSMA_sfc_dewp_099.txt.gz
Dewpoint
57 57 57 57 58 56 55 55 54 53 52 54 56 56 56 56 55 56 58 61 61 62 62 63 65 66 66 66 63 63 63 64 64 64 64 64 62 60 58 58 58 57 56
57 57 56 57 57 58 57 56 55 56 56 56 56 56 56 56 56 57 58 59 63 63 63 64 65 65 65 62 63 63 63 63 63 62 62 64 64 63 61 60 59 58 57
58 59 59 61 60 59 57 59 56 57 56 56 57 57 57 57 57 56 57 58 60 62 64 64 64 65 66 63 64 64 63 62 60 60 61 61 63 63 63 63 61 60 59
61 61 63 62 61 60 60 58 56 56 55 56 57 57 57 58 57 55 56 56 58 57 62 64 65 63 64 65 64 63 62 60 59 59 58 59 60 60 61 62 62 62 61
63 64 63 63 61 61 60 58 56 54 54 57 57 58 60 58 56 54 55 56 57 58 58 62 63 62 62 64 64 63 61 59 58 57 57 57 57 57 58 60 61 62 63
64 64 63 62 62 62 60 58 56 54 56 57 58 56 57 57 58 56 54 53 55 57 58 60 61 61 63 63 64 62 60 58 57 57 56 57 57 56 56 57 58 60 61
64 64 64 63 63 62 60 57 57 56 59 59 59 57 57 56 55 56 56 54 54 56 57 58 59 61 60 61 62 60 59 58 57 56 56 56 56 56 56 56 59 59 60
64 64 64 64 63 63 61 59 59 61 62 61 57 58 54 51 54 54 55 53 53 56 55 56 58 59 61 58 58 58 57 55 55 54 54 55 55 56 57 58 57 57 57
65 65 64 64 65 64 63 64 64 63 62 63 62 56 52 49 51 52 53 52 52 54 55 56 56 57 56 54 55 54 55 56 55 55 57 58 58 57 57 58 58 56 56
65 65 65 64 64 65 63 63 63 63 62 60 61 59 57 53 49 46 52 53 53 51 53 54 54 54 54 54 53 54 55 55 54 54 54 55 56 56 56 56 57 58 57
64 64 64 64 64 62 61 60 59 59 58 55 54 53 51 52 52 50 47 49 52 52 53 53 53 53 52 52 52 52 52 53 53 54 55 55 55 55 54 55 55 56 56
63 63 64 63 62 61 60 59 59 59 58 57 55 54 52 50 49 50 48 47 48 50 52 52 52 52 52 51 49 51 51 52 52 53 53 54 52 51 51 52 55 54 55
60 61 61 61 61 60 60 60 59 58 55 54 54 53 53 53 53 51 49 48 47 48 49 51 51 51 49 50 49 49 50 51 51 51 52 52 49 49 49 49 51 53 54
60 61 61 61 61 61 59 59 57 56 54 54 53 53 52 52 52 51 51 50 48 47 48 48 50 50 49 48 47 46 48 49 48 48 49 49 48 47 47 47 48 50 51
60 60 61 60 60 58 57 56 53 51 49 51 51 52 51 51 52 52 52 51 49 45 44 47 48 47 47 47 45 45 45 47 47 47 48 47 46 46 45 45 46 47 48
59 59 58 56 54 52 51 50 48 48 47 48 49 49 50 50 50 51 51 51 50 48 45 48 48 47 46 44 43 43 42 43 44 44 45 44 44 43 43 42 43 44 45
56 55 53 52 51 48 46 46 46 46 46 46 46 47 47 48 49 49 49 49 48 48 46 47 46 45 45 44 42 40 39 39 42 42 41 41 42 40 40 40 40 40 43
53 51 48 47 48 46 44 43 43 44 44 44 44 45 45 46 47 47 46 46 46 47 47 45 45 43 43 43 41 37 31 31 38 41 39 39 39 37 37 37 37 37 40
49 46 45 44 43 43 42 42 42 42 42 43 43 44 44 45 46 46 45 44 45 43 45 45 44 44 42 40 38 37 32 29 27 33 32 37 38 36 36 36 36 37 39
47 45 43 42 43 42 43 42 42 41 41 42 43 43 43 44 44 45 44 43 43 43 43 43 43 42 41 38 37 35 33 31 28 23 29 31 31 30 32 35 36 37 37
45 44 42 42 42 41 41 42 41 41 41 41 42 42 43 42 40 41 41 41 40 40 41 42 41 39 37 35 35 35 34 32 30 31 29 27 27 28 31 33 34 37 36
43 42 42 42 42 39 43 43 43 41 41 41 41 40 39 39 39 39 37 35 36 39 38 38 40 38 37 36 33 32 34 33 34 30 27 26 28 27 31 34 35 35 36
43 42 42 41 41 41 43 43 43 42 42 42 42 41 39 36 38 36 36 36 34 33 33 37 37 37 36 34 34 33 34 33 30 28 27 24 26 25 30 32 35 34 35
43 43 42 41 42 41 43 43 43 43 42 42 41 40 38 34 35 35 34 31 26 27 29 26 32 36 37 36 36 35 33 29 27 25 26 28 24 24 27 32 34 35 35
43 43 42 42 42 42 43 43 42 41 40 40 40 39 38 33 33 34 31 29 26 28 32 31 31 32 32 32 32 30 29 29 26 25 26 26 25 25 25 28 29 33 32
43 43 42 42 42 41 42 43 42 39 38 38 38 37 37 33 33 34 27 27 26 26 27 31 32 32 31 30 28 28 31 31 30 27 27 28 27 27 26 28 29 29 29

GFSMA_sfc_dewp_102.txt.gz
Dewpoint
59 61 61 61 60 59 58 58 56 54 53 53 55 56 55 56 56 57 56 61 62 64 63 63 64 65 65 64 64 64 63 63 63 64 62 63 64 63 61 59 58 58 57
58 58 57 58 57 57 56 55 54 55 54 56 56 56 56 56 56 57 58 59 63 64 65 65 65 65 65 62 63 64 64 63 62 61 61 61 63 64 63 62 61 60 58
57 57 57 58 58 58 57 57 56 57 57 57 57 57 57 57 57 57 57 59 61 63 64 65 65 64 64 64 63 64 64 62 60 60 59 60 60 61 61 62 62 62 61
58 60 62 61 61 60 59 58 58 57 56 56 57 57 57 58 57 56 55 56 58 59 62 64 65 64 63 63 64 64 63 61 59 58 58 58 58 58 58 60 61 62 63
61 62 63 63 61 61 59 59 57 55 54 55 57 57 58 58 57 54 54 54 56 57 57 62 63 62 62 63 64 64 62 60 58 57 56 57 58 57 57 57 58 59 61
63 63 63 63 62 61 60 59 57 56 55 56 57 57 57 57 56 56 55 53 55 57 58 58 60 61 62 63 65 63 61 59 58 57 57 57 57 57 57 56 59 60 61
64 64 63 62 63 62 60 58 57 56 55 59 58 58 56 55 55 54 54 53 55 56 56 57 60 60 59 61 63 62 60 58 57 55 55 56 56 56 57 59 58 58 57
65 65 64 63 63 62 61 59 57 58 60 61 58 56 53 52 54 53 54 53 52 55 55 56 58 60 58 57 58 58 58 56 55 54 56 57 57 57 58 58 58 57 57
64 64 64 64 63 63 62 62 62 61 60 61 60 57 51 48 50 54 53 52 51 52 55 56 56 55 54 55 55 54 56 56 55 55 55 56 57 57 56 56 56 57 58
64 64 63 63 63 63 62 62 62 60 60 59 60 58 55 53 48 43 51 52 52 51 52 52 54 54 53 52 53 54 55 56 53 53 54 54 55 55 55 55 56 56 56
63 64 63 63 63 62 61 61 60 59 59 57 56 54 50 50 52 50 46 49 52 51 52 51 52 52 51 51 51 52 53 54 55 56 57 56 55 53 53 53 53 54 54
61 61 62 62 62 61 60 60 58 58 58 57 56 53 51 49 49 49 48 48 47 49 51 51 51 51 51 49 49 51 52 52 52 52 53 54 52 51 51 51 52 53 53
60 61 62 61 61 60 60 60 59 59 58 57 55 53 52 51 52 51 49 48 46 47 49 50 50 50 48 49 48 50 50 50 50 51 53 52 50 49 49 49 50 50 51
60 60 61 61 60 60 60 59 59 58 56 55 53 52 52 52 52 51 50 48 46 46 47 47 49 49 48 48 47 47 49 49 48 49 50 50 48 47 46 46 47 47 49
61 61 61 61 61 60 60 59 58 56 54 53 52 52 50 51 51 51 51 50 47 43 43 46 46 45 46 46 45 45 45 47 47 48 47 47 46 46 45 45 45 45 46
60 59 60 60 60 60 59 57 55 52 51 51 50 50 50 50 50 50 49 50 49 47 44 46 46 45 45 44 44 43 43 44 44 45 45 44 44 42 42 42 42 42 43
58 58 57 56 54 54 53 52 50 49 48 47 47 48 48 49 49 49 48 49 49 48 46 45 43 44 45 42 41 40 39 40 42 42 42 42 41 40 39 38 38 38 41
55 54 53 53 52 50 48 47 46 47 45 46 45 46 46 47 47 47 47 46 45 45 46 45 44 42 43 43 41 37 32 33 40 41 41 40 39 38 37 37 37 37 38
51 49 48 48 47 46 46 46 47 46 45 44 45 44 44 45 45 45 45 44 43 43 44 44 43 43 42 40 39 36 32 30 29 36 34 36 38 36 35 36 38 38 38
48 45 45 44 44 44 44 44 44 44 43 43 44 44 44 45 44 44 43 42 42 41 41 41 41 42 40 39 38 36 34 32 29 24 30 31 30 28 32 34 36 38 37
46 45 43 43 43 43 43 43 43 43 43 43 43 43 43 42 42 43 42 42 41 40 40 40 39 40 37 35 36 36 35 33 31 31 29 26 26 27 30 35 35 36 38
43 43 42 42 43 41 44 45 43 42 42 42 41 41 40 40 40 40 40 38 39 40 39 38 38 37 37 36 35 34 34 32 32 29 26 25 26 26 30 33 35 35 35
42 42 41 41 41 41 45 45 44 42 41 41 40 40 38 38 39 37 38 37 36 35 35 37 37 37 35 36 34 33 33 33 29 27 25 23 25 25 29 33 35 35 35
41 41 41 41 41 41 44 44 44 40 40 39 39 39 38 36 36 36 35 31 28 27 28 28 33 35 36 36 35 35 34 27 25 24 25 22 23 23 28 30 34 33 34
41 41 41 40 40 40 44 44 43 40 40 39 40 39 38 34 37 38 34 30 25 27 31 30 32 34 35 38 34 31 26 24 23 24 25 25 23 24 24 27 30 33 32
40 39 40 40 41 40 44 44 43 40 38 39 39 39 41 34 37 38 31 28 24 25 30 30 30 30 31 31 31 29 27 23 22 21 25 24 23 23 20 27 27 28 28

GFSMA_sfc_dewp_105.txt.gz
Dewpoint
63 63 63 63 63 63 62 61 60 58 56 54 54 55 55 55 55 57 57 62 64 65 64 64 64 65 65 65 65 65 64 63 63 62 61 62 63 64 62 61 60 59 58
62 62 62 62 62 61 61 59 57 54 53 52 54 56 56 56 56 56 56 58 63 64 66 65 65 65 64 63 64 64 64 64 62 60 60 60 61 63 63 63 63 62 61
60 60 61 60 60 58 56 56 54 55 56 56 56 56 56 56 57 56 58 57 60 62 64 65 65 64 64 64 64 65 64 62 60 59 59 59 59 59 59 60 61 62 63
57 58 58 58 58 58 58 57 57 56 57 56 57 57 57 57 57 57 56 58 60 59 62 64 65 64 63 63 64 65 64 61 60 58 57 58 58 58 57 58 58 59 61
57 60 60 61 60 59 59 58 57 56 55 55 56 57 58 58 58 54 54 56 57 57 58 62 62 62 62 62 64 65 63 60 59 57 57 57 57 57 57 57 59 59 60
60 62 62 62 61 60 59 59 57 56 54 54 56 56 58 58 56 55 53 55 56 57 57 58 60 61 62 64 65 64 62 59 58 57 56 56 56 56 57 59 58 58 58
62 63 63 63 62 61 60 59 58 56 55 58 58 58 57 56 55 54 53 54 56 56 56 59 60 59 59 62 64 63 61 59 58 56 55 55 56 57 58 58 58 58 57
64 64 63 63 62 62 60 59 57 57 57 60 57 55 53 52 54 54 53 52 54 55 56 57 59 58 57 57 58 59 59 57 55 55 57 57 57 57 57 56 56 57 58
65 64 64 64 63 63 62 61 60 59 59 59 59 57 52 49 52 54 53 52 52 54 55 56 56 55 55 54 54 54 56 56 55 56 55 56 56 55 56 56 56 56 56
64 64 64 63 63 62 61 62 62 61 60 58 59 58 56 53 47 48 52 52 51 53 53 54 55 53 52 52 53 54 55 56 54 54 55 55 55 55 54 54 55 54 55
62 62 63 62 62 62 61 61 60 59 59 59 57 56 53 52 53 49 46 50 52 52 52 51 53 52 52 52 50 52 53 54 55 56 56 55 55 54 53 53 53 54 54
61 61 62 62 61 61 60 59 59 58 58 57 55 54 52 49 48 49 48 47 49 49 51 51 51 51 50 49 51 52 52 52 52 53 54 54 53 52 51 52 52 52 51
59 60 61 61 60 61 60 60 58 58 57 56 55 55 54 51 51 51 49 48 46 47 50 50 50 49 49 47 48 49 50 50 50 51 53 53 50 49 49 49 50 49 50
59 60 60 61 60 60 60 60 59 59 58 57 56 55 53 52 52 51 50 49 47 47 46 46 47 47 47 47 47 49 48 49 49 50 50 50 48 47 46 46 47 46 47
60 60 60 60 61 60 60 60 59 58 57 56 54 53 52 52 51 51 51 50 47 43 44 46 45 45 45 44 45 45 45 47 48 48 47 46 46 45 44 44 44 44 44
59 59 60 60 60 60 60 59 58 58 56 54 53 52 50 50 50 51 50 50 49 46 43 46 44 44 44 44 45 43 43 44 45 45 45 44 43 42 41 40 39 39 41
59 59 59 60 59 59 60 59 58 55 54 53 51 51 50 49 49 49 49 48 48 47 44 43 43 43 43 42 41 40 40 41 42 43 42 42 41 39 38 38 38 38 38
56 56 56 56 56 55 55 56 53 53 53 51 49 49 48 48 48 49 48 47 46 46 45 43 44 42 43 43 41 38 34 34 41 42 41 40 39 38 37 36 38 39 38
51 50 51 52 51 50 49 49 50 48 49 49 47 46 46 47 47 46 46 45 45 45 44 43 42 43 42 41 39 37 32 32 32 38 37 36 38 35 33 35 37 38 38
49 47 47 47 47 46 46 46 47 48 48 48 47 46 46 46 46 44 44 43 42 41 41 41 41 42 40 39 39 37 34 33 31 25 30 32 31 28 32 35 36 38 38
46 46 44 44 44 44 44 45 46 46 46 45 47 47 47 46 46 46 43 42 41 40 39 37 38 40 38 36 36 36 36 35 33 32 29 27 27 27 31 35 36 36 36
43 43 44 43 42 42 44 46 44 43 43 43 43 44 44 44 44 45 44 44 42 39 38 38 38 38 38 37 36 35 35 33 32 30 26 25 25 25 29 32 34 35 35
42 42 41 41 41 41 44 46 46 43 43 42 42 42 41 40 41 40 42 41 40 41 41 38 38 38 37 37 36 34 34 33 32 28 25 23 25 25 29 33 34 33 34
41 41 41 41 41 41 44 45 45 40 41 41 41 41 39 38 39 37 36 34 33 33 34 34 36 38 38 37 36 35 34 30 25 25 25 21 23 24 27 30 33 32 34
40 40 40 40 40 40 43 44 44 40 39 39 40 40 39 37 39 40 35 31 28 26 31 32 32 33 36 40 37 33 28 25 23 23 24 24 23 23 25 27 29 33 31
43 42 41 40 41 40 42 44 44 40 40 40 40 40 42 37 40 41 35 31 27 25 30 30 30 31 32 37 38 32 28 23 22 21 25 23 22 23 19 26 27 27 28

GFSMA_sfc_dewp_108.txt.gz
Dewpoint
64 62 63 64 64 63 63 62 61 59 57 56 55 55 55 54 56 56 58 62 65 66 66 65 64 64 65 65 66 65 64 64 63 62 60 61 62 63 63 63 63 62 61
63 63 62 62 63 62 62 61 60 59 56 55 53 55 55 55 55 56 56 57 63 65 66 65 64 64 64 64 63 65 64 64 62 60 59 60 60 60 60 61 61 62 63
63 62 62 62 62 61 61 60 59 56 54 53 53 54 56 56 56 56 57 56 59 63 64 65 65 65 64 63 63 65 64 64 61 59 58 58 58 58 58 58 59 59 61
62 62 62 62 62 60 59 57 56 55 56 56 56 56 57 57 57 57 56 58 59 59 62 64 65 64 63 63 63 65 64 62 60 59 58 57 58 58 58 58 58 60 60
62 61 61 60 59 59 58 57 57 56 56 56 56 57 57 57 58 56 55 57 58 58 58 61 62 62 62 62 63 65 65 61 59 57 57 57 57 57 58 59 59 59 59
59 59 58 59 59 58 58 58 56 57 56 55 54 55 57 58 56 54 54 56 57 58 57 59 59 60 63 64 64 65 64 60 58 57 56 56 56 56 58 58 59 58 58
59 59 59 60 60 59 58 58 58 56 55 55 56 57 57 56 55 55 54 55 56 56 58 59 59 58 59 62 65 64 62 60 58 56 55 56 56 57 58 57 57 57 58
61 62 61 62 61 60 60 59 58 57 56 58 57 55 54 53 54 54 53 54 55 56 57 59 58 57 56 57 58 60 60 59 57 55 56 57 57 57 56 57 56 55 56
62 63 63 63 62 62 61 60 59 58 58 59 59 57 53 51 52 53 53 52 54 55 56 57 57 56 55 54 54 54 56 56 56 56 57 56 56 55 55 55 55 55 56
63 63 63 63 63 62 61 61 61 59 60 58 59 59 58 53 49 49 52 52 51 54 55 55 55 53 53 52 53 54 55 56 54 55 55 57 57 54 54 54 54 55 55
62 63 63 62 62 61 60 60 60 60 60 59 58 57 56 56 55 49 49 51 52 52 53 54 54 52 52 51 50 52 53 54 56 56 56 56 55 54 53 53 53 53 53
61 61 61 61 61 61 60 60 60 60 59 59 60 57 54 52 50 50 47 48 50 51 51 52 52 51 51 49 51 52 52 52 53 53 55 55 53 52 52 51 51 51 52
59 60 60 60 60 60 60 60 59 58 58 58 57 56 53 53 54 53 50 48 47 48 50 50 50 49 48 47 48 49 51 50 50 52 54 54 51 50 49 49 49 49 49
60 60 60 60 60 60 59 60 59 59 58 58 57 56 55 55 54 52 51 49 46 47 47 47 47 46 47 46 47 49 48 49 49 50 51 51 49 47 47 47 47 47 46
60 60 60 60 60 60 59 59 59 59 59 58 57 56 54 53 52 52 51 50 47 43 45 45 45 44 45 45 46 45 44 47 48 49 47 47 46 44 44 43 42 42 43
59 59 59 59 58 60 60 60 59 59 58 56 56 55 54 51 51 51 51 50 48 45 42 45 44 44 45 44 45 43 43 45 46 46 46 44 43 42 41 40 40 40 40
59 59 59 59 59 59 60 60 59 58 57 57 55 54 53 50 50 49 49 48 48 47 45 43 43 43 42 42 42 40 40 41 43 44 43 43 41 39 39 38 38 40 40
54 55 56 57 57 57 57 58 58 56 56 56 55 54 53 51 49 49 49 48 47 47 45 43 42 42 43 41 41 39 36 36 41 42 42 41 40 38 37 36 37 38 39
50 50 50 51 53 54 54 53 54 53 53 54 54 53 53 50 49 48 47 47 46 46 45 42 41 42 42 42 39 37 34 32 35 39 40 38 40 37 33 34 37 38 39
47 47 47 47 48 49 48 49 49 50 50 50 50 50 50 49 49 48 47 46 44 43 41 41 40 41 40 40 39 38 36 34 33 28 34 31 34 30 32 36 36 37 37
44 44 45 45 44 45 45 45 46 47 48 48 48 48 48 47 48 48 47 45 44 42 40 39 38 41 39 37 37 37 37 36 34 33 29 29 28 28 30 34 36 37 36
42 42 42 43 43 42 44 46 46 44 45 46 46 46 46 46 46 48 48 46 44 42 40 39 36 38 38 37 37 36 34 34 34 32 30 27 25 25 27 31 36 34 34
41 41 41 41 41 41 44 45 46 44 42 43 43 43 43 43 44 45 47 46 45 45 43 40 37 37 37 38 37 35 35 34 34 29 27 25 25 24 28 32 35 33 33
40 40 40 40 40 41 44 45 45 42 40 41 41 42 42 40 41 41 41 39 39 40 41 40 38 38 39 39 38 37 35 33 27 27 25 23 24 23 26 29 35 32 34
38 39 40 41 41 40 42 44 44 41 39 38 40 41 41 40 41 43 38 37 35 33 33 37 37 39 40 41 38 34 32 31 28 25 25 23 23 23 25 27 29 34 31
39 41 41 42 43 42 43 44 44 42 41 40 40 40 42 40 41 43 38 35 33 30 30 29 31 32 36 38 40 35 32 32 24 24 25 24 22 22 18 25 26 27 28

GFSMA_sfc_dewp_111.txt.gz
Dewpoint
63 62 64 64 64 65 64 63 61 60 58 56 55 54 54 55 54 56 59 61 65 67 66 65 65 65 65 65 65 66 65 64 63 61 60 60 61 62 62 61 61 62 62
63 63 63 64 64 64 63 63 60 59 58 55 55 54 55 55 54 56 56 57 63 65 67 66 64 64 65 64 63 65 65 64 63 60 59 59 59 59 59 59 59 59 60
64 62 62 63 63 63 62 62 60 59 57 56 54 53 55 56 56 56 56 56 57 62 64 65 65 65 65 64 64 64 66 64 61 60 58 58 58 58 58 58 58 60 60
64 63 62 62 62 62 62 61 59 58 56 55 53 54 55 56 56 56 57 57 57 58 62 64 65 64 64 63 63 63 65 64 61 59 58 57 57 57 58 59 59 60 59
65 63 63 62 61 61 60 60 58 57 56 55 56 56 57 57 57 57 56 57 58 59 59 60 62 62 62 62 63 63 65 63 60 58 57 56 56 56 57 58 59 59 59
64 64 63 61 61 60 59 58 57 57 56 56 55 55 56 57 58 56 55 57 57 57 58 59 59 60 63 64 64 63 65 62 60 58 57 56 56 56 57 57 57 57 58
64 63 62 61 60 59 59 58 57 56 56 55 55 55 57 56 55 55 55 55 57 57 57 58 58 58 58 62 65 66 64 62 60 58 56 56 57 57 57 56 57 56 57
62 61 61 60 59 59 58 58 57 57 56 57 56 55 54 54 54 54 53 55 56 56 58 58 57 56 56 56 58 61 62 61 60 57 56 58 58 57 56 56 56 56 55
62 62 62 61 60 60 59 59 59 58 56 57 58 56 53 52 53 54 53 53 54 55 56 57 57 56 55 54 54 55 57 56 56 57 58 58 57 57 55 55 55 55 56
62 62 62 62 61 61 60 60 60 58 59 57 58 59 57 53 51 50 52 52 53 54 55 56 56 55 54 53 53 54 55 55 55 55 56 57 58 57 55 55 54 54 54
62 61 62 62 62 62 61 60 60 59 59 58 58 56 56 56 55 51 51 51 52 53 55 55 55 53 52 52 51 53 53 54 56 56 56 57 56 54 54 54 53 53 53
60 61 61 60 60 60 60 60 59 59 59 59 59 58 57 55 54 53 50 49 51 52 52 53 53 52 52 51 51 53 53 52 53 53 55 56 55 53 52 52 52 51 51
59 59 60 60 60 60 60 60 59 59 59 59 59 59 58 58 55 53 51 50 50 51 51 50 51 50 50 49 49 50 51 50 51 52 54 55 52 51 50 50 50 49 50
59 60 60 60 60 60 60 59 59 58 58 58 58 57 57 55 54 54 53 51 48 48 48 48 48 48 48 48 48 50 48 50 49 50 52 51 49 48 47 46 46 45 45
60 60 60 59 59 59 59 59 59 59 58 58 58 58 57 57 55 55 54 53 51 47 47 47 47 46 46 46 47 45 45 48 48 49 48 47 46 45 44 43 42 42 42
60 60 59 59 59 59 59 59 59 59 59 59 58 58 57 56 54 53 52 51 50 49 46 46 46 45 45 45 46 44 44 46 46 47 47 46 44 42 41 40 40 41 42
59 58 59 59 58 58 59 59 59 59 58 58 58 56 56 56 54 52 52 51 51 49 46 44 44 44 44 43 43 42 42 42 43 45 46 44 43 40 39 38 38 40 41
53 53 53 55 56 56 57 57 57 57 57 57 57 56 55 54 54 53 51 50 50 49 47 44 43 43 43 42 40 39 38 39 41 44 44 43 42 40 38 36 37 38 39
48 49 48 49 50 51 52 53 53 53 54 54 55 55 55 54 52 51 50 50 49 47 46 44 42 43 43 42 40 39 36 34 37 42 43 41 41 40 35 34 37 37 38
44 45 46 46 46 46 47 47 48 48 49 51 51 51 52 51 51 49 49 48 46 45 44 44 42 42 41 41 40 39 37 34 34 32 38 35 36 36 32 36 36 37 37
43 43 43 43 43 43 43 44 45 45 46 47 48 49 49 49 48 49 48 47 46 45 43 42 41 41 39 37 38 39 37 36 35 34 30 31 30 28 29 33 34 36 36
41 41 41 41 41 42 44 45 46 44 44 44 45 45 46 46 47 49 49 48 47 45 43 42 40 41 41 39 37 36 36 35 34 34 31 28 26 26 27 30 35 34 33
39 39 39 40 40 40 44 45 45 43 42 41 41 43 43 44 45 45 48 48 48 48 46 43 42 41 40 39 37 34 35 35 35 31 29 28 25 25 26 31 35 33 32
37 38 38 39 39 40 43 44 45 41 40 40 40 40 41 42 42 43 43 43 44 44 45 43 43 41 41 39 39 37 36 34 28 28 27 26 24 24 26 30 35 33 33
36 36 37 37 38 39 43 44 44 43 42 41 40 40 41 40 42 44 41 39 38 38 37 41 41 41 41 42 39 36 33 33 30 27 26 24 23 23 25 27 29 34 32
37 38 38 37 38 38 41 43 43 42 41 42 41 40 42 42 42 43 42 39 35 37 35 33 34 36 39 40 41 37 35 34 30 29 26 25 23 23 20 24 27 28 28

GFSMA_sfc_dewp_114.txt.gz
Dewpoint
64 62 63 64 64 65 65 64 62 60 58 56 55 54 54 54 54 55 58 61 64 66 66 66 66 65 65 65 65 66 66 65 64 62 60 60 60 59 59 59 60 60 60
63 62 63 64 64 64 64 63 61 59 58 56 54 54 54 55 55 54 56 57 62 65 65 66 66 64 64 65 64 65 66 65 64 61 60 59 58 58 58 58 59 60 60
64 63 63 64 64 64 63 62 61 59 57 56 55 54 54 54 55 55 55 56 57 61 63 64 65 65 65 65 64 64 65 65 63 60 59 58 58 57 57 58 59 60 59
64 64 63 64 64 64 62 62 61 59 57 56 55 54 53 54 56 56 56 56 56 56 61 64 66 65 65 64 64 63 63 65 62 60 59 58 57 57 57 58 58 59 59
65 64 64 64 64 63 62 61 60 59 57 56 55 55 55 56 56 57 57 57 57 57 58 60 63 62 62 62 63 63 64 65 62 60 59 57 56 56 57 58 58 58 58
65 65 64 64 63 63 61 60 59 58 57 56 55 55 56 57 57 58 57 56 58 58 58 59 60 60 62 63 63 63 63 65 62 60 58 56 56 56 57 57 57 56 56
64 64 64 63 63 62 61 59 58 57 56 56 55 55 56 57 56 56 55 56 56 57 57 58 58 59 58 61 63 66 65 64 62 59 57 57 56 57 57 57 57 57 56
64 63 63 61 62 62 61 59 58 57 57 56 55 54 52 54 55 55 54 55 56 56 57 57 57 57 56 57 59 62 64 63 61 60 58 57 58 58 57 56 56 56 56
63 62 61 61 61 61 60 60 59 58 56 56 58 56 52 52 53 54 53 53 55 56 56 57 57 56 56 56 56 57 58 58 57 58 58 59 59 58 57 55 55 55 54
62 60 59 58 59 60 60 60 59 59 58 56 57 59 57 54 51 50 52 53 54 54 55 56 57 56 55 54 55 55 55 56 56 57 57 58 58 58 57 55 54 54 54
62 61 60 59 60 61 61 60 59 58 58 58 57 56 56 55 54 51 50 52 52 53 55 56 57 55 54 53 53 53 55 55 56 56 57 57 57 57 55 54 53 53 52
61 62 62 62 62 62 61 60 59 59 59 58 58 57 57 55 54 53 52 52 52 53 53 55 55 54 53 52 51 53 54 54 54 55 55 55 57 56 53 52 52 51 51
59 60 60 60 60 60 60 59 59 59 59 58 59 59 58 58 57 56 55 54 51 52 51 52 54 53 52 51 51 51 53 53 52 53 54 54 55 52 51 50 49 48 48
59 60 60 60 60 60 59 59 59 58 58 58 58 57 56 56 55 55 54 53 52 49 50 50 49 50 50 50 50 51 50 51 51 52 53 55 52 50 48 46 45 43 43
59 60 60 59 59 59 59 59 58 58 58 58 58 58 57 58 56 56 56 55 54 50 48 50 49 48 49 49 49 48 46 50 51 51 52 51 49 47 45 42 41 41 42
59 59 59 59 59 59 59 58 58 59 59 59 58 58 58 58 58 57 56 54 54 53 49 50 48 47 47 47 48 46 46 48 50 50 49 48 47 45 43 41 40 40 41
56 56 57 58 58 58 58 58 58 58 58 58 58 58 57 57 56 55 54 54 53 52 50 48 46 46 45 46 45 44 44 44 45 49 48 47 45 43 41 39 38 39 39
49 49 49 50 51 52 54 54 54 55 55 56 56 57 56 56 56 56 54 53 52 52 51 49 44 43 44 45 44 42 41 41 42 45 47 46 45 43 41 37 36 37 37
44 45 46 46 46 46 47 48 48 49 50 51 52 53 53 54 54 53 52 52 51 50 50 46 43 43 43 43 41 40 38 36 38 42 45 44 44 43 40 36 36 36 36
42 43 43 43 43 43 44 44 44 45 45 46 47 49 50 50 51 51 50 50 49 47 46 45 43 42 42 42 42 40 39 37 35 35 41 41 41 42 39 35 37 35 36
41 41 42 42 42 42 42 44 44 43 43 43 44 45 46 47 47 49 49 49 47 47 45 45 42 41 40 38 40 40 41 39 36 36 33 34 34 31 31 35 34 36 35
39 39 39 40 40 40 44 46 45 42 42 41 41 42 43 44 45 47 49 49 48 47 44 44 43 42 41 40 40 39 39 36 35 37 33 31 29 28 27 29 32 36 33
36 37 37 38 38 38 43 44 45 42 40 40 39 40 41 42 43 43 45 48 49 48 48 45 44 43 43 40 40 37 37 36 36 33 32 31 26 26 27 28 36 36 33
35 35 36 36 36 36 41 43 44 40 39 39 39 40 41 41 41 42 42 42 44 46 47 47 45 45 44 42 41 39 38 34 31 30 31 31 25 26 26 30 36 36 33
34 35 35 35 35 36 40 41 41 39 38 38 39 40 41 41 42 43 42 40 40 42 43 46 45 45 44 44 42 37 34 34 32 29 28 28 24 24 24 27 30 36 34
33 33 34 34 35 35 37 37 36 36 35 37 37 38 41 42 43 44 43 41 39 39 38 37 38 40 42 42 42 38 35 35 32 30 28 28 24 23 20 24 27 29 30

GFSMA_sfc_dewp_117.txt.gz
Dewpoint
67 67 67 66 67 66 65 65 66 64 61 58 56 54 54 53 53 55 56 61 63 65 66 67 66 66 65 65 66 66 67 66 65 64 60 60 59 58 59 59 59 60 60
67 66 66 65 65 67 66 65 64 63 60 58 56 55 55 55 55 56 56 57 61 63 65 65 66 66 65 65 65 64 66 66 65 63 60 59 58 58 58 58 60 60 59
65 64 64 65 65 66 65 65 64 62 60 59 57 55 55 55 56 56 56 57 58 60 63 65 64 66 66 65 65 64 64 66 65 62 61 59 58 57 58 59 59 59 59
65 64 64 64 66 65 65 63 63 62 60 59 57 56 55 55 55 55 57 57 58 57 60 63 65 66 66 66 65 64 63 66 65 62 60 59 57 57 57 58 58 58 58
65 65 65 64 65 65 64 64 61 61 60 59 57 57 57 56 55 54 56 57 58 59 59 60 62 63 64 64 64 63 63 65 65 62 60 59 57 57 56 57 57 56 56
64 66 66 65 65 65 64 63 62 61 60 59 57 56 57 57 57 58 57 58 58 59 59 59 60 61 61 63 63 64 63 64 65 62 60 59 58 57 58 58 57 57 56
64 65 66 65 64 64 63 62 61 60 60 59 58 57 56 56 56 57 58 58 58 58 59 59 60 60 61 62 63 64 63 63 65 62 60 58 58 58 59 58 57 56 55
64 64 64 64 63 63 62 61 61 59 60 59 58 56 54 54 56 57 57 56 57 58 58 59 59 59 60 60 61 63 66 66 64 62 60 59 59 59 59 58 57 55 54
63 63 63 63 63 63 62 62 61 60 58 59 59 58 55 53 55 55 55 55 55 57 58 59 58 59 59 59 60 60 61 63 63 63 61 60 60 60 59 58 57 55 54
63 63 63 63 62 62 61 61 61 60 59 58 58 59 59 56 53 52 54 55 55 56 56 57 58 58 58 57 57 57 57 58 60 61 61 60 59 60 59 59 57 54 53
62 62 62 61 60 61 60 59 59 59 59 58 58 58 58 58 55 54 53 54 54 55 56 57 57 58 57 57 55 55 56 57 58 59 60 59 59 59 59 57 55 53 52
62 62 61 60 60 60 60 61 60 60 60 59 58 58 57 57 56 54 54 55 55 56 55 56 56 57 56 55 54 54 55 56 57 58 59 58 57 58 58 56 53 51 50
60 61 62 60 60 60 60 61 60 59 60 59 58 58 59 58 58 57 56 55 55 55 54 55 56 56 55 54 53 53 54 55 55 56 57 57 55 57 55 53 51 49 48
60 61 61 61 61 61 60 60 60 59 59 59 60 59 59 59 58 57 57 55 55 54 53 53 52 53 53 53 52 53 52 54 54 54 55 55 56 53 51 49 47 45 44
60 60 60 60 60 60 60 59 59 59 59 59 59 60 59 58 58 58 58 57 55 53 53 53 51 51 52 52 52 52 51 52 53 52 53 54 52 50 48 46 44 43 43
59 59 59 59 59 59 59 59 59 58 58 58 58 58 59 58 58 58 57 57 56 55 52 53 51 49 51 50 51 50 48 49 51 51 52 51 49 48 46 44 42 41 41
52 53 53 54 55 56 57 58 58 58 58 58 58 58 58 58 57 57 56 56 55 54 52 53 49 47 48 48 48 47 47 47 48 51 50 49 48 47 45 43 41 40 40
47 47 47 47 48 49 50 51 51 52 52 52 53 53 54 55 55 56 55 54 54 54 52 51 47 45 46 48 47 46 45 45 45 46 49 49 48 46 44 43 40 39 39
43 43 43 43 43 44 44 44 45 45 46 46 47 48 49 49 50 52 53 53 53 52 52 51 48 45 44 45 43 43 43 42 43 44 47 48 47 46 44 42 40 39 37
41 42 42 42 42 42 43 44 43 43 43 43 44 45 45 46 46 48 49 50 50 50 50 49 46 43 43 43 43 41 39 40 40 41 44 46 47 46 46 43 39 38 36
39 39 39 39 40 41 43 44 44 43 43 42 43 43 43 44 44 45 46 46 48 48 48 47 45 42 41 40 42 43 42 41 40 40 40 42 43 41 42 40 38 37 36
38 38 38 38 38 37 43 43 43 41 41 41 40 41 42 42 43 44 45 46 47 46 46 45 45 44 43 42 43 41 43 38 37 40 38 38 38 35 33 33 34 35 37
37 37 37 37 37 38 41 41 42 41 41 41 40 41 41 40 42 41 43 44 45 47 48 47 45 45 45 43 44 40 41 39 38 38 38 37 32 33 31 29 34 35 36
35 35 35 36 35 35 39 39 38 39 39 39 39 39 39 39 40 41 42 43 42 42 44 47 47 47 46 46 43 43 41 39 34 34 37 37 31 31 28 29 34 37 36
34 34 34 34 34 34 36 35 33 32 32 32 32 33 36 36 40 42 41 41 41 42 42 44 46 47 47 46 44 40 36 36 34 32 33 33 28 30 28 29 31 37 35
33 33 30 31 33 30 32 33 33 30 28 29 29 29 33 34 37 38 37 39 38 40 41 40 39 41 44 45 45 42 38 36 34 32 32 33 27 27 29 27 30 34 34

GFSMA_sfc_dewp_120.txt.gz
Dewpoint
65 66 68 68 66 65 64 60 57 58 60 58 56 55 54 55 55 54 54 61 62 65 65 66 67 67 67 66 66 66 66 66 66 65 62 60 59 58 58 58 59 59 59
67 67 67 66 65 65 64 62 59 58 59 58 56 54 53 52 52 54 55 55 61 63 65 65 65 66 66 65 65 65 65 65 66 65 62 60 59 58 57 58 58 58 59
67 65 66 66 65 65 64 64 61 60 58 58 57 54 52 52 52 53 55 56 57 61 63 64 65 65 66 66 66 66 65 65 66 65 62 61 59 58 58 58 58 58 58
66 66 64 64 66 66 66 64 63 62 62 59 57 55 54 53 54 54 54 55 57 57 60 63 65 65 66 66 66 66 65 66 67 66 63 61 60 59 58 58 58 57 57
62 64 65 64 64 65 65 65 64 63 61 60 59 57 56 54 54 53 53 54 57 58 59 61 62 63 65 66 65 65 64 65 66 66 63 61 60 59 58 59 59 57 56
60 61 62 63 64 66 66 65 64 63 62 60 58 57 57 56 56 55 55 54 56 59 60 60 60 59 62 64 64 64 64 64 66 66 63 62 60 59 59 59 59 58 57
61 62 62 63 65 65 65 64 64 63 62 62 61 59 59 57 56 56 55 57 57 59 59 60 60 60 60 62 63 63 64 63 64 66 64 62 60 59 59 60 59 59 57
61 61 62 62 64 64 64 64 64 63 61 62 59 58 55 52 53 56 54 56 57 58 58 59 59 60 61 60 60 63 63 64 63 65 64 62 61 60 60 60 60 59 57
62 62 62 63 64 64 63 63 63 62 60 60 60 58 55 51 55 57 56 57 57 57 58 59 60 60 60 60 60 60 61 63 65 65 64 63 61 61 61 60 60 59 57
61 62 63 62 63 63 63 63 63 62 60 58 59 60 59 58 55 52 56 57 57 57 59 60 60 60 60 59 58 58 59 60 63 65 63 63 62 61 61 60 60 59 57
62 62 63 63 63 62 63 63 62 60 60 59 58 58 58 59 58 56 52 54 57 56 57 58 58 59 58 59 59 58 58 59 62 63 63 62 61 61 60 60 60 58 55
62 62 62 63 63 62 61 62 61 60 60 59 58 57 57 57 56 56 55 54 55 56 58 57 57 57 59 58 57 56 57 58 60 61 61 61 59 58 59 58 58 55 54
60 61 62 62 61 61 62 61 60 60 59 59 59 58 58 57 57 57 57 55 56 57 56 56 56 57 57 58 57 54 55 57 57 59 59 60 58 58 57 58 56 54 52
60 61 62 62 61 61 60 60 60 60 60 60 59 59 58 59 59 58 56 55 54 55 55 55 55 56 57 57 56 53 55 55 56 57 58 58 57 57 56 54 53 51 49
60 61 62 61 61 61 60 60 60 58 59 59 59 59 59 59 59 59 59 58 56 52 52 56 54 55 54 55 55 54 54 54 55 56 55 55 56 55 53 52 50 47 47
58 57 58 60 60 60 60 60 59 59 59 59 59 59 59 59 59 59 58 58 57 56 53 55 54 54 52 52 53 53 53 52 54 54 54 54 53 52 51 49 47 46 45
51 51 52 52 53 53 55 58 58 58 58 58 58 58 58 58 58 58 57 57 56 56 53 54 54 52 51 52 51 51 50 51 51 53 53 53 52 50 49 48 46 45 44
47 47 46 46 47 48 48 49 49 49 49 50 51 51 51 52 52 54 55 55 55 55 53 51 53 49 48 50 50 49 48 49 49 51 53 52 51 50 49 47 46 44 43
44 43 44 44 43 44 44 44 44 44 45 46 45 45 45 46 47 48 49 49 50 51 52 51 50 49 47 47 46 47 46 46 46 47 52 52 50 49 48 47 45 43 42
39 39 40 41 42 42 43 43 43 43 43 43 43 44 44 44 44 45 45 45 46 48 48 49 48 48 45 45 45 43 41 43 44 44 47 49 50 49 48 47 45 43 41
37 37 36 37 39 40 41 41 40 40 39 39 40 40 41 42 43 44 44 44 44 44 45 45 46 47 44 41 42 44 43 44 43 42 42 44 47 47 47 47 45 42 41
37 37 37 37 38 38 41 41 40 38 38 38 38 38 38 39 39 42 43 44 44 43 43 44 43 43 43 45 46 45 43 40 39 41 41 41 44 43 43 44 44 41 41
35 35 35 35 36 37 38 38 38 38 38 38 38 37 36 34 37 36 39 40 40 42 43 43 43 43 44 45 46 44 43 41 42 42 41 40 39 40 40 39 42 41 39
34 34 33 33 33 34 36 35 34 33 33 33 32 32 31 31 33 36 35 36 37 38 39 40 42 43 43 45 46 45 43 42 37 36 40 39 35 38 36 36 39 39 37
33 31 30 33 32 30 33 34 32 30 28 29 29 29 30 30 33 35 32 34 33 34 37 41 43 44 44 45 45 44 37 36 37 34 35 35 33 34 33 33 34 37 38
30 29 29 30 29 27 32 33 32 29 29 29 29 29 31 31 34 35 33 32 31 33 34 37 38 41 42 42 43 44 42 37 37 33 34 34 31 31 30 32 34 36 37

GFSMA_sfc_dewp_123.txt.gz
Dewpoint
65 66 68 69 69 67 62 58 55 53 54 56 57 55 54 53 54 55 55 62 64 65 65 65 66 67 66 66 67 67 67 67 67 66 65 62 60 59 58 58 59 59 59
69 67 67 66 66 69 64 62 58 55 55 57 56 54 53 52 51 52 54 57 62 64 64 65 65 65 66 65 66 67 67 66 66 66 66 63 61 59 59 58 59 59 59
66 67 67 68 69 68 66 64 62 58 57 56 55 55 53 51 51 50 52 55 59 62 64 64 65 65 66 65 65 66 67 67 67 67 66 64 62 60 59 59 60 59 59
65 65 66 65 66 68 68 66 63 60 59 56 55 55 54 52 51 51 53 54 56 56 61 64 65 65 66 66 66 66 67 67 67 67 66 64 62 61 59 59 59 59 58
64 64 64 63 63 66 65 64 64 62 61 60 59 56 55 55 52 51 52 53 55 57 59 61 63 63 65 65 65 65 65 67 66 66 67 65 63 61 60 59 59 60 58
60 62 62 62 62 64 65 64 63 63 62 61 59 58 58 56 56 55 53 54 55 57 59 60 61 60 61 63 64 65 65 65 65 66 67 66 64 62 60 60 59 60 59
61 61 61 61 62 64 64 63 65 64 63 63 61 60 58 57 56 56 57 56 56 57 58 60 61 61 61 62 64 65 64 64 63 65 67 66 64 63 61 60 60 60 60
61 61 61 61 61 64 63 64 64 64 64 63 61 60 55 54 56 56 56 54 55 57 58 59 60 61 63 63 62 63 64 63 63 62 65 67 65 63 62 61 60 60 61
62 62 62 62 62 63 64 64 64 63 61 62 62 58 53 50 50 56 57 56 57 58 59 60 61 62 62 62 62 61 61 62 62 63 63 66 65 64 62 62 61 61 61
60 62 63 62 63 63 63 64 64 64 62 59 61 61 58 58 54 53 56 57 58 57 59 61 61 61 61 61 60 59 59 60 62 63 62 64 65 64 63 62 62 61 61
61 62 62 62 62 63 63 63 63 62 62 61 60 59 59 59 58 56 53 52 57 57 58 58 59 59 60 60 60 59 59 60 62 63 63 62 64 64 63 63 62 61 60
61 61 62 63 63 63 62 62 62 62 62 61 59 59 58 56 55 55 54 53 53 54 57 58 58 58 59 59 58 57 58 59 60 61 62 63 63 62 62 62 60 59 59
59 60 61 63 63 62 62 62 62 61 61 60 59 58 58 57 56 56 54 54 54 56 57 58 58 58 58 58 58 56 56 58 59 60 62 62 61 60 60 60 59 59 58
59 60 61 62 62 62 61 61 61 61 60 60 59 59 58 58 57 56 54 54 53 54 54 54 56 57 58 58 57 55 57 56 57 59 60 61 60 60 60 59 58 59 56
60 60 60 59 60 61 60 60 60 59 59 59 59 59 58 59 58 58 58 57 55 52 52 54 55 56 56 56 56 56 56 55 56 57 58 58 58 58 57 58 57 56 53
58 58 56 59 60 61 60 60 59 59 58 58 58 58 58 58 58 58 58 58 58 56 53 55 55 55 53 53 54 54 54 53 55 56 56 56 56 55 56 56 55 53 51
50 51 51 51 51 52 53 54 54 56 58 58 57 57 57 55 56 56 56 57 56 56 53 54 54 53 53 53 53 53 53 53 53 54 56 56 55 54 55 54 53 51 49
48 48 47 47 47 47 48 48 48 48 49 48 48 49 49 50 51 52 53 52 52 52 51 50 52 51 50 51 51 51 50 50 51 52 54 55 54 54 53 52 51 49 48
47 47 46 45 45 45 45 45 45 45 46 47 47 47 47 46 47 47 47 47 48 48 49 48 47 50 50 49 48 48 48 49 48 49 51 53 54 54 53 52 51 49 47
41 41 41 42 43 41 41 41 41 42 42 42 43 43 43 42 42 43 43 44 44 45 44 44 44 44 46 47 46 45 44 45 45 46 47 49 52 53 52 52 50 48 47
36 36 36 38 39 39 40 40 39 38 38 38 39 39 41 40 42 42 41 41 40 40 40 41 42 42 41 43 43 44 44 45 45 45 44 45 47 48 50 51 49 47 46
36 36 36 38 39 37 39 39 39 38 37 38 37 37 37 38 38 41 42 41 39 38 37 37 38 38 38 42 43 44 44 43 41 44 43 43 44 45 47 48 48 47 45
34 34 34 35 35 36 37 36 36 36 36 35 34 33 32 29 34 35 35 36 36 38 40 37 37 38 38 40 41 41 42 43 43 44 41 40 42 41 44 45 48 47 45
34 32 31 33 34 32 35 35 35 34 34 32 31 30 29 30 33 33 32 33 32 32 33 34 35 37 39 40 41 41 42 42 43 38 40 37 36 38 39 38 44 47 45
32 31 32 32 31 31 34 34 33 30 28 30 29 29 29 29 33 34 32 32 30 31 33 36 36 38 39 41 42 42 39 38 38 37 37 36 34 34 35 35 37 44 43
28 29 29 30 29 27 32 32 32 28 27 28 27 27 32 30 33 33 30 29 29 30 32 32 34 36 38 38 41 40 40 37 37 34 35 35 32 32 32 32 34 37 40

GFSMA_sfc_dewp_126.txt.gz
Dewpoint
64 67 67 68 67 66 63 60 59 58 57 55 56 56 55 55 56 55 57 63 65 66 65 65 66 67 67 66 66 68 68 67 67 68 67 66 62 60 59 58 59 59 59
67 67 67 67 66 67 65 61 57 55 54 55 56 55 54 53 52 52 54 59 64 65 66 65 65 66 66 66 66 68 68 67 67 66 67 66 64 61 60 59 59 59 59
66 66 66 67 67 67 66 65 62 59 56 57 56 55 55 53 52 51 51 54 59 62 64 65 65 66 66 66 66 66 68 67 67 67 67 67 65 63 61 60 59 60 60
65 66 66 66 67 67 67 66 64 62 59 57 55 55 55 54 52 50 51 53 56 57 61 64 65 66 66 66 66 66 67 67 67 68 67 68 66 64 62 60 60 60 60
64 66 66 65 66 66 66 65 65 62 60 59 58 57 56 55 53 51 51 52 54 56 58 61 63 64 65 66 65 65 66 66 67 67 67 67 67 65 63 62 60 60 60
63 64 65 64 63 64 64 64 64 64 62 61 60 59 57 57 56 55 53 52 54 54 56 57 60 60 62 65 65 65 65 66 66 66 66 67 67 66 64 63 61 60 61
62 61 62 62 62 62 63 64 63 63 62 62 62 61 61 58 56 56 56 55 55 56 56 58 60 61 61 63 64 64 64 65 65 66 66 66 66 66 65 64 62 61 61
62 61 61 60 60 62 62 62 63 63 62 62 61 60 57 57 58 57 56 56 56 55 56 57 59 61 62 62 62 63 63 64 64 64 65 65 66 66 65 64 63 62 61
62 61 61 61 61 62 62 61 62 62 60 60 61 58 54 53 51 54 56 56 55 56 58 59 61 61 61 60 61 61 61 63 64 64 63 63 65 66 65 65 64 63 62
62 62 61 61 61 62 61 61 62 62 61 59 60 62 59 56 53 53 55 56 57 57 58 59 60 60 60 60 60 59 60 61 63 63 64 63 63 64 63 65 65 63 62
61 61 61 61 61 61 61 61 61 61 61 60 59 58 59 60 58 55 53 53 57 57 58 58 59 59 60 60 60 59 59 61 62 63 64 64 63 63 63 64 65 64 63
61 61 61 61 62 61 60 60 60 60 61 61 61 60 59 57 57 56 55 55 54 54 56 58 57 58 59 60 59 58 58 60 62 62 63 63 63 63 63 64 64 62 62
58 59 60 61 61 61 62 61 60 60 60 61 60 59 59 58 57 56 56 54 53 54 56 58 58 58 58 59 58 56 56 58 60 61 62 62 62 63 63 63 62 61 61
57 58 59 59 60 60 60 60 59 60 61 60 60 59 59 58 58 56 55 53 51 52 54 54 56 57 58 58 57 55 57 57 58 59 59 59 60 60 61 61 61 60 60
58 58 59 59 60 60 61 60 60 60 60 60 60 59 58 58 58 57 57 55 53 51 52 53 54 56 56 56 56 56 55 55 56 57 57 57 57 58 59 60 59 59 59
57 56 55 54 56 59 60 60 59 59 59 58 58 58 57 58 58 57 57 58 57 56 53 55 55 56 54 54 54 54 53 52 54 55 56 55 55 56 57 58 58 57 58
50 50 50 50 49 49 53 52 52 56 58 56 55 57 54 54 54 53 54 54 54 54 52 53 54 53 53 52 53 52 51 50 51 54 54 54 54 55 56 56 56 56 56
48 48 47 47 47 48 48 49 49 49 49 48 49 49 48 49 50 50 50 49 50 50 49 46 48 49 50 49 49 48 49 49 49 50 51 51 51 53 55 55 55 55 55
47 47 47 46 46 47 47 47 47 47 47 46 46 46 46 45 44 44 45 45 46 45 46 45 43 45 46 47 46 46 46 46 47 48 48 49 49 50 52 54 54 54 52
44 45 45 44 44 42 43 41 40 40 41 41 42 43 41 41 41 41 42 41 40 40 40 40 40 40 41 42 42 42 42 42 44 45 47 48 48 49 49 51 53 52 51
38 39 39 39 40 39 39 40 38 38 38 38 39 39 39 40 40 41 40 39 38 37 37 37 37 37 37 37 38 41 40 41 40 43 44 43 44 44 46 48 49 50 50
36 37 38 38 37 36 38 39 39 38 37 37 36 35 35 35 37 38 37 37 36 35 36 36 35 35 35 36 38 38 37 37 36 42 42 42 40 43 43 45 48 50 50
34 33 35 36 35 35 37 37 37 35 34 33 33 32 29 32 35 33 34 34 34 35 35 33 32 33 33 35 37 36 37 37 37 40 41 39 40 41 43 44 47 48 49
32 31 33 34 33 33 36 36 37 32 32 30 30 29 29 30 33 32 32 32 31 31 32 32 33 33 33 34 35 36 37 38 38 39 37 37 37 39 40 41 44 46 47
30 31 32 30 31 32 34 35 34 30 28 29 28 29 29 29 33 33 31 30 29 29 31 33 33 34 36 38 38 37 36 35 33 34 37 36 37 35 33 35 37 41 44
29 30 30 29 28 31 32 33 33 30 27 28 27 27 31 30 32 32 30 29 28 28 29 30 30 34 35 36 38 38 37 35 34 34 35 34 33 32 34 33 33 35 38